<?xml version='1.0' encoding='UTF-8'?><gpx version="1.1" creator="JPX - https://github.com/jenetics/jpx" xmlns="http://www.topografix.com/GPX/1/1"><trk><trkseg><trkpt lat="43.85845933323812" lon="11.110261477131314"><ele>48.0</ele><time>2026-04-18T06:36:51Z</time></trkpt><trkpt lat="43.85850430586866" lon="11.110329298596547"><ele>48.0</ele><time>2026-04-18T06:36:54Z</time></trkpt><trkpt lat="43.858531635333435" lon="11.110443977992421"><ele>48.0</ele><time>2026-04-18T06:37:10Z</time></trkpt><trkpt lat="43.858491367821365" lon="11.110620917868044"><ele>48.0</ele><time>2026-04-18T06:37:12Z</time></trkpt><trkpt lat="43.858410532234615" lon="11.11074276367045"><ele>48.0</ele><time>2026-04-18T06:37:13Z</time></trkpt><trkpt lat="43.858348794697534" lon="11.110875720228446"><ele>48.0</ele><time>2026-04-18T06:37:14Z</time></trkpt><trkpt lat="43.858281531696946" lon="11.111040920165197"><ele>48.0</ele><time>2026-04-18T06:37:15Z</time></trkpt><trkpt lat="43.858209118481874" lon="11.111212623235561"><ele>48.0</ele><time>2026-04-18T06:37:16Z</time></trkpt><trkpt lat="43.85813191065831" lon="11.11136237019691"><ele>48.0</ele><time>2026-04-18T06:37:17Z</time></trkpt><trkpt lat="43.85805552855454" lon="11.111511989135831"><ele>48.25</ele><time>2026-04-18T06:37:18Z</time></trkpt><trkpt lat="43.8579804103519" lon="11.111663979023222"><ele>48.5</ele><time>2026-04-18T06:37:19Z</time></trkpt><trkpt lat="43.857904250479436" lon="11.111817813631847"><ele>48.75</ele><time>2026-04-18T06:37:20Z</time></trkpt><trkpt lat="43.85782546097207" lon="11.111975239705208"><ele>49.0</ele><time>2026-04-18T06:37:21Z</time></trkpt><trkpt lat="43.857743323789244" lon="11.112139332549956"><ele>49.0</ele><time>2026-04-18T06:37:22Z</time></trkpt><trkpt lat="43.85765995678798" lon="11.112314086560353"><ele>49.0</ele><time>2026-04-18T06:37:23Z</time></trkpt><trkpt lat="43.85757210466412" lon="11.11248699796664"><ele>49.0</ele><time>2026-04-18T06:37:24Z</time></trkpt><trkpt lat="43.85748589911549" lon="11.112657377773198"><ele>49.0</ele><time>2026-04-18T06:37:25Z</time></trkpt><trkpt lat="43.85740565002448" lon="11.11282441241699"><ele>49.0</ele><time>2026-04-18T06:37:26Z</time></trkpt><trkpt lat="43.85732748533106" lon="11.112979775356607"><ele>49.0</ele><time>2026-04-18T06:37:27Z</time></trkpt><trkpt lat="43.8572493980176" lon="11.11312535815295"><ele>49.0</ele><time>2026-04-18T06:37:28Z</time></trkpt><trkpt lat="43.857175834798994" lon="11.113269274105551"><ele>49.0</ele><time>2026-04-18T06:37:29Z</time></trkpt><trkpt lat="43.85710252122864" lon="11.113416986756159"><ele>49.0</ele><time>2026-04-18T06:37:30Z</time></trkpt><trkpt lat="43.85702677415437" lon="11.11357220679357"><ele>49.0</ele><time>2026-04-18T06:37:31Z</time></trkpt><trkpt lat="43.856950709242895" lon="11.11373465396403"><ele>49.0</ele><time>2026-04-18T06:37:32Z</time></trkpt><trkpt lat="43.8568742779566" lon="11.113903948320885"><ele>49.0</ele><time>2026-04-18T06:37:33Z</time></trkpt><trkpt lat="43.85679784630709" lon="11.114082352141862"><ele>49.0</ele><time>2026-04-18T06:37:34Z</time></trkpt><trkpt lat="43.85671724939974" lon="11.114259727061688"><ele>49.0</ele><time>2026-04-18T06:37:35Z</time></trkpt><trkpt lat="43.85663631933537" lon="11.114443904664812"><ele>48.33333333333333</ele><time>2026-04-18T06:37:36Z</time></trkpt><trkpt lat="43.85655266177065" lon="11.114632924041048"><ele>47.666666666666664</ele><time>2026-04-18T06:37:37Z</time></trkpt><trkpt lat="43.85647180748834" lon="11.114826007328565"><ele>47.0</ele><time>2026-04-18T06:37:38Z</time></trkpt><trkpt lat="43.85638364316961" lon="11.115018359268696"><ele>46.666666666666664</ele><time>2026-04-18T06:37:39Z</time></trkpt><trkpt lat="43.856292605526164" lon="11.11521517681066"><ele>46.333333333333336</ele><time>2026-04-18T06:37:40Z</time></trkpt><trkpt lat="43.85618191077112" lon="11.115417674028862"><ele>46.0</ele><time>2026-04-18T06:37:41Z</time></trkpt><trkpt lat="43.8560643230931" lon="11.11562272051653"><ele>46.0</ele><time>2026-04-18T06:37:42Z</time></trkpt><trkpt lat="43.85593004223046" lon="11.115820429870167"><ele>46.0</ele><time>2026-04-18T06:37:43Z</time></trkpt><trkpt lat="43.855796091112076" lon="11.115983444860117"><ele>46.0</ele><time>2026-04-18T06:37:44Z</time></trkpt><trkpt lat="43.855645877295316" lon="11.116108750229484"><ele>46.0</ele><time>2026-04-18T06:37:45Z</time></trkpt><trkpt lat="43.85547791769851" lon="11.116181421954279"><ele>46.0</ele><time>2026-04-18T06:37:46Z</time></trkpt><trkpt lat="43.8553100733117" lon="11.116219582325972"><ele>46.0</ele><time>2026-04-18T06:37:47Z</time></trkpt><trkpt lat="43.85513368264872" lon="11.116226579517384"><ele>46.333333333333336</ele><time>2026-04-18T06:37:48Z</time></trkpt><trkpt lat="43.85497958971983" lon="11.11624410085903"><ele>46.666666666666664</ele><time>2026-04-18T06:37:49Z</time></trkpt><trkpt lat="43.8548214057571" lon="11.11626614116045"><ele>47.0</ele><time>2026-04-18T06:37:50Z</time></trkpt><trkpt lat="43.85466882784258" lon="11.116300392896017"><ele>47.0</ele><time>2026-04-18T06:37:51Z</time></trkpt><trkpt lat="43.85453265076042" lon="11.11635524111993"><ele>47.0</ele><time>2026-04-18T06:37:52Z</time></trkpt><trkpt lat="43.85440119680177" lon="11.116462118458553"><ele>47.0</ele><time>2026-04-18T06:37:53Z</time></trkpt><trkpt lat="43.85428434042213" lon="11.116595957026856"><ele>47.0</ele><time>2026-04-18T06:37:54Z</time></trkpt><trkpt lat="43.854186116408094" lon="11.11676297323706"><ele>46.666666666666664</ele><time>2026-04-18T06:37:55Z</time></trkpt><trkpt lat="43.85409402360651" lon="11.116947899484039"><ele>46.333333333333336</ele><time>2026-04-18T06:37:56Z</time></trkpt><trkpt lat="43.854041426996226" lon="11.117163338274123"><ele>46.0</ele><time>2026-04-18T06:37:57Z</time></trkpt><trkpt lat="43.853988645631304" lon="11.117368905088528"><ele>46.5</ele><time>2026-04-18T06:37:58Z</time></trkpt><trkpt lat="43.853939856105065" lon="11.117559308264106"><ele>47.0</ele><time>2026-04-18T06:37:59Z</time></trkpt><trkpt lat="43.85389674324023" lon="11.117730347627468"><ele>47.5</ele><time>2026-04-18T06:38:00Z</time></trkpt><trkpt lat="43.85385942419427" lon="11.117878402349339"><ele>48.0</ele><time>2026-04-18T06:38:01Z</time></trkpt><trkpt lat="43.85382654059275" lon="11.118000437807579"><ele>48.0</ele><time>2026-04-18T06:38:02Z</time></trkpt><trkpt lat="43.853798968876006" lon="11.118096258147897"><ele>48.0</ele><time>2026-04-18T06:38:03Z</time></trkpt><trkpt lat="43.85375879628538" lon="11.118240696742625"><ele>48.0</ele><time>2026-04-18T06:38:05Z</time></trkpt><trkpt lat="43.85373537068844" lon="11.118326116523791"><ele>48.0</ele><time>2026-04-18T06:38:06Z</time></trkpt><trkpt lat="43.853707824079734" lon="11.118422086350492"><ele>48.0</ele><time>2026-04-18T06:38:07Z</time></trkpt><trkpt lat="43.853670947682176" lon="11.118550560363005"><ele>48.0</ele><time>2026-04-18T06:38:08Z</time></trkpt><trkpt lat="43.85362734439419" lon="11.118731132477373"><ele>48.0</ele><time>2026-04-18T06:38:09Z</time></trkpt><trkpt lat="43.853580991817644" lon="11.118943500361684"><ele>48.0</ele><time>2026-04-18T06:38:10Z</time></trkpt><trkpt lat="43.85356203669978" lon="11.119188428978424"><ele>48.0</ele><time>2026-04-18T06:38:11Z</time></trkpt><trkpt lat="43.85353876439633" lon="11.119487102061408"><ele>48.0</ele><time>2026-04-18T06:38:12Z</time></trkpt><trkpt lat="43.85352415081206" lon="11.11983137656855"><ele>48.0</ele><time>2026-04-18T06:38:13Z</time></trkpt><trkpt lat="43.853512828963225" lon="11.120173435246599"><ele>47.666666666666664</ele><time>2026-04-18T06:38:14Z</time></trkpt><trkpt lat="43.85350387025477" lon="11.120468143111033"><ele>47.33333333333333</ele><time>2026-04-18T06:38:15Z</time></trkpt><trkpt lat="43.853568829168054" lon="11.120735295820527"><ele>47.0</ele><time>2026-04-18T06:38:16Z</time></trkpt><trkpt lat="43.85357396977114" lon="11.120950588192777"><ele>47.0</ele><time>2026-04-18T06:38:17Z</time></trkpt><trkpt lat="43.85355851692688" lon="11.121122377982452"><ele>47.0</ele><time>2026-04-18T06:38:18Z</time></trkpt><trkpt lat="43.85352472476271" lon="11.121263219863811"><ele>47.0</ele><time>2026-04-18T06:38:19Z</time></trkpt><trkpt lat="43.85348545533957" lon="11.121378347918979"><ele>47.0</ele><time>2026-04-18T06:38:20Z</time></trkpt><trkpt lat="43.85343999549537" lon="11.121478201094511"><ele>47.0</ele><time>2026-04-18T06:38:21Z</time></trkpt><trkpt lat="43.853381170012725" lon="11.12157009266752"><ele>47.2</ele><time>2026-04-18T06:38:22Z</time></trkpt><trkpt lat="43.853314550373874" lon="11.12164947958774"><ele>47.400000000000006</ele><time>2026-04-18T06:38:23Z</time></trkpt><trkpt lat="43.85323828790532" lon="11.121719057698703"><ele>47.599999999999994</ele><time>2026-04-18T06:38:24Z</time></trkpt><trkpt lat="43.8531497949978" lon="11.12177307412713"><ele>47.8</ele><time>2026-04-18T06:38:25Z</time></trkpt><trkpt lat="43.85305166480103" lon="11.121805381882064"><ele>48.0</ele><time>2026-04-18T06:38:26Z</time></trkpt><trkpt lat="43.85294466040231" lon="11.121819171121306"><ele>48.0</ele><time>2026-04-18T06:38:27Z</time></trkpt><trkpt lat="43.85283617495484" lon="11.121811395122734"><ele>48.0</ele><time>2026-04-18T06:38:28Z</time></trkpt><trkpt lat="43.85272386627426" lon="11.121779217475584"><ele>48.0</ele><time>2026-04-18T06:38:29Z</time></trkpt><trkpt lat="43.85261451024719" lon="11.121720609556565"><ele>48.0</ele><time>2026-04-18T06:38:30Z</time></trkpt><trkpt lat="43.85251054407211" lon="11.121640758804253"><ele>47.25</ele><time>2026-04-18T06:38:31Z</time></trkpt><trkpt lat="43.85241258216219" lon="11.12154557007077"><ele>46.5</ele><time>2026-04-18T06:38:32Z</time></trkpt><trkpt lat="43.85231999360792" lon="11.121444083194485"><ele>45.75</ele><time>2026-04-18T06:38:33Z</time></trkpt><trkpt lat="43.852222187214686" lon="11.121329497229745"><ele>45.0</ele><time>2026-04-18T06:38:34Z</time></trkpt><trkpt lat="43.85213048893629" lon="11.12122559391341"><ele>45.0</ele><time>2026-04-18T06:38:35Z</time></trkpt><trkpt lat="43.852037848327264" lon="11.121089077249062"><ele>45.0</ele><time>2026-04-18T06:38:36Z</time></trkpt><trkpt lat="43.851945496533396" lon="11.120992691567611"><ele>45.0</ele><time>2026-04-18T06:38:37Z</time></trkpt><trkpt lat="43.851872861277585" lon="11.120868586727278"><ele>45.0</ele><time>2026-04-18T06:38:38Z</time></trkpt><trkpt lat="43.85180415083574" lon="11.120753788919586"><ele>44.4</ele><time>2026-04-18T06:38:39Z</time></trkpt><trkpt lat="43.85173428921243" lon="11.120639368709936"><ele>43.8</ele><time>2026-04-18T06:38:40Z</time></trkpt><trkpt lat="43.85168905938164" lon="11.120502523786799"><ele>43.2</ele><time>2026-04-18T06:38:41Z</time></trkpt><trkpt lat="43.85165984097823" lon="11.120357654581845"><ele>42.6</ele><time>2026-04-18T06:38:42Z</time></trkpt><trkpt lat="43.85164163766448" lon="11.120204386358813"><ele>42.0</ele><time>2026-04-18T06:38:43Z</time></trkpt><trkpt lat="43.851644120315996" lon="11.120046469164798"><ele>42.25</ele><time>2026-04-18T06:38:44Z</time></trkpt><trkpt lat="43.851683385567505" lon="11.119897979157493"><ele>42.5</ele><time>2026-04-18T06:38:45Z</time></trkpt><trkpt lat="43.85175221856516" lon="11.119764238148084"><ele>42.75</ele><time>2026-04-18T06:38:46Z</time></trkpt><trkpt lat="43.851840569574044" lon="11.119651246654616"><ele>43.0</ele><time>2026-04-18T06:38:47Z</time></trkpt><trkpt lat="43.8519384451455" lon="11.119569922198856"><ele>43.599999999999994</ele><time>2026-04-18T06:38:48Z</time></trkpt><trkpt lat="43.852052450658974" lon="11.1195210668351"><ele>44.199999999999996</ele><time>2026-04-18T06:38:49Z</time></trkpt><trkpt lat="43.85216328164905" lon="11.119506726803998"><ele>44.8</ele><time>2026-04-18T06:38:50Z</time></trkpt><trkpt lat="43.852257177749244" lon="11.11953109089477"><ele>45.4</ele><time>2026-04-18T06:38:51Z</time></trkpt><trkpt lat="43.85232916185232" lon="11.119599114415015"><ele>46.0</ele><time>2026-04-18T06:38:52Z</time></trkpt><trkpt lat="43.852402980273034" lon="11.119667985914518"><ele>46.0</ele><time>2026-04-18T06:38:53Z</time></trkpt><trkpt lat="43.85248089326478" lon="11.119750398538164"><ele>46.0</ele><time>2026-04-18T06:38:54Z</time></trkpt><trkpt lat="43.85254227511884" lon="11.119869060715773"><ele>46.0</ele><time>2026-04-18T06:38:55Z</time></trkpt><trkpt lat="43.852581908024504" lon="11.120017552635572"><ele>46.0</ele><time>2026-04-18T06:38:56Z</time></trkpt><trkpt lat="43.852593635780195" lon="11.12017144661448"><ele>46.0</ele><time>2026-04-18T06:38:57Z</time></trkpt><trkpt lat="43.85258370902028" lon="11.120327210837129"><ele>46.25</ele><time>2026-04-18T06:38:58Z</time></trkpt><trkpt lat="43.85254941208096" lon="11.120483811406377"><ele>46.5</ele><time>2026-04-18T06:38:59Z</time></trkpt><trkpt lat="43.852496844099" lon="11.120644814115947"><ele>46.75</ele><time>2026-04-18T06:39:00Z</time></trkpt><trkpt lat="43.85243246894206" lon="11.12081102107231"><ele>47.0</ele><time>2026-04-18T06:39:01Z</time></trkpt><trkpt lat="43.85235992236462" lon="11.12098335269621"><ele>46.33333333333333</ele><time>2026-04-18T06:39:02Z</time></trkpt><trkpt lat="43.852280477150536" lon="11.121158054423459"><ele>45.666666666666664</ele><time>2026-04-18T06:39:03Z</time></trkpt><trkpt lat="43.85218987235771" lon="11.121341872260336"><ele>45.0</ele><time>2026-04-18T06:39:04Z</time></trkpt><trkpt lat="43.85209228897405" lon="11.121529490379004"><ele>45.333333333333336</ele><time>2026-04-18T06:39:05Z</time></trkpt><trkpt lat="43.85198676529159" lon="11.121725202152243"><ele>45.66666666666667</ele><time>2026-04-18T06:39:06Z</time></trkpt><trkpt lat="43.85187216711582" lon="11.121927596654468"><ele>46.0</ele><time>2026-04-18T06:39:07Z</time></trkpt><trkpt lat="43.85174831098247" lon="11.122128577471573"><ele>46.0</ele><time>2026-04-18T06:39:08Z</time></trkpt><trkpt lat="43.851611831502716" lon="11.122330421348822"><ele>46.0</ele><time>2026-04-18T06:39:09Z</time></trkpt><trkpt lat="43.85147149178882" lon="11.122543354448664"><ele>46.0</ele><time>2026-04-18T06:39:10Z</time></trkpt><trkpt lat="43.85131563945325" lon="11.122786643939456"><ele>46.0</ele><time>2026-04-18T06:39:11Z</time></trkpt><trkpt lat="43.851156305138694" lon="11.12304615946235"><ele>46.0</ele><time>2026-04-18T06:39:12Z</time></trkpt><trkpt lat="43.850991327720934" lon="11.123314244002676"><ele>45.0</ele><time>2026-04-18T06:39:13Z</time></trkpt><trkpt lat="43.85082808715659" lon="11.123583311301644"><ele>44.0</ele><time>2026-04-18T06:39:14Z</time></trkpt><trkpt lat="43.85066293809192" lon="11.123849791885124"><ele>45.0</ele><time>2026-04-18T06:39:15Z</time></trkpt><trkpt lat="43.850498867118276" lon="11.124112364313627"><ele>46.0</ele><time>2026-04-18T06:39:16Z</time></trkpt><trkpt lat="43.8503327985729" lon="11.124373882691643"><ele>46.0</ele><time>2026-04-18T06:39:17Z</time></trkpt><trkpt lat="43.850167296192055" lon="11.12463441998697"><ele>46.0</ele><time>2026-04-18T06:39:18Z</time></trkpt><trkpt lat="43.85000120285438" lon="11.12490150112842"><ele>46.0</ele><time>2026-04-18T06:39:19Z</time></trkpt><trkpt lat="43.84983415129641" lon="11.125174485397066"><ele>46.0</ele><time>2026-04-18T06:39:20Z</time></trkpt><trkpt lat="43.84966414829787" lon="11.12545108608499"><ele>46.0</ele><time>2026-04-18T06:39:21Z</time></trkpt><trkpt lat="43.849491054710576" lon="11.125728211661965"><ele>46.0</ele><time>2026-04-18T06:39:22Z</time></trkpt><trkpt lat="43.84931555102357" lon="11.1259965507177"><ele>45.5</ele><time>2026-04-18T06:39:23Z</time></trkpt><trkpt lat="43.849139512352444" lon="11.126266586124522"><ele>45.0</ele><time>2026-04-18T06:39:24Z</time></trkpt><trkpt lat="43.84896520706453" lon="11.126537281004277"><ele>46.0</ele><time>2026-04-18T06:39:25Z</time></trkpt><trkpt lat="43.84879267167337" lon="11.126809203685086"><ele>47.0</ele><time>2026-04-18T06:39:26Z</time></trkpt><trkpt lat="43.84861970104026" lon="11.127080949239073"><ele>47.0</ele><time>2026-04-18T06:39:27Z</time></trkpt><trkpt lat="43.84844840713808" lon="11.127354018366312"><ele>47.0</ele><time>2026-04-18T06:39:28Z</time></trkpt><trkpt lat="43.84827615353885" lon="11.127626457601917"><ele>47.0</ele><time>2026-04-18T06:39:29Z</time></trkpt><trkpt lat="43.848100987307305" lon="11.127895631416427"><ele>47.0</ele><time>2026-04-18T06:39:30Z</time></trkpt><trkpt lat="43.84792426896943" lon="11.128165118244134"><ele>47.0</ele><time>2026-04-18T06:39:31Z</time></trkpt><trkpt lat="43.84774791924708" lon="11.12843631242679"><ele>47.0</ele><time>2026-04-18T06:39:32Z</time></trkpt><trkpt lat="43.84757517393637" lon="11.128708530966554"><ele>47.0</ele><time>2026-04-18T06:39:33Z</time></trkpt><trkpt lat="43.847399506943646" lon="11.128980832478705"><ele>47.0</ele><time>2026-04-18T06:39:34Z</time></trkpt><trkpt lat="43.847213787059225" lon="11.129257585376575"><ele>46.5</ele><time>2026-04-18T06:39:35Z</time></trkpt><trkpt lat="43.84701896703427" lon="11.129537698030814"><ele>46.0</ele><time>2026-04-18T06:39:36Z</time></trkpt><trkpt lat="43.84682289790791" lon="11.129824592069495"><ele>44.5</ele><time>2026-04-18T06:39:37Z</time></trkpt><trkpt lat="43.8466267024848" lon="11.130118222469353"><ele>43.0</ele><time>2026-04-18T06:39:38Z</time></trkpt><trkpt lat="43.84643211390304" lon="11.130415958495659"><ele>43.0</ele><time>2026-04-18T06:39:39Z</time></trkpt><trkpt lat="43.846244771014725" lon="11.130710009455322"><ele>43.0</ele><time>2026-04-18T06:39:40Z</time></trkpt><trkpt lat="43.84607081872424" lon="11.130977325272168"><ele>43.0</ele><time>2026-04-18T06:39:41Z</time></trkpt><trkpt lat="43.84590906345801" lon="11.131223828423755"><ele>43.0</ele><time>2026-04-18T06:39:42Z</time></trkpt><trkpt lat="43.84575218842027" lon="11.13146543397776"><ele>45.0</ele><time>2026-04-18T06:39:43Z</time></trkpt><trkpt lat="43.845600226622466" lon="11.131697566894909"><ele>47.0</ele><time>2026-04-18T06:39:44Z</time></trkpt><trkpt lat="43.845375756613535" lon="11.132048007678385"><ele>47.0</ele><time>2026-04-18T06:39:45Z</time></trkpt><trkpt lat="43.84521557955845" lon="11.132303864994725"><ele>47.0</ele><time>2026-04-18T06:39:46Z</time></trkpt><trkpt lat="43.84505262345837" lon="11.13255521329242"><ele>46.0</ele><time>2026-04-18T06:39:47Z</time></trkpt><trkpt lat="43.8448884102683" lon="11.132804714293812"><ele>45.0</ele><time>2026-04-18T06:39:48Z</time></trkpt><trkpt lat="43.844726626338556" lon="11.133054834808846"><ele>45.5</ele><time>2026-04-18T06:39:49Z</time></trkpt><trkpt lat="43.84456422671417" lon="11.133311059926479"><ele>46.0</ele><time>2026-04-18T06:39:50Z</time></trkpt><trkpt lat="43.84439856561078" lon="11.133570183837191"><ele>46.0</ele><time>2026-04-18T06:39:51Z</time></trkpt><trkpt lat="43.844234166273694" lon="11.133831394409382"><ele>46.0</ele><time>2026-04-18T06:39:52Z</time></trkpt><trkpt lat="43.844067643636045" lon="11.134092264205043"><ele>46.0</ele><time>2026-04-18T06:39:53Z</time></trkpt><trkpt lat="43.843896460767965" lon="11.134359288726133"><ele>46.0</ele><time>2026-04-18T06:39:54Z</time></trkpt><trkpt lat="43.84372667416427" lon="11.134634412123695"><ele>45.5</ele><time>2026-04-18T06:39:55Z</time></trkpt><trkpt lat="43.843548327956924" lon="11.134917434727763"><ele>45.0</ele><time>2026-04-18T06:39:56Z</time></trkpt><trkpt lat="43.84337162577739" lon="11.13520952760453"><ele>45.0</ele><time>2026-04-18T06:39:57Z</time></trkpt><trkpt lat="43.84318995731751" lon="11.135505580662239"><ele>45.0</ele><time>2026-04-18T06:39:58Z</time></trkpt><trkpt lat="43.84299858500858" lon="11.135804442599333"><ele>45.0</ele><time>2026-04-18T06:39:59Z</time></trkpt><trkpt lat="43.84280345150661" lon="11.136095396201906"><ele>45.0</ele><time>2026-04-18T06:40:00Z</time></trkpt><trkpt lat="43.84260645178172" lon="11.13640215808809"><ele>44.0</ele><time>2026-04-18T06:40:01Z</time></trkpt><trkpt lat="43.842409449421226" lon="11.1367059910129"><ele>43.0</ele><time>2026-04-18T06:40:02Z</time></trkpt><trkpt lat="43.84220777984083" lon="11.137007627211295"><ele>43.0</ele><time>2026-04-18T06:40:03Z</time></trkpt><trkpt lat="43.842014479021756" lon="11.137309643856804"><ele>43.0</ele><time>2026-04-18T06:40:04Z</time></trkpt><trkpt lat="43.84181559354609" lon="11.13761699782251"><ele>44.0</ele><time>2026-04-18T06:40:05Z</time></trkpt><trkpt lat="43.84161838883442" lon="11.137933654121404"><ele>45.0</ele><time>2026-04-18T06:40:06Z</time></trkpt><trkpt lat="43.841417822883415" lon="11.13824903356757"><ele>45.0</ele><time>2026-04-18T06:40:07Z</time></trkpt><trkpt lat="43.841214642108014" lon="11.138560983303654"><ele>45.0</ele><time>2026-04-18T06:40:08Z</time></trkpt><trkpt lat="43.84101107815233" lon="11.138877503647835"><ele>43.5</ele><time>2026-04-18T06:40:09Z</time></trkpt><trkpt lat="43.84081833348216" lon="11.139185272744367"><ele>42.0</ele><time>2026-04-18T06:40:10Z</time></trkpt><trkpt lat="43.84062108749688" lon="11.139488649755227"><ele>42.0</ele><time>2026-04-18T06:40:11Z</time></trkpt><trkpt lat="43.84042806460922" lon="11.139788124979816"><ele>42.0</ele><time>2026-04-18T06:40:12Z</time></trkpt><trkpt lat="43.84023816889009" lon="11.140083597131476"><ele>41.0</ele><time>2026-04-18T06:40:13Z</time></trkpt><trkpt lat="43.840049068723914" lon="11.140379161979409"><ele>40.0</ele><time>2026-04-18T06:40:14Z</time></trkpt><trkpt lat="43.839858157677405" lon="11.140665333907576"><ele>40.5</ele><time>2026-04-18T06:40:15Z</time></trkpt><trkpt lat="43.83966916236179" lon="11.140954993654939"><ele>41.0</ele><time>2026-04-18T06:40:16Z</time></trkpt><trkpt lat="43.83948144038711" lon="11.141245199407958"><ele>41.0</ele><time>2026-04-18T06:40:17Z</time></trkpt><trkpt lat="43.83929373813923" lon="11.141536700168942"><ele>41.0</ele><time>2026-04-18T06:40:18Z</time></trkpt><trkpt lat="43.839107659257515" lon="11.141828740881033"><ele>41.0</ele><time>2026-04-18T06:40:19Z</time></trkpt><trkpt lat="43.838919236758514" lon="11.142122260634451"><ele>41.0</ele><time>2026-04-18T06:40:20Z</time></trkpt><trkpt lat="43.838729934276174" lon="11.14241670228698"><ele>41.0</ele><time>2026-04-18T06:40:21Z</time></trkpt><trkpt lat="43.838544416455676" lon="11.142709701108343"><ele>41.0</ele><time>2026-04-18T06:40:22Z</time></trkpt><trkpt lat="43.83835776513621" lon="11.142996390832172"><ele>41.5</ele><time>2026-04-18T06:40:23Z</time></trkpt><trkpt lat="43.83816733887503" lon="11.143279505419887"><ele>42.0</ele><time>2026-04-18T06:40:24Z</time></trkpt><trkpt lat="43.83798215133963" lon="11.143565392121655"><ele>42.0</ele><time>2026-04-18T06:40:25Z</time></trkpt><trkpt lat="43.83779553314787" lon="11.143855759732423"><ele>42.0</ele><time>2026-04-18T06:40:26Z</time></trkpt><trkpt lat="43.83760850305859" lon="11.144140354218774"><ele>41.5</ele><time>2026-04-18T06:40:27Z</time></trkpt><trkpt lat="43.83742450583099" lon="11.144425018267107"><ele>41.0</ele><time>2026-04-18T06:40:28Z</time></trkpt><trkpt lat="43.8372495755697" lon="11.144695943860192"><ele>41.0</ele><time>2026-04-18T06:40:29Z</time></trkpt><trkpt lat="43.83709062567238" lon="11.144956824579275"><ele>41.0</ele><time>2026-04-18T06:40:30Z</time></trkpt><trkpt lat="43.8369137508736" lon="11.145222967993627"><ele>42.0</ele><time>2026-04-18T06:40:31Z</time></trkpt><trkpt lat="43.836737121754986" lon="11.14549281092595"><ele>43.0</ele><time>2026-04-18T06:40:32Z</time></trkpt><trkpt lat="43.836558908124104" lon="11.145773999844366"><ele>43.0</ele><time>2026-04-18T06:40:33Z</time></trkpt><trkpt lat="43.83638138607467" lon="11.146051299228825"><ele>43.0</ele><time>2026-04-18T06:40:34Z</time></trkpt><trkpt lat="43.836201171269366" lon="11.146328964609115"><ele>42.5</ele><time>2026-04-18T06:40:35Z</time></trkpt><trkpt lat="43.83601862218395" lon="11.14660672590975"><ele>42.0</ele><time>2026-04-18T06:40:36Z</time></trkpt><trkpt lat="43.835834784849645" lon="11.146888827627832"><ele>42.0</ele><time>2026-04-18T06:40:37Z</time></trkpt><trkpt lat="43.83565212450211" lon="11.147170964759587"><ele>42.0</ele><time>2026-04-18T06:40:38Z</time></trkpt><trkpt lat="43.83546560273787" lon="11.14745638286044"><ele>41.5</ele><time>2026-04-18T06:40:39Z</time></trkpt><trkpt lat="43.835277924828375" lon="11.147743098426837"><ele>41.0</ele><time>2026-04-18T06:40:40Z</time></trkpt><trkpt lat="43.835089579641725" lon="11.148033052103715"><ele>41.5</ele><time>2026-04-18T06:40:41Z</time></trkpt><trkpt lat="43.8348997835054" lon="11.148328115266388"><ele>42.0</ele><time>2026-04-18T06:40:42Z</time></trkpt><trkpt lat="43.83471082133464" lon="11.148623218211288"><ele>42.0</ele><time>2026-04-18T06:40:43Z</time></trkpt><trkpt lat="43.83451816142017" lon="11.148920694433913"><ele>42.0</ele><time>2026-04-18T06:40:44Z</time></trkpt><trkpt lat="43.83433441901056" lon="11.14919528543959"><ele>42.0</ele><time>2026-04-18T06:40:45Z</time></trkpt><trkpt lat="43.8341589224144" lon="11.149447235278995"><ele>42.0</ele><time>2026-04-18T06:40:46Z</time></trkpt><trkpt lat="43.8339928005483" lon="11.149684916710433"><ele>41.0</ele><time>2026-04-18T06:40:47Z</time></trkpt><trkpt lat="43.83383085780126" lon="11.149912643418523"><ele>40.0</ele><time>2026-04-18T06:40:48Z</time></trkpt><trkpt lat="43.833672927939" lon="11.150134953189806"><ele>40.0</ele><time>2026-04-18T06:40:49Z</time></trkpt><trkpt lat="43.83352266837666" lon="11.150347898144483"><ele>40.0</ele><time>2026-04-18T06:40:50Z</time></trkpt><trkpt lat="43.833382402204755" lon="11.150538018891927"><ele>40.0</ele><time>2026-04-18T06:40:51Z</time></trkpt><trkpt lat="43.83325049387021" lon="11.150708243968353"><ele>40.333333333333336</ele><time>2026-04-18T06:40:52Z</time></trkpt><trkpt lat="43.83311663609218" lon="11.150867383498293"><ele>40.666666666666664</ele><time>2026-04-18T06:40:53Z</time></trkpt><trkpt lat="43.832987561846906" lon="11.151020283695113"><ele>41.0</ele><time>2026-04-18T06:40:54Z</time></trkpt><trkpt lat="43.83286973655421" lon="11.151171249242779"><ele>41.0</ele><time>2026-04-18T06:40:55Z</time></trkpt><trkpt lat="43.83276163939487" lon="11.151317122339352"><ele>41.0</ele><time>2026-04-18T06:40:56Z</time></trkpt><trkpt lat="43.8326589789536" lon="11.151450397260561"><ele>41.0</ele><time>2026-04-18T06:40:57Z</time></trkpt><trkpt lat="43.83257128712879" lon="11.151562106391538"><ele>41.0</ele><time>2026-04-18T06:40:58Z</time></trkpt><trkpt lat="43.83249377463376" lon="11.15166008220213"><ele>41.0</ele><time>2026-04-18T06:40:59Z</time></trkpt><trkpt lat="43.83241448309107" lon="11.151762086340819"><ele>41.0</ele><time>2026-04-18T06:41:00Z</time></trkpt><trkpt lat="43.832330505250845" lon="11.15186827865747"><ele>41.0</ele><time>2026-04-18T06:41:01Z</time></trkpt><trkpt lat="43.83224398773553" lon="11.151976319429362"><ele>41.0</ele><time>2026-04-18T06:41:02Z</time></trkpt><trkpt lat="43.832154254711504" lon="11.152086122353404"><ele>41.0</ele><time>2026-04-18T06:41:03Z</time></trkpt><trkpt lat="43.83206715336255" lon="11.15219424808362"><ele>41.0</ele><time>2026-04-18T06:41:04Z</time></trkpt><trkpt lat="43.83196560197485" lon="11.152321653853564"><ele>41.0</ele><time>2026-04-18T06:41:05Z</time></trkpt><trkpt lat="43.831863795172644" lon="11.152429105062593"><ele>41.0</ele><time>2026-04-18T06:41:06Z</time></trkpt><trkpt lat="43.83175255396815" lon="11.152533519992541"><ele>40.25</ele><time>2026-04-18T06:41:07Z</time></trkpt><trkpt lat="43.831637588836685" lon="11.152634624948988"><ele>39.5</ele><time>2026-04-18T06:41:08Z</time></trkpt><trkpt lat="43.83152028472996" lon="11.152736001965826"><ele>38.75</ele><time>2026-04-18T06:41:08.999Z</time></trkpt><trkpt lat="43.83139924650627" lon="11.152831477850498"><ele>38.0</ele><time>2026-04-18T06:41:10Z</time></trkpt><trkpt lat="43.83127280806398" lon="11.152919836911174"><ele>38.0</ele><time>2026-04-18T06:41:11Z</time></trkpt><trkpt lat="43.83114450368897" lon="11.153002156605833"><ele>38.0</ele><time>2026-04-18T06:41:12Z</time></trkpt><trkpt lat="43.831012252132474" lon="11.153078503632143"><ele>38.0</ele><time>2026-04-18T06:41:13Z</time></trkpt><trkpt lat="43.83087766704443" lon="11.153144405758828"><ele>38.0</ele><time>2026-04-18T06:41:14Z</time></trkpt><trkpt lat="43.83073638951117" lon="11.153208219302448"><ele>38.0</ele><time>2026-04-18T06:41:15Z</time></trkpt><trkpt lat="43.83058899335877" lon="11.15326452136586"><ele>38.0</ele><time>2026-04-18T06:41:16Z</time></trkpt><trkpt lat="43.83043621539586" lon="11.153303989520023"><ele>38.0</ele><time>2026-04-18T06:41:17Z</time></trkpt><trkpt lat="43.83027894600313" lon="11.15333461539773"><ele>38.33333333333333</ele><time>2026-04-18T06:41:18Z</time></trkpt><trkpt lat="43.83011939565752" lon="11.1533571050159"><ele>38.666666666666664</ele><time>2026-04-18T06:41:19Z</time></trkpt><trkpt lat="43.829959677995554" lon="11.153369906566168"><ele>39.0</ele><time>2026-04-18T06:41:20Z</time></trkpt><trkpt lat="43.82979914740843" lon="11.153373575711608"><ele>39.0</ele><time>2026-04-18T06:41:21Z</time></trkpt><trkpt lat="43.82963496413135" lon="11.153367543567622"><ele>39.0</ele><time>2026-04-18T06:41:22Z</time></trkpt><trkpt lat="43.8294625359592" lon="11.153344466745235"><ele>39.0</ele><time>2026-04-18T06:41:23Z</time></trkpt><trkpt lat="43.829290882491016" lon="11.15330700361128"><ele>39.333333333333336</ele><time>2026-04-18T06:41:24Z</time></trkpt><trkpt lat="43.82911678871799" lon="11.153259572016385"><ele>39.66666666666667</ele><time>2026-04-18T06:41:25Z</time></trkpt><trkpt lat="43.82893827944869" lon="11.153196171874585"><ele>40.0</ele><time>2026-04-18T06:41:26Z</time></trkpt><trkpt lat="43.828757543120055" lon="11.153119832712196"><ele>39.333333333333336</ele><time>2026-04-18T06:41:27Z</time></trkpt><trkpt lat="43.82857746970035" lon="11.153035261315402"><ele>38.666666666666664</ele><time>2026-04-18T06:41:28Z</time></trkpt><trkpt lat="43.828396089697" lon="11.152941507675754"><ele>38.0</ele><time>2026-04-18T06:41:29Z</time></trkpt><trkpt lat="43.82821301063128" lon="11.152834979262304"><ele>38.0</ele><time>2026-04-18T06:41:30Z</time></trkpt><trkpt lat="43.82802756637486" lon="11.152729825944034"><ele>38.0</ele><time>2026-04-18T06:41:31Z</time></trkpt><trkpt lat="43.82784569781875" lon="11.152621972457988"><ele>38.0</ele><time>2026-04-18T06:41:32Z</time></trkpt><trkpt lat="43.82765597087768" lon="11.152517861081765"><ele>38.0</ele><time>2026-04-18T06:41:33Z</time></trkpt><trkpt lat="43.82746645073186" lon="11.152415212856962"><ele>38.0</ele><time>2026-04-18T06:41:34Z</time></trkpt><trkpt lat="43.827273601608205" lon="11.152324450335966"><ele>38.0</ele><time>2026-04-18T06:41:35Z</time></trkpt><trkpt lat="43.827061605273045" lon="11.152227809983689"><ele>37.5</ele><time>2026-04-18T06:41:36Z</time></trkpt><trkpt lat="43.82683967655145" lon="11.152133151754104"><ele>37.0</ele><time>2026-04-18T06:41:37Z</time></trkpt><trkpt lat="43.826611818261256" lon="11.15203914991018"><ele>37.0</ele><time>2026-04-18T06:41:38Z</time></trkpt><trkpt lat="43.826379672170056" lon="11.151941573309044"><ele>37.0</ele><time>2026-04-18T06:41:39Z</time></trkpt><trkpt lat="43.82613924789318" lon="11.151850685357"><ele>37.5</ele><time>2026-04-18T06:41:40Z</time></trkpt><trkpt lat="43.82589793982462" lon="11.151767352361375"><ele>38.0</ele><time>2026-04-18T06:41:41Z</time></trkpt><trkpt lat="43.82564639150234" lon="11.151699382084773"><ele>38.0</ele><time>2026-04-18T06:41:42Z</time></trkpt><trkpt lat="43.82538816777534" lon="11.151640878162384"><ele>38.0</ele><time>2026-04-18T06:41:43Z</time></trkpt><trkpt lat="43.825121834278264" lon="11.151591558126967"><ele>38.0</ele><time>2026-04-18T06:41:44Z</time></trkpt><trkpt lat="43.824848191061776" lon="11.15155523617983"><ele>38.0</ele><time>2026-04-18T06:41:45Z</time></trkpt><trkpt lat="43.8245644758156" lon="11.151529244755984"><ele>37.0</ele><time>2026-04-18T06:41:46Z</time></trkpt><trkpt lat="43.82427412496994" lon="11.151508257046883"><ele>36.0</ele><time>2026-04-18T06:41:47Z</time></trkpt><trkpt lat="43.82397911813622" lon="11.151498926193616"><ele>36.0</ele><time>2026-04-18T06:41:48Z</time></trkpt><trkpt lat="43.8236779235138" lon="11.15149852341318"><ele>36.0</ele><time>2026-04-18T06:41:49Z</time></trkpt><trkpt lat="43.82336846389463" lon="11.151499071953308"><ele>36.0</ele><time>2026-04-18T06:41:50Z</time></trkpt><trkpt lat="43.82306515135903" lon="11.151495883054805"><ele>36.0</ele><time>2026-04-18T06:41:51Z</time></trkpt><trkpt lat="43.82275821747253" lon="11.151495114542266"><ele>35.5</ele><time>2026-04-18T06:41:52Z</time></trkpt><trkpt lat="43.8224617886095" lon="11.151491244317542"><ele>35.0</ele><time>2026-04-18T06:41:53Z</time></trkpt><trkpt lat="43.822171667902936" lon="11.151483795149014"><ele>35.0</ele><time>2026-04-18T06:41:54Z</time></trkpt><trkpt lat="43.82189099784256" lon="11.151476337898378"><ele>35.0</ele><time>2026-04-18T06:41:55Z</time></trkpt><trkpt lat="43.8216164668512" lon="11.15146865820767"><ele>35.0</ele><time>2026-04-18T06:41:56Z</time></trkpt><trkpt lat="43.821349990487484" lon="11.151465648105738"><ele>35.0</ele><time>2026-04-18T06:41:57Z</time></trkpt><trkpt lat="43.82108414774737" lon="11.151463682972002"><ele>35.5</ele><time>2026-04-18T06:41:58Z</time></trkpt><trkpt lat="43.82081209452793" lon="11.15145786988069"><ele>36.0</ele><time>2026-04-18T06:41:59Z</time></trkpt><trkpt lat="43.82053594952813" lon="11.15144582993891"><ele>36.0</ele><time>2026-04-18T06:42:00Z</time></trkpt><trkpt lat="43.82026202496524" lon="11.151435079391618"><ele>36.0</ele><time>2026-04-18T06:42:01Z</time></trkpt><trkpt lat="43.81999684868656" lon="11.15142615643052"><ele>36.0</ele><time>2026-04-18T06:42:02Z</time></trkpt><trkpt lat="43.819736126001104" lon="11.15141873190069"><ele>36.0</ele><time>2026-04-18T06:42:03Z</time></trkpt><trkpt lat="43.81947537411972" lon="11.151411409063245"><ele>36.5</ele><time>2026-04-18T06:42:04Z</time></trkpt><trkpt lat="43.819217533325684" lon="11.151404080077588"><ele>37.0</ele><time>2026-04-18T06:42:05Z</time></trkpt><trkpt lat="43.818960459193484" lon="11.151395263400307"><ele>37.0</ele><time>2026-04-18T06:42:06Z</time></trkpt><trkpt lat="43.81870794333211" lon="11.151389754081768"><ele>37.0</ele><time>2026-04-18T06:42:07Z</time></trkpt><trkpt lat="43.81845733761109" lon="11.151385184435716"><ele>35.5</ele><time>2026-04-18T06:42:08Z</time></trkpt><trkpt lat="43.81820675622084" lon="11.151382150380314"><ele>34.0</ele><time>2026-04-18T06:42:09Z</time></trkpt><trkpt lat="43.81795401529866" lon="11.151380695883438"><ele>34.0</ele><time>2026-04-18T06:42:10Z</time></trkpt><trkpt lat="43.81770030205518" lon="11.151380457550282"><ele>34.0</ele><time>2026-04-18T06:42:11Z</time></trkpt><trkpt lat="43.81744240584778" lon="11.151371327943862"><ele>34.5</ele><time>2026-04-18T06:42:12Z</time></trkpt><trkpt lat="43.81718235810745" lon="11.151365713052893"><ele>35.0</ele><time>2026-04-18T06:42:13Z</time></trkpt><trkpt lat="43.81691549179335" lon="11.151362493479997"><ele>36.0</ele><time>2026-04-18T06:42:14Z</time></trkpt><trkpt lat="43.81664601514246" lon="11.151360431781347"><ele>37.0</ele><time>2026-04-18T06:42:15Z</time></trkpt><trkpt lat="43.816374468267924" lon="11.151358296281677"><ele>37.0</ele><time>2026-04-18T06:42:16Z</time></trkpt><trkpt lat="43.81610516216232" lon="11.151353571043963"><ele>37.0</ele><time>2026-04-18T06:42:17Z</time></trkpt><trkpt lat="43.81583408823022" lon="11.151348187209388"><ele>35.5</ele><time>2026-04-18T06:42:18Z</time></trkpt><trkpt lat="43.81556615256883" lon="11.15134363214767"><ele>34.0</ele><time>2026-04-18T06:42:19Z</time></trkpt><trkpt lat="43.815298758897356" lon="11.151341963583198"><ele>34.0</ele><time>2026-04-18T06:42:20Z</time></trkpt><trkpt lat="43.8150300266474" lon="11.151339916463494"><ele>34.0</ele><time>2026-04-18T06:42:21Z</time></trkpt><trkpt lat="43.814760085502236" lon="11.151337888885573"><ele>34.0</ele><time>2026-04-18T06:42:22Z</time></trkpt><trkpt lat="43.81449426623668" lon="11.151337639134132"><ele>34.0</ele><time>2026-04-18T06:42:23Z</time></trkpt><trkpt lat="43.81422916271446" lon="11.151340984877342"><ele>34.0</ele><time>2026-04-18T06:42:24Z</time></trkpt><trkpt lat="43.81396220411247" lon="11.151348436336859"><ele>34.0</ele><time>2026-04-18T06:42:25Z</time></trkpt><trkpt lat="43.81369750758534" lon="11.151362690692016"><ele>34.0</ele><time>2026-04-18T06:42:26Z</time></trkpt><trkpt lat="43.813430707761526" lon="11.15138342412716"><ele>34.0</ele><time>2026-04-18T06:42:27Z</time></trkpt><trkpt lat="43.81316600940195" lon="11.151413047437645"><ele>34.0</ele><time>2026-04-18T06:42:28Z</time></trkpt><trkpt lat="43.812901355901055" lon="11.151451498995357"><ele>34.0</ele><time>2026-04-18T06:42:29Z</time></trkpt><trkpt lat="43.81263683340447" lon="11.151497044526636"><ele>34.5</ele><time>2026-04-18T06:42:30Z</time></trkpt><trkpt lat="43.81237270086406" lon="11.15154944711275"><ele>35.0</ele><time>2026-04-18T06:42:31Z</time></trkpt><trkpt lat="43.812111448309466" lon="11.151609532173204"><ele>35.0</ele><time>2026-04-18T06:42:32Z</time></trkpt><trkpt lat="43.81184985064581" lon="11.151673740580607"><ele>35.0</ele><time>2026-04-18T06:42:33Z</time></trkpt><trkpt lat="43.81159068056501" lon="11.151741748172649"><ele>34.5</ele><time>2026-04-18T06:42:34Z</time></trkpt><trkpt lat="43.81133561730481" lon="11.15181304051133"><ele>34.0</ele><time>2026-04-18T06:42:35Z</time></trkpt><trkpt lat="43.81108622420876" lon="11.151884238217537"><ele>34.0</ele><time>2026-04-18T06:42:36Z</time></trkpt><trkpt lat="43.81083799333845" lon="11.15195512781691"><ele>34.0</ele><time>2026-04-18T06:42:37Z</time></trkpt><trkpt lat="43.81058984557981" lon="11.152022833354332"><ele>34.0</ele><time>2026-04-18T06:42:38Z</time></trkpt><trkpt lat="43.81034317341848" lon="11.152091600785717"><ele>34.0</ele><time>2026-04-18T06:42:39Z</time></trkpt><trkpt lat="43.81009244365458" lon="11.152158903220904"><ele>36.0</ele><time>2026-04-18T06:42:40Z</time></trkpt><trkpt lat="43.80984399619521" lon="11.152227339198827"><ele>38.0</ele><time>2026-04-18T06:42:41Z</time></trkpt><trkpt lat="43.809595453018446" lon="11.152297186403104"><ele>38.0</ele><time>2026-04-18T06:42:42Z</time></trkpt><trkpt lat="43.80934584901675" lon="11.152368596664768"><ele>38.0</ele><time>2026-04-18T06:42:43Z</time></trkpt><trkpt lat="43.809099847987625" lon="11.152439880350535"><ele>37.0</ele><time>2026-04-18T06:42:44Z</time></trkpt><trkpt lat="43.8088552600228" lon="11.152508738544325"><ele>36.0</ele><time>2026-04-18T06:42:45Z</time></trkpt><trkpt lat="43.8086103752557" lon="11.15257587926036"><ele>35.0</ele><time>2026-04-18T06:42:46Z</time></trkpt><trkpt lat="43.80836546845306" lon="11.152641239051984"><ele>34.0</ele><time>2026-04-18T06:42:47Z</time></trkpt><trkpt lat="43.808121622629365" lon="11.152707664890961"><ele>34.0</ele><time>2026-04-18T06:42:48Z</time></trkpt><trkpt lat="43.807881705340286" lon="11.152774796512682"><ele>34.0</ele><time>2026-04-18T06:42:49Z</time></trkpt><trkpt lat="43.807633030528635" lon="11.152838473839852"><ele>34.0</ele><time>2026-04-18T06:42:50Z</time></trkpt><trkpt lat="43.80737851843524" lon="11.152900939893472"><ele>34.0</ele><time>2026-04-18T06:42:51Z</time></trkpt><trkpt lat="43.80712157571" lon="11.152963258572624"><ele>34.0</ele><time>2026-04-18T06:42:52Z</time></trkpt><trkpt lat="43.80692904139222" lon="11.153050227632725"><ele>34.0</ele><time>2026-04-18T06:42:53Z</time></trkpt><trkpt lat="43.806689843110895" lon="11.153117832377308"><ele>34.0</ele><time>2026-04-18T06:42:54Z</time></trkpt><trkpt lat="43.806447576963194" lon="11.153184921849979"><ele>34.0</ele><time>2026-04-18T06:42:55Z</time></trkpt><trkpt lat="43.806201832147785" lon="11.153255107143657"><ele>34.0</ele><time>2026-04-18T06:42:56Z</time></trkpt><trkpt lat="43.80595440760181" lon="11.153323238399247"><ele>34.0</ele><time>2026-04-18T06:42:57Z</time></trkpt><trkpt lat="43.805700036854866" lon="11.153390366534763"><ele>34.0</ele><time>2026-04-18T06:42:58Z</time></trkpt><trkpt lat="43.805445653394244" lon="11.153458654492663"><ele>34.0</ele><time>2026-04-18T06:42:59Z</time></trkpt><trkpt lat="43.805183280676616" lon="11.153528441017782"><ele>34.0</ele><time>2026-04-18T06:43:00Z</time></trkpt><trkpt lat="43.804924557357786" lon="11.153599874352528"><ele>35.5</ele><time>2026-04-18T06:43:01Z</time></trkpt><trkpt lat="43.80467080736308" lon="11.153670760182111"><ele>37.0</ele><time>2026-04-18T06:43:02Z</time></trkpt><trkpt lat="43.80442609807805" lon="11.153745742118437"><ele>36.0</ele><time>2026-04-18T06:43:03Z</time></trkpt><trkpt lat="43.80418188508634" lon="11.153815684253088"><ele>35.0</ele><time>2026-04-18T06:43:04Z</time></trkpt><trkpt lat="43.8039377631305" lon="11.153884691264802"><ele>35.0</ele><time>2026-04-18T06:43:05Z</time></trkpt><trkpt lat="43.80369425243884" lon="11.153956621970382"><ele>35.0</ele><time>2026-04-18T06:43:06Z</time></trkpt><trkpt lat="43.80344334452566" lon="11.154028574311242"><ele>34.5</ele><time>2026-04-18T06:43:07Z</time></trkpt><trkpt lat="43.803190750450014" lon="11.1540962727074"><ele>34.0</ele><time>2026-04-18T06:43:08Z</time></trkpt><trkpt lat="43.802939008066915" lon="11.154169072013724"><ele>34.0</ele><time>2026-04-18T06:43:08.999Z</time></trkpt><trkpt lat="43.80268564183327" lon="11.154242621979707"><ele>34.0</ele><time>2026-04-18T06:43:09.999Z</time></trkpt><trkpt lat="43.802425576254294" lon="11.15431554295194"><ele>35.0</ele><time>2026-04-18T06:43:10.999Z</time></trkpt><trkpt lat="43.80216261938663" lon="11.154382119430945"><ele>36.0</ele><time>2026-04-18T06:43:11.999Z</time></trkpt><trkpt lat="43.801892121753745" lon="11.154452208124987"><ele>36.5</ele><time>2026-04-18T06:43:12.999Z</time></trkpt><trkpt lat="43.80161623874424" lon="11.154528162423007"><ele>37.0</ele><time>2026-04-18T06:43:13.999Z</time></trkpt><trkpt lat="43.801323102279135" lon="11.154613148165096"><ele>37.0</ele><time>2026-04-18T06:43:14.999Z</time></trkpt><trkpt lat="43.801039086850544" lon="11.154691138665221"><ele>37.0</ele><time>2026-04-18T06:43:16Z</time></trkpt><trkpt lat="43.800742641019866" lon="11.154775471607568"><ele>36.5</ele><time>2026-04-18T06:43:17Z</time></trkpt><trkpt lat="43.80044758912989" lon="11.154860089493832"><ele>36.0</ele><time>2026-04-18T06:43:18Z</time></trkpt><trkpt lat="43.800142373260094" lon="11.15494633346051"><ele>36.0</ele><time>2026-04-18T06:43:19Z</time></trkpt><trkpt lat="43.799835240346205" lon="11.155032689784122"><ele>36.0</ele><time>2026-04-18T06:43:20Z</time></trkpt><trkpt lat="43.799524161657494" lon="11.155121029769784"><ele>35.5</ele><time>2026-04-18T06:43:21Z</time></trkpt><trkpt lat="43.799210596360155" lon="11.155207362606262"><ele>35.0</ele><time>2026-04-18T06:43:22Z</time></trkpt><trkpt lat="43.79889421346644" lon="11.155290642117373"><ele>35.0</ele><time>2026-04-18T06:43:23Z</time></trkpt><trkpt lat="43.79857683894163" lon="11.155371152721846"><ele>35.0</ele><time>2026-04-18T06:43:24Z</time></trkpt><trkpt lat="43.79825761581569" lon="11.155449956144802"><ele>35.0</ele><time>2026-04-18T06:43:25Z</time></trkpt><trkpt lat="43.797938178097255" lon="11.15553159396284"><ele>35.0</ele><time>2026-04-18T06:43:26Z</time></trkpt><trkpt lat="43.797616740733694" lon="11.155615242183295"><ele>35.0</ele><time>2026-04-18T06:43:27Z</time></trkpt><trkpt lat="43.79729392664411" lon="11.155702846879887"><ele>35.0</ele><time>2026-04-18T06:43:28Z</time></trkpt><trkpt lat="43.79697104214548" lon="11.15579337277708"><ele>35.0</ele><time>2026-04-18T06:43:29Z</time></trkpt><trkpt lat="43.79664655096032" lon="11.155884682435094"><ele>35.0</ele><time>2026-04-18T06:43:30Z</time></trkpt><trkpt lat="43.79632227985347" lon="11.155975774302558"><ele>35.0</ele><time>2026-04-18T06:43:31Z</time></trkpt><trkpt lat="43.795998215314675" lon="11.156066911503853"><ele>35.0</ele><time>2026-04-18T06:43:32Z</time></trkpt><trkpt lat="43.795674650778984" lon="11.156154265239412"><ele>35.0</ele><time>2026-04-18T06:43:33Z</time></trkpt><trkpt lat="43.79535250048007" lon="11.156243767552109"><ele>35.0</ele><time>2026-04-18T06:43:34Z</time></trkpt><trkpt lat="43.79503146790181" lon="11.15633333684345"><ele>35.0</ele><time>2026-04-18T06:43:35Z</time></trkpt><trkpt lat="43.79470804428015" lon="11.156422793811503"><ele>35.0</ele><time>2026-04-18T06:43:36Z</time></trkpt><trkpt lat="43.79438546907898" lon="11.156510230528548"><ele>35.5</ele><time>2026-04-18T06:43:37Z</time></trkpt><trkpt lat="43.79406209606327" lon="11.1566013146566"><ele>36.0</ele><time>2026-04-18T06:43:38Z</time></trkpt><trkpt lat="43.793735437166106" lon="11.156693398817362"><ele>37.5</ele><time>2026-04-18T06:43:39Z</time></trkpt><trkpt lat="43.793408755312775" lon="11.156784635847647"><ele>39.0</ele><time>2026-04-18T06:43:40Z</time></trkpt><trkpt lat="43.793082533690885" lon="11.156874727102368"><ele>39.0</ele><time>2026-04-18T06:43:41Z</time></trkpt><trkpt lat="43.792759479753826" lon="11.156962146987977"><ele>39.0</ele><time>2026-04-18T06:43:42Z</time></trkpt><trkpt lat="43.79243496012339" lon="11.157052137267206"><ele>37.5</ele><time>2026-04-18T06:43:43Z</time></trkpt><trkpt lat="43.79211422538768" lon="11.157142865317846"><ele>36.0</ele><time>2026-04-18T06:43:44Z</time></trkpt><trkpt lat="43.79179586280764" lon="11.15724191597609"><ele>36.0</ele><time>2026-04-18T06:43:45Z</time></trkpt><trkpt lat="43.79148088314707" lon="11.15734534791068"><ele>36.0</ele><time>2026-04-18T06:43:46Z</time></trkpt><trkpt lat="43.7911801110992" lon="11.157438567192447"><ele>36.5</ele><time>2026-04-18T06:43:47Z</time></trkpt><trkpt lat="43.79088155794738" lon="11.157520003560888"><ele>37.0</ele><time>2026-04-18T06:43:48Z</time></trkpt><trkpt lat="43.79058487764666" lon="11.157598180768584"><ele>37.0</ele><time>2026-04-18T06:43:49Z</time></trkpt><trkpt lat="43.7902868128657" lon="11.157682558732326"><ele>37.0</ele><time>2026-04-18T06:43:50Z</time></trkpt><trkpt lat="43.789990240049256" lon="11.157767877622819"><ele>37.0</ele><time>2026-04-18T06:43:51Z</time></trkpt><trkpt lat="43.78968857784098" lon="11.157855997655552"><ele>37.0</ele><time>2026-04-18T06:43:52Z</time></trkpt><trkpt lat="43.7893854896357" lon="11.157942581177856"><ele>36.5</ele><time>2026-04-18T06:43:53Z</time></trkpt><trkpt lat="43.78908304764808" lon="11.15802586263748"><ele>36.0</ele><time>2026-04-18T06:43:54Z</time></trkpt><trkpt lat="43.78878324689741" lon="11.158106618551164"><ele>36.5</ele><time>2026-04-18T06:43:55Z</time></trkpt><trkpt lat="43.788482155235364" lon="11.158188944864783"><ele>37.0</ele><time>2026-04-18T06:43:56Z</time></trkpt><trkpt lat="43.788182106924154" lon="11.15827390457847"><ele>37.5</ele><time>2026-04-18T06:43:57Z</time></trkpt><trkpt lat="43.78788287876657" lon="11.158356849510055"><ele>38.0</ele><time>2026-04-18T06:43:58Z</time></trkpt><trkpt lat="43.787587630785936" lon="11.158437537178063"><ele>38.0</ele><time>2026-04-18T06:43:59Z</time></trkpt><trkpt lat="43.78729760188689" lon="11.158518679704898"><ele>38.0</ele><time>2026-04-18T06:44:00Z</time></trkpt><trkpt lat="43.78700842641503" lon="11.1586006730777"><ele>37.0</ele><time>2026-04-18T06:44:01Z</time></trkpt><trkpt lat="43.7867219831327" lon="11.158680831147022"><ele>36.0</ele><time>2026-04-18T06:44:02Z</time></trkpt><trkpt lat="43.78643779633128" lon="11.158756892364064"><ele>36.0</ele><time>2026-04-18T06:44:03Z</time></trkpt><trkpt lat="43.78615633714105" lon="11.158829206112081"><ele>36.0</ele><time>2026-04-18T06:44:04Z</time></trkpt><trkpt lat="43.78587727677914" lon="11.158898374458056"><ele>36.5</ele><time>2026-04-18T06:44:05Z</time></trkpt><trkpt lat="43.78560077100152" lon="11.158973139852945"><ele>37.0</ele><time>2026-04-18T06:44:06Z</time></trkpt><trkpt lat="43.78532909126939" lon="11.159049943851903"><ele>37.5</ele><time>2026-04-18T06:44:07Z</time></trkpt><trkpt lat="43.785062468562664" lon="11.159130415618773"><ele>38.0</ele><time>2026-04-18T06:44:08Z</time></trkpt><trkpt lat="43.78479896155441" lon="11.159209439036632"><ele>38.0</ele><time>2026-04-18T06:44:09Z</time></trkpt><trkpt lat="43.78453528912056" lon="11.159287163658032"><ele>38.0</ele><time>2026-04-18T06:44:10Z</time></trkpt><trkpt lat="43.78427388052221" lon="11.1593629385354"><ele>37.5</ele><time>2026-04-18T06:44:11Z</time></trkpt><trkpt lat="43.784013658960426" lon="11.159435990124756"><ele>37.0</ele><time>2026-04-18T06:44:12Z</time></trkpt><trkpt lat="43.78376221883291" lon="11.159505400883729"><ele>37.0</ele><time>2026-04-18T06:44:13Z</time></trkpt><trkpt lat="43.78351502040511" lon="11.15957500378184"><ele>37.0</ele><time>2026-04-18T06:44:14Z</time></trkpt><trkpt lat="43.7832699962685" lon="11.159648040969712"><ele>37.0</ele><time>2026-04-18T06:44:15Z</time></trkpt><trkpt lat="43.783018510503034" lon="11.159720759585605"><ele>37.0</ele><time>2026-04-18T06:44:16Z</time></trkpt><trkpt lat="43.78275915519103" lon="11.15979860973917"><ele>36.0</ele><time>2026-04-18T06:44:17Z</time></trkpt><trkpt lat="43.782491045289795" lon="11.159882303234951"><ele>35.0</ele><time>2026-04-18T06:44:18Z</time></trkpt><trkpt lat="43.782213405231445" lon="11.159976522658601"><ele>35.0</ele><time>2026-04-18T06:44:19Z</time></trkpt><trkpt lat="43.7819256335732" lon="11.160068004252208"><ele>35.0</ele><time>2026-04-18T06:44:20Z</time></trkpt><trkpt lat="43.78163252823922" lon="11.160152832048592"><ele>34.5</ele><time>2026-04-18T06:44:21Z</time></trkpt><trkpt lat="43.78134243452989" lon="11.160235920138474"><ele>34.0</ele><time>2026-04-18T06:44:22Z</time></trkpt><trkpt lat="43.78105514255284" lon="11.160318703725864"><ele>35.0</ele><time>2026-04-18T06:44:23Z</time></trkpt><trkpt lat="43.780768726090244" lon="11.1604002202207"><ele>36.0</ele><time>2026-04-18T06:44:24Z</time></trkpt><trkpt lat="43.78047854846036" lon="11.160475246952453"><ele>35.0</ele><time>2026-04-18T06:44:25Z</time></trkpt><trkpt lat="43.780179961277796" lon="11.160536753007555"><ele>34.0</ele><time>2026-04-18T06:44:26Z</time></trkpt><trkpt lat="43.77988043018987" lon="11.16060123403905"><ele>34.0</ele><time>2026-04-18T06:44:27Z</time></trkpt><trkpt lat="43.779575468468856" lon="11.160681162879904"><ele>34.0</ele><time>2026-04-18T06:44:28Z</time></trkpt><trkpt lat="43.779273025437845" lon="11.160768258738162"><ele>35.5</ele><time>2026-04-18T06:44:29Z</time></trkpt><trkpt lat="43.778966823602254" lon="11.160854155932402"><ele>37.0</ele><time>2026-04-18T06:44:30Z</time></trkpt><trkpt lat="43.77865815432956" lon="11.16093890127988"><ele>36.0</ele><time>2026-04-18T06:44:31Z</time></trkpt><trkpt lat="43.778347213685194" lon="11.16102314182584"><ele>35.0</ele><time>2026-04-18T06:44:32Z</time></trkpt><trkpt lat="43.77803298042713" lon="11.161110375441242"><ele>35.0</ele><time>2026-04-18T06:44:33Z</time></trkpt><trkpt lat="43.77772110936749" lon="11.161200986552393"><ele>35.0</ele><time>2026-04-18T06:44:34Z</time></trkpt><trkpt lat="43.777399822259426" lon="11.16128881431957"><ele>34.5</ele><time>2026-04-18T06:44:35Z</time></trkpt><trkpt lat="43.77708115625444" lon="11.161379317519048"><ele>34.0</ele><time>2026-04-18T06:44:36Z</time></trkpt><trkpt lat="43.776763416080456" lon="11.161467998554867"><ele>35.5</ele><time>2026-04-18T06:44:37Z</time></trkpt><trkpt lat="43.776444645060074" lon="11.1615570855927"><ele>37.0</ele><time>2026-04-18T06:44:38Z</time></trkpt><trkpt lat="43.77612389393226" lon="11.161649527427405"><ele>35.5</ele><time>2026-04-18T06:44:39Z</time></trkpt><trkpt lat="43.775805705247606" lon="11.161741974869068"><ele>34.0</ele><time>2026-04-18T06:44:40Z</time></trkpt><trkpt lat="43.77548587375028" lon="11.161834993166899"><ele>34.5</ele><time>2026-04-18T06:44:41Z</time></trkpt><trkpt lat="43.775166114667314" lon="11.161928736910868"><ele>35.0</ele><time>2026-04-18T06:44:42Z</time></trkpt><trkpt lat="43.77484503965218" lon="11.162020820748625"><ele>35.0</ele><time>2026-04-18T06:44:43Z</time></trkpt><trkpt lat="43.77452546964633" lon="11.162111701448744"><ele>35.0</ele><time>2026-04-18T06:44:44Z</time></trkpt><trkpt lat="43.77420513143387" lon="11.162205917201012"><ele>34.5</ele><time>2026-04-18T06:44:45Z</time></trkpt><trkpt lat="43.773884306534924" lon="11.162307882642734"><ele>34.0</ele><time>2026-04-18T06:44:46Z</time></trkpt><trkpt lat="43.77356463283612" lon="11.162411819482044"><ele>34.5</ele><time>2026-04-18T06:44:47Z</time></trkpt><trkpt lat="43.77324025197305" lon="11.162520709944596"><ele>35.0</ele><time>2026-04-18T06:44:48Z</time></trkpt><trkpt lat="43.77291679877665" lon="11.16263704818368"><ele>35.0</ele><time>2026-04-18T06:44:49Z</time></trkpt><trkpt lat="43.772582719672926" lon="11.162762327814965"><ele>35.0</ele><time>2026-04-18T06:44:50Z</time></trkpt><trkpt lat="43.77225379180648" lon="11.162889402747075"><ele>35.0</ele><time>2026-04-18T06:44:51Z</time></trkpt><trkpt lat="43.771938801177775" lon="11.163039217289873"><ele>35.0</ele><time>2026-04-18T06:44:52Z</time></trkpt><trkpt lat="43.771620776712176" lon="11.163193405177095"><ele>35.5</ele><time>2026-04-18T06:44:53Z</time></trkpt><trkpt lat="43.77130354457496" lon="11.163353175849581"><ele>36.0</ele><time>2026-04-18T06:44:54Z</time></trkpt><trkpt lat="43.77098733906754" lon="11.163521843488036"><ele>36.0</ele><time>2026-04-18T06:44:55Z</time></trkpt><trkpt lat="43.77067146449019" lon="11.163701490228753"><ele>36.0</ele><time>2026-04-18T06:44:56Z</time></trkpt><trkpt lat="43.77035788392722" lon="11.163892445085294"><ele>36.5</ele><time>2026-04-18T06:44:57Z</time></trkpt><trkpt lat="43.77004449114851" lon="11.16409459652128"><ele>37.0</ele><time>2026-04-18T06:44:58Z</time></trkpt><trkpt lat="43.76973487663954" lon="11.164306351780981"><ele>37.0</ele><time>2026-04-18T06:44:59Z</time></trkpt><trkpt lat="43.76942491930124" lon="11.164529270020848"><ele>37.0</ele><time>2026-04-18T06:45:00Z</time></trkpt><trkpt lat="43.7691148374843" lon="11.164752725754674"><ele>37.5</ele><time>2026-04-18T06:45:01Z</time></trkpt><trkpt lat="43.76880727328883" lon="11.16498010090078"><ele>38.0</ele><time>2026-04-18T06:45:02Z</time></trkpt><trkpt lat="43.76849638698348" lon="11.165206067220964"><ele>38.0</ele><time>2026-04-18T06:45:03Z</time></trkpt><trkpt lat="43.768185029923245" lon="11.165435463399737"><ele>38.0</ele><time>2026-04-18T06:45:04Z</time></trkpt><trkpt lat="43.767873688100224" lon="11.165664726680916"><ele>37.5</ele><time>2026-04-18T06:45:05Z</time></trkpt><trkpt lat="43.76756284507724" lon="11.165892943518104"><ele>37.0</ele><time>2026-04-18T06:45:06Z</time></trkpt><trkpt lat="43.76725881921913" lon="11.166117070484766"><ele>37.0</ele><time>2026-04-18T06:45:07Z</time></trkpt><trkpt lat="43.76696272630684" lon="11.166332711885122"><ele>37.0</ele><time>2026-04-18T06:45:08Z</time></trkpt><trkpt lat="43.76667109088923" lon="11.166544015909341"><ele>37.0</ele><time>2026-04-18T06:45:09Z</time></trkpt><trkpt lat="43.766385835841135" lon="11.166754339205937"><ele>37.0</ele><time>2026-04-18T06:45:10Z</time></trkpt><trkpt lat="43.766100980459264" lon="11.166965258674987"><ele>37.5</ele><time>2026-04-18T06:45:10.999Z</time></trkpt><trkpt lat="43.765823337206875" lon="11.167171651273636"><ele>38.0</ele><time>2026-04-18T06:45:11.999Z</time></trkpt><trkpt lat="43.765541330727196" lon="11.167373885728153"><ele>38.0</ele><time>2026-04-18T06:45:12.999Z</time></trkpt><trkpt lat="43.76525608754946" lon="11.167570735292776"><ele>38.0</ele><time>2026-04-18T06:45:13.999Z</time></trkpt><trkpt lat="43.764976866656205" lon="11.167772396704352"><ele>37.5</ele><time>2026-04-18T06:45:14.999Z</time></trkpt><trkpt lat="43.76469344437663" lon="11.16797318797327"><ele>37.0</ele><time>2026-04-18T06:45:15.999Z</time></trkpt><trkpt lat="43.76440436020046" lon="11.168175564420405"><ele>38.0</ele><time>2026-04-18T06:45:16.999Z</time></trkpt><trkpt lat="43.76411303105599" lon="11.168385667116038"><ele>39.0</ele><time>2026-04-18T06:45:17.999Z</time></trkpt><trkpt lat="43.76382309963199" lon="11.168582527740604"><ele>39.5</ele><time>2026-04-18T06:45:18.999Z</time></trkpt><trkpt lat="43.763523316564836" lon="11.168780478637032"><ele>40.0</ele><time>2026-04-18T06:45:20.053Z</time></trkpt><trkpt lat="43.763241795079956" lon="11.1689679298255"><ele>40.0</ele><time>2026-04-18T06:45:21.045Z</time></trkpt><trkpt lat="43.76169552921163" lon="11.169503917220768"><ele>40.0</ele><time>2026-04-18T06:45:25.999Z</time></trkpt><trkpt lat="43.761384975887395" lon="11.169590745479725"><ele>40.0</ele><time>2026-04-18T06:45:27Z</time></trkpt><trkpt lat="43.76109400232641" lon="11.169669082977283"><ele>40.0</ele><time>2026-04-18T06:45:28Z</time></trkpt><trkpt lat="43.76080207510627" lon="11.16972820604888"><ele>40.0</ele><time>2026-04-18T06:45:29Z</time></trkpt><trkpt lat="43.76049826643026" lon="11.169786914082332"><ele>40.0</ele><time>2026-04-18T06:45:30Z</time></trkpt><trkpt lat="43.76020191941058" lon="11.16984773690625"><ele>40.0</ele><time>2026-04-18T06:45:31Z</time></trkpt><trkpt lat="43.75991128949588" lon="11.169890523560195"><ele>40.0</ele><time>2026-04-18T06:45:32Z</time></trkpt><trkpt lat="43.759621625035564" lon="11.169944453215287"><ele>40.0</ele><time>2026-04-18T06:45:33Z</time></trkpt><trkpt lat="43.75932572577107" lon="11.169995519271987"><ele>41.0</ele><time>2026-04-18T06:45:34Z</time></trkpt><trkpt lat="43.75901518952255" lon="11.17006423366342"><ele>42.0</ele><time>2026-04-18T06:45:35Z</time></trkpt><trkpt lat="43.75871692421515" lon="11.170116793736197"><ele>41.5</ele><time>2026-04-18T06:45:36Z</time></trkpt><trkpt lat="43.75841713637973" lon="11.170169768120262"><ele>41.0</ele><time>2026-04-18T06:45:37Z</time></trkpt><trkpt lat="43.758121973229926" lon="11.170214317602639"><ele>41.0</ele><time>2026-04-18T06:45:38Z</time></trkpt><trkpt lat="43.757830610148716" lon="11.170259051840395"><ele>41.0</ele><time>2026-04-18T06:45:39Z</time></trkpt><trkpt lat="43.757545983676906" lon="11.170304485663118"><ele>41.0</ele><time>2026-04-18T06:45:40Z</time></trkpt><trkpt lat="43.75725967638743" lon="11.170353975373276"><ele>41.0</ele><time>2026-04-18T06:45:41Z</time></trkpt><trkpt lat="43.756969410733234" lon="11.17041128204642"><ele>42.0</ele><time>2026-04-18T06:45:42Z</time></trkpt><trkpt lat="43.75668176977455" lon="11.170468699243562"><ele>43.0</ele><time>2026-04-18T06:45:43Z</time></trkpt><trkpt lat="43.756394047357375" lon="11.170524445401108"><ele>43.0</ele><time>2026-04-18T06:45:44Z</time></trkpt><trkpt lat="43.75610319801373" lon="11.17057909085496"><ele>43.0</ele><time>2026-04-18T06:45:45Z</time></trkpt><trkpt lat="43.75581263386134" lon="11.170632299446146"><ele>43.5</ele><time>2026-04-18T06:45:46Z</time></trkpt><trkpt lat="43.755535486810366" lon="11.170684165526474"><ele>44.0</ele><time>2026-04-18T06:45:47Z</time></trkpt><trkpt lat="43.75523344007434" lon="11.170731737125282"><ele>43.5</ele><time>2026-04-18T06:45:48Z</time></trkpt><trkpt lat="43.75493802025846" lon="11.170787824669148"><ele>43.0</ele><time>2026-04-18T06:45:49Z</time></trkpt><trkpt lat="43.754641864436415" lon="11.170847256403531"><ele>43.5</ele><time>2026-04-18T06:45:50Z</time></trkpt><trkpt lat="43.754350464730436" lon="11.170905826926436"><ele>44.0</ele><time>2026-04-18T06:45:51Z</time></trkpt><trkpt lat="43.75406120095475" lon="11.170957533314589"><ele>44.0</ele><time>2026-04-18T06:45:52Z</time></trkpt><trkpt lat="43.75378046080878" lon="11.171009304991802"><ele>44.0</ele><time>2026-04-18T06:45:53Z</time></trkpt><trkpt lat="43.75349707665846" lon="11.171064380622326"><ele>45.0</ele><time>2026-04-18T06:45:54Z</time></trkpt><trkpt lat="43.753216077981726" lon="11.171115771381832"><ele>46.0</ele><time>2026-04-18T06:45:55Z</time></trkpt><trkpt lat="43.752942721750784" lon="11.17116681828324"><ele>45.5</ele><time>2026-04-18T06:45:56Z</time></trkpt><trkpt lat="43.7526668958568" lon="11.171215948040194"><ele>45.0</ele><time>2026-04-18T06:45:57Z</time></trkpt><trkpt lat="43.75239300266538" lon="11.171261886238273"><ele>45.0</ele><time>2026-04-18T06:45:58Z</time></trkpt><trkpt lat="43.752119112492196" lon="11.171312909260521"><ele>45.0</ele><time>2026-04-18T06:45:59Z</time></trkpt><trkpt lat="43.751847239133255" lon="11.171359678331683"><ele>45.0</ele><time>2026-04-18T06:46:00Z</time></trkpt><trkpt lat="43.75159163780155" lon="11.17141236825014"><ele>45.0</ele><time>2026-04-18T06:46:01Z</time></trkpt><trkpt lat="43.75134112087737" lon="11.171461639235302"><ele>45.0</ele><time>2026-04-18T06:46:02Z</time></trkpt><trkpt lat="43.75109054284964" lon="11.171509998875312"><ele>45.0</ele><time>2026-04-18T06:46:03Z</time></trkpt><trkpt lat="43.75083965360931" lon="11.171557279874685"><ele>46.0</ele><time>2026-04-18T06:46:04Z</time></trkpt><trkpt lat="43.75058732768993" lon="11.171603680108381"><ele>47.0</ele><time>2026-04-18T06:46:05Z</time></trkpt><trkpt lat="43.75033502518873" lon="11.171650272925826"><ele>47.0</ele><time>2026-04-18T06:46:06Z</time></trkpt><trkpt lat="43.75008332291168" lon="11.171695341844252"><ele>47.0</ele><time>2026-04-18T06:46:07Z</time></trkpt><trkpt lat="43.749830298811816" lon="11.171741214228497"><ele>47.0</ele><time>2026-04-18T06:46:08Z</time></trkpt><trkpt lat="43.749584270038476" lon="11.171786756287803"><ele>47.0</ele><time>2026-04-18T06:46:09Z</time></trkpt><trkpt lat="43.74934987677469" lon="11.171830725339213"><ele>48.0</ele><time>2026-04-18T06:46:10Z</time></trkpt><trkpt lat="43.749118695584244" lon="11.17187255441065"><ele>49.0</ele><time>2026-04-18T06:46:11Z</time></trkpt><trkpt lat="43.74888842567046" lon="11.17191462502734"><ele>49.0</ele><time>2026-04-18T06:46:12Z</time></trkpt><trkpt lat="43.74865811812569" lon="11.171960171902517"><ele>49.0</ele><time>2026-04-18T06:46:13Z</time></trkpt><trkpt lat="43.74842463709111" lon="11.172010572859996"><ele>49.0</ele><time>2026-04-18T06:46:14Z</time></trkpt><trkpt lat="43.74818941333488" lon="11.17207122499493"><ele>49.0</ele><time>2026-04-18T06:46:15Z</time></trkpt><trkpt lat="43.747953460182025" lon="11.172143743491423"><ele>49.0</ele><time>2026-04-18T06:46:16Z</time></trkpt><trkpt lat="43.747718879149645" lon="11.172233013964634"><ele>49.0</ele><time>2026-04-18T06:46:17Z</time></trkpt><trkpt lat="43.747483130294526" lon="11.172337701206521"><ele>49.0</ele><time>2026-04-18T06:46:18Z</time></trkpt><trkpt lat="43.74725387953815" lon="11.172456883970847"><ele>49.0</ele><time>2026-04-18T06:46:19Z</time></trkpt><trkpt lat="43.747029902039365" lon="11.172597535205757"><ele>50.5</ele><time>2026-04-18T06:46:20Z</time></trkpt><trkpt lat="43.746813719494284" lon="11.172760337528137"><ele>52.0</ele><time>2026-04-18T06:46:21Z</time></trkpt><trkpt lat="43.746604205184944" lon="11.17293822671646"><ele>52.0</ele><time>2026-04-18T06:46:22Z</time></trkpt><trkpt lat="43.74640072486128" lon="11.17312729478175"><ele>52.0</ele><time>2026-04-18T06:46:23Z</time></trkpt><trkpt lat="43.74621227685207" lon="11.173335759354345"><ele>53.5</ele><time>2026-04-18T06:46:24Z</time></trkpt><trkpt lat="43.746027467997635" lon="11.173552624528805"><ele>55.0</ele><time>2026-04-18T06:46:25Z</time></trkpt><trkpt lat="43.74584714688541" lon="11.173784410362218"><ele>54.5</ele><time>2026-04-18T06:46:26Z</time></trkpt><trkpt lat="43.74567924742539" lon="11.174037990812925"><ele>54.0</ele><time>2026-04-18T06:46:27Z</time></trkpt><trkpt lat="43.74552871574202" lon="11.174286071250222"><ele>54.0</ele><time>2026-04-18T06:46:28Z</time></trkpt><trkpt lat="43.74538241048878" lon="11.174550460368103"><ele>54.0</ele><time>2026-04-18T06:46:29Z</time></trkpt><trkpt lat="43.745248541004464" lon="11.174820950612489"><ele>53.5</ele><time>2026-04-18T06:46:30Z</time></trkpt><trkpt lat="43.745126445156316" lon="11.175103242407683"><ele>53.0</ele><time>2026-04-18T06:46:31Z</time></trkpt><trkpt lat="43.74501803080113" lon="11.175384594863036"><ele>53.0</ele><time>2026-04-18T06:46:32Z</time></trkpt><trkpt lat="43.74492091565663" lon="11.175655023400614"><ele>53.0</ele><time>2026-04-18T06:46:33Z</time></trkpt><trkpt lat="43.74483381228099" lon="11.175934687566098"><ele>53.0</ele><time>2026-04-18T06:46:34Z</time></trkpt><trkpt lat="43.74474745112509" lon="11.176221292437566"><ele>53.5</ele><time>2026-04-18T06:46:35Z</time></trkpt><trkpt lat="43.74466073254703" lon="11.176509900105467"><ele>54.0</ele><time>2026-04-18T06:46:36Z</time></trkpt><trkpt lat="43.74457510277537" lon="11.176805595691517"><ele>56.0</ele><time>2026-04-18T06:46:37Z</time></trkpt><trkpt lat="43.744488457596155" lon="11.17710802878963"><ele>58.0</ele><time>2026-04-18T06:46:38Z</time></trkpt><trkpt lat="43.74439955729853" lon="11.177415317754786"><ele>60.0</ele><time>2026-04-18T06:46:39Z</time></trkpt><trkpt lat="43.7443102599784" lon="11.177727622760745"><ele>62.0</ele><time>2026-04-18T06:46:40Z</time></trkpt><trkpt lat="43.744219268057996" lon="11.178033741580167"><ele>61.5</ele><time>2026-04-18T06:46:41Z</time></trkpt><trkpt lat="43.74411263532541" lon="11.17834201818836"><ele>61.0</ele><time>2026-04-18T06:46:42Z</time></trkpt><trkpt lat="43.74399868467375" lon="11.1786454306308"><ele>61.0</ele><time>2026-04-18T06:46:43Z</time></trkpt><trkpt lat="43.743875949128096" lon="11.178937048426949"><ele>61.0</ele><time>2026-04-18T06:46:44Z</time></trkpt><trkpt lat="43.743736001271905" lon="11.179226664752518"><ele>61.0</ele><time>2026-04-18T06:46:45Z</time></trkpt><trkpt lat="43.743576551014684" lon="11.179503173355918"><ele>61.0</ele><time>2026-04-18T06:46:46Z</time></trkpt><trkpt lat="43.74339833568745" lon="11.179763914104027"><ele>59.5</ele><time>2026-04-18T06:46:47Z</time></trkpt><trkpt lat="43.74321802284493" lon="11.180019323384263"><ele>58.0</ele><time>2026-04-18T06:46:48Z</time></trkpt><trkpt lat="43.74301581430969" lon="11.180250560252171"><ele>58.0</ele><time>2026-04-18T06:46:49Z</time></trkpt><trkpt lat="43.742801166971375" lon="11.180474424183949"><ele>58.0</ele><time>2026-04-18T06:46:50Z</time></trkpt><trkpt lat="43.74258429060724" lon="11.180689138071804"><ele>57.5</ele><time>2026-04-18T06:46:51Z</time></trkpt><trkpt lat="43.74236301623684" lon="11.180899269260914"><ele>57.0</ele><time>2026-04-18T06:46:52Z</time></trkpt><trkpt lat="43.74213731886419" lon="11.181110480353887"><ele>57.0</ele><time>2026-04-18T06:46:53Z</time></trkpt><trkpt lat="43.741911965804064" lon="11.181329133264615"><ele>57.0</ele><time>2026-04-18T06:46:54Z</time></trkpt><trkpt lat="43.74168551075134" lon="11.181551210087925"><ele>58.0</ele><time>2026-04-18T06:46:55Z</time></trkpt><trkpt lat="43.741455914387195" lon="11.181770683887025"><ele>59.0</ele><time>2026-04-18T06:46:56Z</time></trkpt><trkpt lat="43.7412221748243" lon="11.181992666264469"><ele>61.0</ele><time>2026-04-18T06:46:57Z</time></trkpt><trkpt lat="43.74098239363939" lon="11.182215166670241"><ele>63.0</ele><time>2026-04-18T06:46:58Z</time></trkpt><trkpt lat="43.74073913960832" lon="11.182437200427541"><ele>63.0</ele><time>2026-04-18T06:46:59Z</time></trkpt><trkpt lat="43.74049396532087" lon="11.182657403786719"><ele>63.0</ele><time>2026-04-18T06:47:00Z</time></trkpt><trkpt lat="43.740249964098375" lon="11.182879382256814"><ele>63.0</ele><time>2026-04-18T06:47:01Z</time></trkpt><trkpt lat="43.74000511154665" lon="11.183105014496999"><ele>63.0</ele><time>2026-04-18T06:47:02Z</time></trkpt><trkpt lat="43.73976230510204" lon="11.183333282490862"><ele>63.0</ele><time>2026-04-18T06:47:03Z</time></trkpt><trkpt lat="43.739519215459225" lon="11.183559064875562"><ele>63.0</ele><time>2026-04-18T06:47:04Z</time></trkpt><trkpt lat="43.739275539574784" lon="11.1837873278991"><ele>64.0</ele><time>2026-04-18T06:47:05Z</time></trkpt><trkpt lat="43.73903338734162" lon="11.184016780202207"><ele>65.0</ele><time>2026-04-18T06:47:06Z</time></trkpt><trkpt lat="43.73879292755892" lon="11.18425018198339"><ele>65.0</ele><time>2026-04-18T06:47:07Z</time></trkpt><trkpt lat="43.738551574140615" lon="11.184486744866755"><ele>65.0</ele><time>2026-04-18T06:47:08Z</time></trkpt><trkpt lat="43.7383090699481" lon="11.18472244786857"><ele>66.0</ele><time>2026-04-18T06:47:09Z</time></trkpt><trkpt lat="43.73806786614804" lon="11.184950967311728"><ele>67.0</ele><time>2026-04-18T06:47:10Z</time></trkpt><trkpt lat="43.73782026744759" lon="11.185176095226907"><ele>72.5</ele><time>2026-04-18T06:47:11Z</time></trkpt><trkpt lat="43.73756938618626" lon="11.185389043788105"><ele>78.0</ele><time>2026-04-18T06:47:12Z</time></trkpt><trkpt lat="43.737313272167455" lon="11.18559305639609"><ele>76.5</ele><time>2026-04-18T06:47:13Z</time></trkpt><trkpt lat="43.73705182650935" lon="11.185790138566984"><ele>75.0</ele><time>2026-04-18T06:47:14Z</time></trkpt><trkpt lat="43.73678720148704" lon="11.185974201435453"><ele>80.5</ele><time>2026-04-18T06:47:15Z</time></trkpt><trkpt lat="43.736513804051945" lon="11.186148906816866"><ele>86.0</ele><time>2026-04-18T06:47:16Z</time></trkpt><trkpt lat="43.7362380941327" lon="11.1863104477384"><ele>83.5</ele><time>2026-04-18T06:47:16.999Z</time></trkpt><trkpt lat="43.73595670372894" lon="11.186465318687329"><ele>81.0</ele><time>2026-04-18T06:47:17.999Z</time></trkpt><trkpt lat="43.735671581908136" lon="11.186614783494516"><ele>81.0</ele><time>2026-04-18T06:47:18.999Z</time></trkpt><trkpt lat="43.735386673896826" lon="11.186760766111481"><ele>81.0</ele><time>2026-04-18T06:47:19.999Z</time></trkpt><trkpt lat="43.73509831111455" lon="11.186908608242243"><ele>83.5</ele><time>2026-04-18T06:47:20.999Z</time></trkpt><trkpt lat="43.7348134703465" lon="11.187055300341141"><ele>86.0</ele><time>2026-04-18T06:47:21.999Z</time></trkpt><trkpt lat="43.73452927764274" lon="11.187206957777857"><ele>81.5</ele><time>2026-04-18T06:47:22.999Z</time></trkpt><trkpt lat="43.73424321159441" lon="11.187359940561942"><ele>77.0</ele><time>2026-04-18T06:47:23.999Z</time></trkpt><trkpt lat="43.73395737223606" lon="11.18751337278641"><ele>77.0</ele><time>2026-04-18T06:47:24.999Z</time></trkpt><trkpt lat="43.73367353635245" lon="11.187669557891441"><ele>77.0</ele><time>2026-04-18T06:47:25.999Z</time></trkpt><trkpt lat="43.73338913769197" lon="11.187824359608593"><ele>74.5</ele><time>2026-04-18T06:47:26.999Z</time></trkpt><trkpt lat="43.73311398911481" lon="11.187982906104681"><ele>72.0</ele><time>2026-04-18T06:47:27.999Z</time></trkpt><trkpt lat="43.73284542717569" lon="11.188156453017987"><ele>76.5</ele><time>2026-04-18T06:47:28.999Z</time></trkpt><trkpt lat="43.732591960793734" lon="11.188340075094116"><ele>81.0</ele><time>2026-04-18T06:47:29.999Z</time></trkpt><trkpt lat="43.73235502194831" lon="11.188536973155394"><ele>81.0</ele><time>2026-04-18T06:47:30.999Z</time></trkpt><trkpt lat="43.73213008875507" lon="11.188746721282405"><ele>81.0</ele><time>2026-04-18T06:47:32Z</time></trkpt><trkpt lat="43.73191188029714" lon="11.18897390648361"><ele>83.5</ele><time>2026-04-18T06:47:33Z</time></trkpt><trkpt lat="43.73170112623039" lon="11.1892199075159"><ele>86.0</ele><time>2026-04-18T06:47:34Z</time></trkpt><trkpt lat="43.731494393069326" lon="11.18948403044224"><ele>86.0</ele><time>2026-04-18T06:47:35Z</time></trkpt><trkpt lat="43.73129220565537" lon="11.189767508681582"><ele>86.0</ele><time>2026-04-18T06:47:36Z</time></trkpt><trkpt lat="43.73110079593503" lon="11.190071382837274"><ele>85.0</ele><time>2026-04-18T06:47:37Z</time></trkpt><trkpt lat="43.73092044311869" lon="11.1903951320415"><ele>84.0</ele><time>2026-04-18T06:47:38Z</time></trkpt><trkpt lat="43.73074720721067" lon="11.19073505021298"><ele>84.0</ele><time>2026-04-18T06:47:39Z</time></trkpt><trkpt lat="43.73057924891645" lon="11.191080947472832"><ele>84.0</ele><time>2026-04-18T06:47:40Z</time></trkpt><trkpt lat="43.730413326336134" lon="11.19142479336742"><ele>85.0</ele><time>2026-04-18T06:47:41Z</time></trkpt><trkpt lat="43.7302458671191" lon="11.191765444093617"><ele>86.0</ele><time>2026-04-18T06:47:42Z</time></trkpt><trkpt lat="43.73007682033153" lon="11.192102797125255"><ele>89.5</ele><time>2026-04-18T06:47:43Z</time></trkpt><trkpt lat="43.72991093627071" lon="11.19243603423715"><ele>93.0</ele><time>2026-04-18T06:47:44Z</time></trkpt><trkpt lat="43.72974746309181" lon="11.192772338122056"><ele>93.0</ele><time>2026-04-18T06:47:45Z</time></trkpt><trkpt lat="43.72958780340245" lon="11.193106644740139"><ele>93.0</ele><time>2026-04-18T06:47:46Z</time></trkpt><trkpt lat="43.72942797249079" lon="11.1934439757197"><ele>103.0</ele><time>2026-04-18T06:47:47Z</time></trkpt><trkpt lat="43.72926931389134" lon="11.19377231258127"><ele>113.0</ele><time>2026-04-18T06:47:48Z</time></trkpt><trkpt lat="43.7291131888955" lon="11.194098003450607"><ele>116.0</ele><time>2026-04-18T06:47:49Z</time></trkpt><trkpt lat="43.72895870716091" lon="11.19442131906862"><ele>119.0</ele><time>2026-04-18T06:47:50Z</time></trkpt><trkpt lat="43.72880298780575" lon="11.194745741543574"><ele>116.5</ele><time>2026-04-18T06:47:51Z</time></trkpt><trkpt lat="43.72864711208796" lon="11.195072505277942"><ele>114.0</ele><time>2026-04-18T06:47:52Z</time></trkpt><trkpt lat="43.728482212016495" lon="11.19541653647104"><ele>168.0</ele><time>2026-04-18T06:47:53.052Z</time></trkpt><trkpt lat="43.727235810403286" lon="11.199178936148462"><ele>176.0</ele><time>2026-04-18T06:47:57.367Z</time></trkpt><trkpt lat="43.72703059092963" lon="11.200514320272795"><ele>177.5</ele><time>2026-04-18T06:47:58.367Z</time></trkpt><trkpt lat="43.7269798" lon="11.2010048"><ele>179.0</ele><time>2026-04-18T06:47:59.367Z</time></trkpt><trkpt lat="43.727048893187984" lon="11.2069384410749"><ele>147.0</ele><time>2026-04-18T06:48:20Z</time></trkpt><trkpt lat="43.72702636276243" lon="11.207344591999087"><ele>115.0</ele><time>2026-04-18T06:48:21Z</time></trkpt><trkpt lat="43.72702683155579" lon="11.207741154424834"><ele>115.0</ele><time>2026-04-18T06:48:22Z</time></trkpt><trkpt lat="43.72702514271704" lon="11.208149156625845"><ele>115.0</ele><time>2026-04-18T06:48:23Z</time></trkpt><trkpt lat="43.72701174318403" lon="11.208580354644647"><ele>114.0</ele><time>2026-04-18T06:48:24Z</time></trkpt><trkpt lat="43.726962504058264" lon="11.2090047292524"><ele>113.0</ele><time>2026-04-18T06:48:25Z</time></trkpt><trkpt lat="43.72691757447755" lon="11.209472448584773"><ele>116.5</ele><time>2026-04-18T06:48:26Z</time></trkpt><trkpt lat="43.726892965752405" lon="11.209847344664576"><ele>120.0</ele><time>2026-04-18T06:48:27Z</time></trkpt><trkpt lat="43.726839461893164" lon="11.21025814514382"><ele>114.0</ele><time>2026-04-18T06:48:28Z</time></trkpt><trkpt lat="43.72682212685564" lon="11.210668362761094"><ele>108.0</ele><time>2026-04-18T06:48:29Z</time></trkpt><trkpt lat="43.72683166308151" lon="11.211106778808245"><ele>103.5</ele><time>2026-04-18T06:48:30Z</time></trkpt><trkpt lat="43.72679989872911" lon="11.211503376039728"><ele>99.0</ele><time>2026-04-18T06:48:31Z</time></trkpt><trkpt lat="43.726780168796715" lon="11.21190293080338"><ele>99.0</ele><time>2026-04-18T06:48:32Z</time></trkpt><trkpt lat="43.72675548468848" lon="11.212297539517875"><ele>99.0</ele><time>2026-04-18T06:48:33Z</time></trkpt><trkpt lat="43.72673027091531" lon="11.21269896555079"><ele>99.0</ele><time>2026-04-18T06:48:34Z</time></trkpt><trkpt lat="43.72670454147234" lon="11.213098621530955"><ele>99.0</ele><time>2026-04-18T06:48:35Z</time></trkpt><trkpt lat="43.7266851938664" lon="11.213507452742332"><ele>97.5</ele><time>2026-04-18T06:48:36Z</time></trkpt><trkpt lat="43.72667711008957" lon="11.213915130851172"><ele>96.0</ele><time>2026-04-18T06:48:37Z</time></trkpt><trkpt lat="43.72668242773992" lon="11.214342264454874"><ele>95.5</ele><time>2026-04-18T06:48:38Z</time></trkpt><trkpt lat="43.72670482270117" lon="11.214787685964971"><ele>95.0</ele><time>2026-04-18T06:48:39Z</time></trkpt><trkpt lat="43.72674205655648" lon="11.215259760698443"><ele>92.0</ele><time>2026-04-18T06:48:40Z</time></trkpt><trkpt lat="43.72679120809354" lon="11.215754509114202"><ele>89.0</ele><time>2026-04-18T06:48:41Z</time></trkpt><trkpt lat="43.72684774318343" lon="11.216274026448627"><ele>86.0</ele><time>2026-04-18T06:48:42Z</time></trkpt><trkpt lat="43.72691530668388" lon="11.216809683448972"><ele>83.0</ele><time>2026-04-18T06:48:43Z</time></trkpt><trkpt lat="43.72611190141573" lon="11.216670232009001"><ele>88.0</ele><time>2026-04-18T06:48:44Z</time></trkpt><trkpt lat="43.72598605744703" lon="11.217048205039045"><ele>93.0</ele><time>2026-04-18T06:48:45Z</time></trkpt><trkpt lat="43.72585105854882" lon="11.217414798833314"><ele>93.0</ele><time>2026-04-18T06:48:46Z</time></trkpt><trkpt lat="43.7257050348238" lon="11.217775184127213"><ele>93.0</ele><time>2026-04-18T06:48:47Z</time></trkpt><trkpt lat="43.72556621615022" lon="11.218158231735416"><ele>94.0</ele><time>2026-04-18T06:48:48Z</time></trkpt><trkpt lat="43.72538071020899" lon="11.218496725599524"><ele>95.0</ele><time>2026-04-18T06:48:49Z</time></trkpt><trkpt lat="43.72517503568362" lon="11.218833735619965"><ele>90.0</ele><time>2026-04-18T06:48:50Z</time></trkpt><trkpt lat="43.72497279211994" lon="11.219169507376401"><ele>85.0</ele><time>2026-04-18T06:48:51Z</time></trkpt><trkpt lat="43.724758892087515" lon="11.21948390270087"><ele>85.0</ele><time>2026-04-18T06:48:52Z</time></trkpt><trkpt lat="43.72454957547524" lon="11.219797462392023"><ele>85.0</ele><time>2026-04-18T06:48:53Z</time></trkpt><trkpt lat="43.72435459470549" lon="11.220127539285814"><ele>83.0</ele><time>2026-04-18T06:48:54Z</time></trkpt><trkpt lat="43.72416730165202" lon="11.220457476560275"><ele>81.0</ele><time>2026-04-18T06:48:55Z</time></trkpt><trkpt lat="43.72399051844606" lon="11.220786332342032"><ele>81.0</ele><time>2026-04-18T06:48:56Z</time></trkpt><trkpt lat="43.723818628455184" lon="11.221121383742151"><ele>81.0</ele><time>2026-04-18T06:48:57Z</time></trkpt><trkpt lat="43.72365345319618" lon="11.221465504154942"><ele>78.0</ele><time>2026-04-18T06:48:58Z</time></trkpt><trkpt lat="43.723499062256195" lon="11.221822502190594"><ele>75.0</ele><time>2026-04-18T06:48:59Z</time></trkpt><trkpt lat="43.72336003951881" lon="11.222182047632515"><ele>73.0</ele><time>2026-04-18T06:49:00Z</time></trkpt><trkpt lat="43.72323577440378" lon="11.222550204375022"><ele>71.0</ele><time>2026-04-18T06:49:01Z</time></trkpt><trkpt lat="43.723121979543976" lon="11.222931998951848"><ele>69.5</ele><time>2026-04-18T06:49:02Z</time></trkpt><trkpt lat="43.72301668413348" lon="11.2233198006193"><ele>68.0</ele><time>2026-04-18T06:49:03Z</time></trkpt><trkpt lat="43.72291422614487" lon="11.223704627694183"><ele>67.0</ele><time>2026-04-18T06:49:04Z</time></trkpt><trkpt lat="43.72281613995322" lon="11.224086885462048"><ele>66.0</ele><time>2026-04-18T06:49:05Z</time></trkpt><trkpt lat="43.72272694132616" lon="11.224462164685487"><ele>70.0</ele><time>2026-04-18T06:49:06Z</time></trkpt><trkpt lat="43.722635529932276" lon="11.224841624660069"><ele>74.0</ele><time>2026-04-18T06:49:07Z</time></trkpt><trkpt lat="43.72254617027521" lon="11.225218456277245"><ele>74.0</ele><time>2026-04-18T06:49:08Z</time></trkpt><trkpt lat="43.72245651532382" lon="11.225599715225147"><ele>74.0</ele><time>2026-04-18T06:49:09Z</time></trkpt><trkpt lat="43.72236698654582" lon="11.225967261109508"><ele>74.0</ele><time>2026-04-18T06:49:10Z</time></trkpt><trkpt lat="43.72227875375292" lon="11.226320632699789"><ele>74.0</ele><time>2026-04-18T06:49:11Z</time></trkpt><trkpt lat="43.72218499623586" lon="11.226676373788704"><ele>78.0</ele><time>2026-04-18T06:49:12Z</time></trkpt><trkpt lat="43.722074552972714" lon="11.227032102914645"><ele>82.0</ele><time>2026-04-18T06:49:13Z</time></trkpt><trkpt lat="43.72194167529225" lon="11.227387244669469"><ele>88.5</ele><time>2026-04-18T06:49:14Z</time></trkpt><trkpt lat="43.721786796493944" lon="11.227755656509489"><ele>95.0</ele><time>2026-04-18T06:49:15Z</time></trkpt><trkpt lat="43.72163165809897" lon="11.228130092996148"><ele>102.0</ele><time>2026-04-18T06:49:16Z</time></trkpt><trkpt lat="43.721484901101576" lon="11.228501833408018"><ele>109.0</ele><time>2026-04-18T06:49:17Z</time></trkpt><trkpt lat="43.72133540830804" lon="11.228944186463178"><ele>116.5</ele><time>2026-04-18T06:49:18Z</time></trkpt><trkpt lat="43.72117305366665" lon="11.229381232922867"><ele>124.0</ele><time>2026-04-18T06:49:19.054Z</time></trkpt><trkpt lat="43.72102378898205" lon="11.229774578426378"><ele>127.5</ele><time>2026-04-18T06:49:20.057Z</time></trkpt><trkpt lat="43.72086508251078" lon="11.230206307131613"><ele>131.0</ele><time>2026-04-18T06:49:21.053Z</time></trkpt><trkpt lat="43.720693051096" lon="11.230581626069139"><ele>127.5</ele><time>2026-04-18T06:49:22.052Z</time></trkpt><trkpt lat="43.72052951012197" lon="11.23098974653922"><ele>124.0</ele><time>2026-04-18T06:49:23.051Z</time></trkpt><trkpt lat="43.727747518343115" lon="11.253015849904429"><ele>113.0</ele><time>2026-04-18T06:50:29.999Z</time></trkpt><trkpt lat="43.727940723061344" lon="11.25331488156631"><ele>102.0</ele><time>2026-04-18T06:50:30.999Z</time></trkpt><trkpt lat="43.72814274569722" lon="11.253629951912338"><ele>102.0</ele><time>2026-04-18T06:50:31.999Z</time></trkpt><trkpt lat="43.72834033001256" lon="11.253943555452288"><ele>102.0</ele><time>2026-04-18T06:50:32.999Z</time></trkpt><trkpt lat="43.72853993137612" lon="11.254270156842697"><ele>100.5</ele><time>2026-04-18T06:50:33.999Z</time></trkpt><trkpt lat="43.7287197904807" lon="11.254577547021976"><ele>99.0</ele><time>2026-04-18T06:50:34.999Z</time></trkpt><trkpt lat="43.72890946338732" lon="11.254897441774936"><ele>98.0</ele><time>2026-04-18T06:50:35.999Z</time></trkpt><trkpt lat="43.72909415119797" lon="11.255214701364899"><ele>97.0</ele><time>2026-04-18T06:50:36.999Z</time></trkpt><trkpt lat="43.72927280368103" lon="11.255522982307294"><ele>91.5</ele><time>2026-04-18T06:50:38Z</time></trkpt><trkpt lat="43.72945416565866" lon="11.255827967074644"><ele>86.0</ele><time>2026-04-18T06:50:39Z</time></trkpt><trkpt lat="43.72964406697559" lon="11.256140031607783"><ele>86.0</ele><time>2026-04-18T06:50:40Z</time></trkpt><trkpt lat="43.72982613409952" lon="11.256451055968695"><ele>86.0</ele><time>2026-04-18T06:50:41Z</time></trkpt><trkpt lat="43.73001107430045" lon="11.256769525762595"><ele>87.5</ele><time>2026-04-18T06:50:42Z</time></trkpt><trkpt lat="43.730197634766085" lon="11.257093058906737"><ele>89.0</ele><time>2026-04-18T06:50:43Z</time></trkpt><trkpt lat="43.73039137302496" lon="11.257414613173426"><ele>85.5</ele><time>2026-04-18T06:50:44Z</time></trkpt><trkpt lat="43.73058515957983" lon="11.257732805394063"><ele>82.0</ele><time>2026-04-18T06:50:45Z</time></trkpt><trkpt lat="43.73078297970895" lon="11.258059267883482"><ele>81.5</ele><time>2026-04-18T06:50:46Z</time></trkpt><trkpt lat="43.73097803927703" lon="11.25839811731213"><ele>81.0</ele><time>2026-04-18T06:50:47Z</time></trkpt><trkpt lat="43.731186311882844" lon="11.258749577037204"><ele>83.0</ele><time>2026-04-18T06:50:48Z</time></trkpt><trkpt lat="43.73139052546794" lon="11.259088984752152"><ele>85.0</ele><time>2026-04-18T06:50:49Z</time></trkpt><trkpt lat="43.73159422155303" lon="11.259426220483315"><ele>85.0</ele><time>2026-04-18T06:50:50Z</time></trkpt><trkpt lat="43.731791371272" lon="11.259762558605832"><ele>85.0</ele><time>2026-04-18T06:50:51Z</time></trkpt><trkpt lat="43.73199078451454" lon="11.260103082482718"><ele>83.5</ele><time>2026-04-18T06:50:52Z</time></trkpt><trkpt lat="43.732188899748934" lon="11.260430798361657"><ele>82.0</ele><time>2026-04-18T06:50:53Z</time></trkpt><trkpt lat="43.73238111784102" lon="11.260760709574303"><ele>82.0</ele><time>2026-04-18T06:50:54Z</time></trkpt><trkpt lat="43.732569514507496" lon="11.261083484086745"><ele>82.0</ele><time>2026-04-18T06:50:55Z</time></trkpt><trkpt lat="43.73275410994917" lon="11.261402982333356"><ele>82.0</ele><time>2026-04-18T06:50:56Z</time></trkpt><trkpt lat="43.73293701152677" lon="11.26171866222975"><ele>82.0</ele><time>2026-04-18T06:50:57Z</time></trkpt><trkpt lat="43.733121496085985" lon="11.262037824574511"><ele>85.5</ele><time>2026-04-18T06:50:58Z</time></trkpt><trkpt lat="43.73330561744979" lon="11.262352508441799"><ele>89.0</ele><time>2026-04-18T06:50:59Z</time></trkpt><trkpt lat="43.733490208115946" lon="11.262666144462521"><ele>89.5</ele><time>2026-04-18T06:51:00Z</time></trkpt><trkpt lat="43.733676017472554" lon="11.262979068385436"><ele>90.0</ele><time>2026-04-18T06:51:01Z</time></trkpt><trkpt lat="43.73386314185013" lon="11.263293151236963"><ele>90.0</ele><time>2026-04-18T06:51:02Z</time></trkpt><trkpt lat="43.73404980627394" lon="11.263605522973561"><ele>90.0</ele><time>2026-04-18T06:51:03Z</time></trkpt><trkpt lat="43.734236081530184" lon="11.263912591847461"><ele>88.0</ele><time>2026-04-18T06:51:04Z</time></trkpt><trkpt lat="43.73442292498638" lon="11.26422005819728"><ele>86.0</ele><time>2026-04-18T06:51:05Z</time></trkpt><trkpt lat="43.73460608790397" lon="11.264528538652392"><ele>87.5</ele><time>2026-04-18T06:51:06Z</time></trkpt><trkpt lat="43.73478249326168" lon="11.264837397638368"><ele>89.0</ele><time>2026-04-18T06:51:07Z</time></trkpt><trkpt lat="43.73495742059985" lon="11.265148223351977"><ele>89.0</ele><time>2026-04-18T06:51:08Z</time></trkpt><trkpt lat="43.735135937936334" lon="11.265459945181567"><ele>89.0</ele><time>2026-04-18T06:51:09Z</time></trkpt><trkpt lat="43.73531919203984" lon="11.26577827802843"><ele>86.0</ele><time>2026-04-18T06:51:10Z</time></trkpt><trkpt lat="43.73550587762566" lon="11.266097075466256"><ele>83.0</ele><time>2026-04-18T06:51:11Z</time></trkpt><trkpt lat="43.73569567987572" lon="11.266416594692208"><ele>82.0</ele><time>2026-04-18T06:51:12Z</time></trkpt><trkpt lat="43.73588876650028" lon="11.26673740406152"><ele>81.0</ele><time>2026-04-18T06:51:13Z</time></trkpt><trkpt lat="43.736083787223194" lon="11.267057383343626"><ele>84.5</ele><time>2026-04-18T06:51:14Z</time></trkpt><trkpt lat="43.73628316924787" lon="11.267381777467715"><ele>88.0</ele><time>2026-04-18T06:51:15Z</time></trkpt><trkpt lat="43.73647951223033" lon="11.267703775738164"><ele>88.0</ele><time>2026-04-18T06:51:16Z</time></trkpt><trkpt lat="43.73666227913559" lon="11.268016021029274"><ele>88.0</ele><time>2026-04-18T06:51:17Z</time></trkpt><trkpt lat="43.73683199951139" lon="11.26831213433622"><ele>84.5</ele><time>2026-04-18T06:51:18Z</time></trkpt><trkpt lat="43.736995794173104" lon="11.268599264493758"><ele>81.0</ele><time>2026-04-18T06:51:19Z</time></trkpt><trkpt lat="43.737158812876174" lon="11.268886865301921"><ele>84.0</ele><time>2026-04-18T06:51:20Z</time></trkpt><trkpt lat="43.73732239211113" lon="11.269180976567318"><ele>87.0</ele><time>2026-04-18T06:51:21Z</time></trkpt><trkpt lat="43.73748086321906" lon="11.269463576269196"><ele>87.0</ele><time>2026-04-18T06:51:22Z</time></trkpt><trkpt lat="43.737629065176954" lon="11.269733781817651"><ele>87.0</ele><time>2026-04-18T06:51:23Z</time></trkpt><trkpt lat="43.73777010499454" lon="11.2699885102194"><ele>86.0</ele><time>2026-04-18T06:51:24Z</time></trkpt><trkpt lat="43.73791599607659" lon="11.270239195845894"><ele>85.0</ele><time>2026-04-18T06:51:25Z</time></trkpt><trkpt lat="43.73806328580821" lon="11.270487718135549"><ele>88.0</ele><time>2026-04-18T06:51:26Z</time></trkpt><trkpt lat="43.73821154396392" lon="11.270744623209568"><ele>91.0</ele><time>2026-04-18T06:51:27Z</time></trkpt><trkpt lat="43.7383583371303" lon="11.271008793931559"><ele>91.0</ele><time>2026-04-18T06:51:28Z</time></trkpt><trkpt lat="43.7385026237476" lon="11.271278938835685"><ele>91.0</ele><time>2026-04-18T06:51:29Z</time></trkpt><trkpt lat="43.738642074426586" lon="11.27153787353472"><ele>88.0</ele><time>2026-04-18T06:51:30Z</time></trkpt><trkpt lat="43.73877285603309" lon="11.271778471537601"><ele>85.0</ele><time>2026-04-18T06:51:31Z</time></trkpt><trkpt lat="43.738897022055795" lon="11.272011364728074"><ele>82.0</ele><time>2026-04-18T06:51:32Z</time></trkpt><trkpt lat="43.73902100016006" lon="11.272242710545754"><ele>83.33333333333333</ele><time>2026-04-18T06:51:33Z</time></trkpt><trkpt lat="43.739144234449924" lon="11.272490082145303"><ele>84.66666666666667</ele><time>2026-04-18T06:51:34Z</time></trkpt><trkpt lat="43.739264971285074" lon="11.272748674019521"><ele>86.0</ele><time>2026-04-18T06:51:35Z</time></trkpt><trkpt lat="43.73937643073078" lon="11.273016362579385"><ele>83.0</ele><time>2026-04-18T06:51:36Z</time></trkpt><trkpt lat="43.739479977628" lon="11.273301690007097"><ele>80.0</ele><time>2026-04-18T06:51:37Z</time></trkpt><trkpt lat="43.739571436248355" lon="11.273593740907696"><ele>80.0</ele><time>2026-04-18T06:51:38Z</time></trkpt><trkpt lat="43.73964633464671" lon="11.273868012969109"><ele>80.0</ele><time>2026-04-18T06:51:39Z</time></trkpt><trkpt lat="43.739704030248035" lon="11.274129907424895"><ele>80.0</ele><time>2026-04-18T06:51:40Z</time></trkpt><trkpt lat="43.73974865510117" lon="11.274390381853575"><ele>81.33333333333334</ele><time>2026-04-18T06:51:41Z</time></trkpt><trkpt lat="43.739767156720035" lon="11.274659913691037"><ele>82.66666666666667</ele><time>2026-04-18T06:51:42Z</time></trkpt><trkpt lat="43.739771413081804" lon="11.274939002115248"><ele>84.0</ele><time>2026-04-18T06:51:43Z</time></trkpt><trkpt lat="43.73977032211834" lon="11.275229081646255"><ele>84.0</ele><time>2026-04-18T06:51:44Z</time></trkpt><trkpt lat="43.73976139518934" lon="11.27552205885328"><ele>84.0</ele><time>2026-04-18T06:51:45Z</time></trkpt><trkpt lat="43.73975363798166" lon="11.27581855644539"><ele>84.0</ele><time>2026-04-18T06:51:46Z</time></trkpt><trkpt lat="43.739751774599476" lon="11.276105258761545"><ele>83.66666666666667</ele><time>2026-04-18T06:51:47Z</time></trkpt><trkpt lat="43.739750358061315" lon="11.276368245143995"><ele>83.33333333333334</ele><time>2026-04-18T06:51:48Z</time></trkpt><trkpt lat="43.7397487223284" lon="11.27661706323164"><ele>83.0</ele><time>2026-04-18T06:51:49Z</time></trkpt><trkpt lat="43.73974690656694" lon="11.276854646941493"><ele>83.0</ele><time>2026-04-18T06:51:50Z</time></trkpt><trkpt lat="43.739744087568155" lon="11.27707906094965"><ele>83.0</ele><time>2026-04-18T06:51:51Z</time></trkpt><trkpt lat="43.73973598808959" lon="11.277294131483988"><ele>83.0</ele><time>2026-04-18T06:51:52Z</time></trkpt><trkpt lat="43.739730809868504" lon="11.277514169740936"><ele>83.33333333333334</ele><time>2026-04-18T06:51:53Z</time></trkpt><trkpt lat="43.73972932725706" lon="11.27774518237928"><ele>83.66666666666667</ele><time>2026-04-18T06:51:54Z</time></trkpt><trkpt lat="43.73972715974309" lon="11.277981519845143"><ele>84.0</ele><time>2026-04-18T06:51:55Z</time></trkpt><trkpt lat="43.73972788430794" lon="11.278224607876755"><ele>84.0</ele><time>2026-04-18T06:51:56Z</time></trkpt><trkpt lat="43.73972998773505" lon="11.278460848271367"><ele>84.0</ele><time>2026-04-18T06:51:57Z</time></trkpt><trkpt lat="43.73975136493206" lon="11.278684738448897"><ele>84.0</ele><time>2026-04-18T06:51:58Z</time></trkpt><trkpt lat="43.73981516439481" lon="11.27889380208948"><ele>83.33333333333333</ele><time>2026-04-18T06:51:59Z</time></trkpt><trkpt lat="43.73992383128782" lon="11.279074975447694"><ele>82.66666666666666</ele><time>2026-04-18T06:52:00Z</time></trkpt><trkpt lat="43.74007396415959" lon="11.279210856704495"><ele>82.0</ele><time>2026-04-18T06:52:01Z</time></trkpt><trkpt lat="43.7402503529234" lon="11.27927790652627"><ele>82.0</ele><time>2026-04-18T06:52:02Z</time></trkpt><trkpt lat="43.7404338954988" lon="11.279280725517124"><ele>82.0</ele><time>2026-04-18T06:52:03Z</time></trkpt><trkpt lat="43.74060359354205" lon="11.279268571960657"><ele>82.0</ele><time>2026-04-18T06:52:04Z</time></trkpt><trkpt lat="43.740760213049235" lon="11.279272805645109"><ele>82.0</ele><time>2026-04-18T06:52:05Z</time></trkpt><trkpt lat="43.74086636190479" lon="11.279307994256413"><ele>82.0</ele><time>2026-04-18T06:52:06Z</time></trkpt><trkpt lat="43.74100084877738" lon="11.279356880986095"><ele>82.0</ele><time>2026-04-18T06:52:07Z</time></trkpt><trkpt lat="43.74113304587715" lon="11.279421392892022"><ele>82.0</ele><time>2026-04-18T06:52:08Z</time></trkpt><trkpt lat="43.74125872244823" lon="11.279489346697824"><ele>81.5</ele><time>2026-04-18T06:52:09Z</time></trkpt><trkpt lat="43.74138757199749" lon="11.279570833522145"><ele>81.0</ele><time>2026-04-18T06:52:10Z</time></trkpt><trkpt lat="43.74151939204796" lon="11.279664759427533"><ele>80.5</ele><time>2026-04-18T06:52:11Z</time></trkpt><trkpt lat="43.74164603015603" lon="11.279756492221233"><ele>80.0</ele><time>2026-04-18T06:52:12Z</time></trkpt><trkpt lat="43.74175552629569" lon="11.27984926703107"><ele>80.0</ele><time>2026-04-18T06:52:13Z</time></trkpt><trkpt lat="43.741853085479136" lon="11.279942160189991"><ele>80.0</ele><time>2026-04-18T06:52:14Z</time></trkpt><trkpt lat="43.74194326395661" lon="11.280027506696069"><ele>80.0</ele><time>2026-04-18T06:52:15Z</time></trkpt><trkpt lat="43.74202662531868" lon="11.280103293657692"><ele>80.0</ele><time>2026-04-18T06:52:16Z</time></trkpt><trkpt lat="43.7420924848294" lon="11.280158977831176"><ele>80.0</ele><time>2026-04-18T06:52:17Z</time></trkpt><trkpt lat="43.7421702649374" lon="11.280224593788597"><ele>79.6</ele><time>2026-04-18T06:52:19Z</time></trkpt><trkpt lat="43.74225034060881" lon="11.28029598870867"><ele>79.2</ele><time>2026-04-18T06:52:21Z</time></trkpt><trkpt lat="43.74231434064895" lon="11.280351442865177"><ele>78.8</ele><time>2026-04-18T06:52:22Z</time></trkpt><trkpt lat="43.74239927831621" lon="11.28043382328748"><ele>78.4</ele><time>2026-04-18T06:52:23Z</time></trkpt><trkpt lat="43.7424966126935" lon="11.280538670349012"><ele>78.0</ele><time>2026-04-18T06:52:24Z</time></trkpt><trkpt lat="43.74263466754948" lon="11.280670111896082"><ele>77.66666666666667</ele><time>2026-04-18T06:52:25Z</time></trkpt><trkpt lat="43.74277266444217" lon="11.280817351652642"><ele>77.33333333333334</ele><time>2026-04-18T06:52:26Z</time></trkpt><trkpt lat="43.74291848126301" lon="11.280978242806224"><ele>77.0</ele><time>2026-04-18T06:52:27Z</time></trkpt><trkpt lat="43.74307282360416" lon="11.281143891079214"><ele>77.0</ele><time>2026-04-18T06:52:28Z</time></trkpt><trkpt lat="43.743227249442796" lon="11.281302734063924"><ele>77.0</ele><time>2026-04-18T06:52:29Z</time></trkpt><trkpt lat="43.74338142308133" lon="11.281460449527717"><ele>77.0</ele><time>2026-04-18T06:52:29.999Z</time></trkpt><trkpt lat="43.743533347978754" lon="11.281618108226255"><ele>76.66666666666667</ele><time>2026-04-18T06:52:30.999Z</time></trkpt><trkpt lat="43.74368346279996" lon="11.28177020490538"><ele>76.33333333333333</ele><time>2026-04-18T06:52:31.999Z</time></trkpt><trkpt lat="43.74383869272718" lon="11.281923137068896"><ele>76.0</ele><time>2026-04-18T06:52:32.999Z</time></trkpt><trkpt lat="43.743998965168615" lon="11.28207109850782"><ele>76.0</ele><time>2026-04-18T06:52:33.999Z</time></trkpt><trkpt lat="43.744158695044355" lon="11.282217536175365"><ele>76.0</ele><time>2026-04-18T06:52:34.999Z</time></trkpt><trkpt lat="43.7443200117595" lon="11.28236759827383"><ele>76.0</ele><time>2026-04-18T06:52:35.999Z</time></trkpt><trkpt lat="43.74448145522335" lon="11.282517841356542"><ele>75.66666666666666</ele><time>2026-04-18T06:52:36.999Z</time></trkpt><trkpt lat="43.74464535100663" lon="11.282667845037574"><ele>75.33333333333333</ele><time>2026-04-18T06:52:37.999Z</time></trkpt><trkpt lat="43.74481042075308" lon="11.28281469086493"><ele>75.0</ele><time>2026-04-18T06:52:38.999Z</time></trkpt><trkpt lat="43.74497278423489" lon="11.28295681426259"><ele>75.0</ele><time>2026-04-18T06:52:39.999Z</time></trkpt><trkpt lat="43.74513106724031" lon="11.283097315089229"><ele>75.0</ele><time>2026-04-18T06:52:40.999Z</time></trkpt><trkpt lat="43.74528598517593" lon="11.28324284464287"><ele>75.0</ele><time>2026-04-18T06:52:41.999Z</time></trkpt><trkpt lat="43.74543527007956" lon="11.283388265517543"><ele>77.0</ele><time>2026-04-18T06:52:43Z</time></trkpt><trkpt lat="43.74557726094403" lon="11.283536770116097"><ele>79.0</ele><time>2026-04-18T06:52:44Z</time></trkpt><trkpt lat="43.74571297757609" lon="11.283699318460842"><ele>81.0</ele><time>2026-04-18T06:52:45Z</time></trkpt><trkpt lat="43.74583792997474" lon="11.283882202557052"><ele>82.0</ele><time>2026-04-18T06:52:46Z</time></trkpt><trkpt lat="43.74594640947402" lon="11.284089678431862"><ele>83.0</ele><time>2026-04-18T06:52:47Z</time></trkpt><trkpt lat="43.74604021779953" lon="11.284310020340136"><ele>84.0</ele><time>2026-04-18T06:52:48Z</time></trkpt><trkpt lat="43.746126407327054" lon="11.284538924267572"><ele>88.66666666666666</ele><time>2026-04-18T06:52:49Z</time></trkpt><trkpt lat="43.74621084402399" lon="11.28477442955909"><ele>93.33333333333333</ele><time>2026-04-18T06:52:50Z</time></trkpt><trkpt lat="43.74629099531136" lon="11.285012878941796"><ele>98.0</ele><time>2026-04-18T06:52:51Z</time></trkpt><trkpt lat="43.74636911832675" lon="11.285248456984478"><ele>98.0</ele><time>2026-04-18T06:52:52Z</time></trkpt><trkpt lat="43.74645178960101" lon="11.285482806951807"><ele>98.0</ele><time>2026-04-18T06:52:53Z</time></trkpt><trkpt lat="43.74653179750866" lon="11.285703080999712"><ele>98.0</ele><time>2026-04-18T06:52:54Z</time></trkpt><trkpt lat="43.74661106288115" lon="11.285920297209076"><ele>97.0</ele><time>2026-04-18T06:52:55Z</time></trkpt><trkpt lat="43.74668952353427" lon="11.286137289392041"><ele>96.0</ele><time>2026-04-18T06:52:56Z</time></trkpt><trkpt lat="43.7467686109079" lon="11.286352580961674"><ele>95.0</ele><time>2026-04-18T06:52:57Z</time></trkpt><trkpt lat="43.74684794507976" lon="11.286569242283768"><ele>100.66666666666667</ele><time>2026-04-18T06:52:58Z</time></trkpt><trkpt lat="43.74692796188385" lon="11.286781304639275"><ele>106.33333333333334</ele><time>2026-04-18T06:52:59Z</time></trkpt><trkpt lat="43.74701181084895" lon="11.28699463174488"><ele>112.0</ele><time>2026-04-18T06:53:00Z</time></trkpt><trkpt lat="43.74709896399157" lon="11.287203523936299"><ele>108.0</ele><time>2026-04-18T06:53:01Z</time></trkpt><trkpt lat="43.7471901521413" lon="11.287409371533386"><ele>104.0</ele><time>2026-04-18T06:53:02Z</time></trkpt><trkpt lat="43.74728794044644" lon="11.287615655321545"><ele>100.0</ele><time>2026-04-18T06:53:03Z</time></trkpt><trkpt lat="43.74739417985465" lon="11.28783670539695"><ele>100.0</ele><time>2026-04-18T06:53:04Z</time></trkpt><trkpt lat="43.7475022592801" lon="11.288067252832688"><ele>100.0</ele><time>2026-04-18T06:53:05Z</time></trkpt><trkpt lat="43.74761341650261" lon="11.288304419564344"><ele>100.0</ele><time>2026-04-18T06:53:06Z</time></trkpt><trkpt lat="43.74772784055229" lon="11.288549555827041"><ele>101.0</ele><time>2026-04-18T06:53:07Z</time></trkpt><trkpt lat="43.747846707804456" lon="11.28879124362383"><ele>102.0</ele><time>2026-04-18T06:53:08Z</time></trkpt><trkpt lat="43.74796250032293" lon="11.289043970367102"><ele>103.0</ele><time>2026-04-18T06:53:09Z</time></trkpt><trkpt lat="43.748064941538644" lon="11.289308776272685"><ele>100.66666666666667</ele><time>2026-04-18T06:53:10Z</time></trkpt><trkpt lat="43.74814683492466" lon="11.289590800354201"><ele>98.33333333333334</ele><time>2026-04-18T06:53:11Z</time></trkpt><trkpt lat="43.748206422302765" lon="11.2898861945763"><ele>96.0</ele><time>2026-04-18T06:53:12Z</time></trkpt><trkpt lat="43.74824275640851" lon="11.29018946851299"><ele>94.33333333333333</ele><time>2026-04-18T06:53:13Z</time></trkpt><trkpt lat="43.74826060874754" lon="11.290491548478203"><ele>92.66666666666666</ele><time>2026-04-18T06:53:14Z</time></trkpt><trkpt lat="43.748248182255935" lon="11.290803489797149"><ele>91.0</ele><time>2026-04-18T06:53:15Z</time></trkpt><trkpt lat="43.74821466100186" lon="11.291109230431315"><ele>89.66666666666666</ele><time>2026-04-18T06:53:16Z</time></trkpt><trkpt lat="43.748197106130085" lon="11.291395728906837"><ele>88.33333333333333</ele><time>2026-04-18T06:53:17Z</time></trkpt><trkpt lat="43.74818712011495" lon="11.291681865176624"><ele>87.0</ele><time>2026-04-18T06:53:18Z</time></trkpt><trkpt lat="43.74818230135058" lon="11.291958890638007"><ele>85.0</ele><time>2026-04-18T06:53:19Z</time></trkpt><trkpt lat="43.74817438219736" lon="11.292243668732864"><ele>83.0</ele><time>2026-04-18T06:53:20Z</time></trkpt><trkpt lat="43.74816285960258" lon="11.29252650431796"><ele>81.0</ele><time>2026-04-18T06:53:21Z</time></trkpt><trkpt lat="43.74815520815575" lon="11.292809368302779"><ele>81.0</ele><time>2026-04-18T06:53:22Z</time></trkpt><trkpt lat="43.74814701873208" lon="11.293071718849452"><ele>81.0</ele><time>2026-04-18T06:53:23Z</time></trkpt><trkpt lat="43.7481382004728" lon="11.293322492928102"><ele>81.0</ele><time>2026-04-18T06:53:24Z</time></trkpt><trkpt lat="43.74813127240627" lon="11.293572791576644"><ele>79.66666666666667</ele><time>2026-04-18T06:53:25Z</time></trkpt><trkpt lat="43.74812828365181" lon="11.293822817622736"><ele>78.33333333333334</ele><time>2026-04-18T06:53:26Z</time></trkpt><trkpt lat="43.74812662841128" lon="11.294054348431992"><ele>77.0</ele><time>2026-04-18T06:53:27Z</time></trkpt><trkpt lat="43.74812791821951" lon="11.294287832227564"><ele>76.33333333333334</ele><time>2026-04-18T06:53:28Z</time></trkpt><trkpt lat="43.748130652555254" lon="11.294525869466524"><ele>75.66666666666667</ele><time>2026-04-18T06:53:29Z</time></trkpt><trkpt lat="43.748144946982826" lon="11.29476445612375"><ele>75.0</ele><time>2026-04-18T06:53:30Z</time></trkpt><trkpt lat="43.74818522577201" lon="11.294999054835836"><ele>74.66666666666667</ele><time>2026-04-18T06:53:31Z</time></trkpt><trkpt lat="43.74824120304582" lon="11.29523809095015"><ele>74.33333333333334</ele><time>2026-04-18T06:53:32Z</time></trkpt><trkpt lat="43.74831240369668" lon="11.295482754472529"><ele>74.0</ele><time>2026-04-18T06:53:33Z</time></trkpt><trkpt lat="43.74839765785105" lon="11.295723688219097"><ele>75.66666666666667</ele><time>2026-04-18T06:53:34Z</time></trkpt><trkpt lat="43.74850624500899" lon="11.295954356119001"><ele>77.33333333333333</ele><time>2026-04-18T06:53:35Z</time></trkpt><trkpt lat="43.74863265372964" lon="11.29617728848488"><ele>79.0</ele><time>2026-04-18T06:53:36Z</time></trkpt><trkpt lat="43.748765399079126" lon="11.296369307279612"><ele>75.0</ele><time>2026-04-18T06:53:37Z</time></trkpt><trkpt lat="43.74889543125373" lon="11.296537556861217"><ele>71.0</ele><time>2026-04-18T06:53:38Z</time></trkpt><trkpt lat="43.74902986346719" lon="11.296685006044395"><ele>67.0</ele><time>2026-04-18T06:53:39Z</time></trkpt><trkpt lat="43.74916715413939" lon="11.29682408987262"><ele>67.0</ele><time>2026-04-18T06:53:40Z</time></trkpt><trkpt lat="43.749302210577056" lon="11.296958977200925"><ele>67.0</ele><time>2026-04-18T06:53:41Z</time></trkpt><trkpt lat="43.749426553078465" lon="11.297099079214496"><ele>67.0</ele><time>2026-04-18T06:53:42Z</time></trkpt><trkpt lat="43.74955017843805" lon="11.297229614463697"><ele>65.75</ele><time>2026-04-18T06:53:43Z</time></trkpt><trkpt lat="43.74966547921284" lon="11.297348831670215"><ele>64.5</ele><time>2026-04-18T06:53:44Z</time></trkpt><trkpt lat="43.749775313362555" lon="11.29746632612309"><ele>63.25</ele><time>2026-04-18T06:53:45Z</time></trkpt><trkpt lat="43.74988805973619" lon="11.297580115913695"><ele>62.0</ele><time>2026-04-18T06:53:46Z</time></trkpt><trkpt lat="43.75000083334984" lon="11.297690369217833"><ele>62.0</ele><time>2026-04-18T06:53:47Z</time></trkpt><trkpt lat="43.75012025729101" lon="11.297819671213176"><ele>62.0</ele><time>2026-04-18T06:53:48Z</time></trkpt><trkpt lat="43.750235454611165" lon="11.297944311286841"><ele>62.0</ele><time>2026-04-18T06:53:49Z</time></trkpt><trkpt lat="43.750353315204805" lon="11.298074128475852"><ele>62.0</ele><time>2026-04-18T06:53:50Z</time></trkpt><trkpt lat="43.750477630846916" lon="11.298195432172822"><ele>61.333333333333336</ele><time>2026-04-18T06:53:51Z</time></trkpt><trkpt lat="43.75060345203057" lon="11.298341174053725"><ele>60.66666666666667</ele><time>2026-04-18T06:53:52Z</time></trkpt><trkpt lat="43.75073954643585" lon="11.298482887343418"><ele>60.0</ele><time>2026-04-18T06:53:53Z</time></trkpt><trkpt lat="43.75087956192692" lon="11.29862758697293"><ele>60.0</ele><time>2026-04-18T06:53:54Z</time></trkpt><trkpt lat="43.75102404014996" lon="11.298777567162356"><ele>60.0</ele><time>2026-04-18T06:53:55Z</time></trkpt><trkpt lat="43.75116630775999" lon="11.298917624073825"><ele>60.0</ele><time>2026-04-18T06:53:56Z</time></trkpt><trkpt lat="43.75131243398862" lon="11.299050089644354"><ele>59.66666666666667</ele><time>2026-04-18T06:53:57Z</time></trkpt><trkpt lat="43.75145216693544" lon="11.299173649514332"><ele>59.333333333333336</ele><time>2026-04-18T06:53:58Z</time></trkpt><trkpt lat="43.75158598230073" lon="11.299285470231418"><ele>59.0</ele><time>2026-04-18T06:53:59Z</time></trkpt><trkpt lat="43.7517195266279" lon="11.299396657788362"><ele>59.0</ele><time>2026-04-18T06:54:00Z</time></trkpt><trkpt lat="43.75185883693551" lon="11.299507917604862"><ele>59.0</ele><time>2026-04-18T06:54:01Z</time></trkpt><trkpt lat="43.751997003328704" lon="11.299615378953083"><ele>59.0</ele><time>2026-04-18T06:54:02Z</time></trkpt><trkpt lat="43.752129734231566" lon="11.29971032831689"><ele>58.333333333333336</ele><time>2026-04-18T06:54:03Z</time></trkpt><trkpt lat="43.75226858413105" lon="11.2998063671296"><ele>57.66666666666667</ele><time>2026-04-18T06:54:04Z</time></trkpt><trkpt lat="43.75240801935595" lon="11.299901747524578"><ele>57.0</ele><time>2026-04-18T06:54:05Z</time></trkpt><trkpt lat="43.75254861068792" lon="11.299998990723598"><ele>57.0</ele><time>2026-04-18T06:54:06Z</time></trkpt><trkpt lat="43.752691331426924" lon="11.300094652308736"><ele>57.0</ele><time>2026-04-18T06:54:07Z</time></trkpt><trkpt lat="43.75283675467134" lon="11.300187004433077"><ele>57.0</ele><time>2026-04-18T06:54:08Z</time></trkpt><trkpt lat="43.75298476101412" lon="11.300272856029713"><ele>56.66666666666667</ele><time>2026-04-18T06:54:09Z</time></trkpt><trkpt lat="43.75313343813816" lon="11.300359421894518"><ele>56.333333333333336</ele><time>2026-04-18T06:54:10Z</time></trkpt><trkpt lat="43.75328429764172" lon="11.30044669892048"><ele>56.0</ele><time>2026-04-18T06:54:11Z</time></trkpt><trkpt lat="43.75343569610139" lon="11.300535353837173"><ele>56.333333333333336</ele><time>2026-04-18T06:54:12Z</time></trkpt><trkpt lat="43.75358490069229" lon="11.300625085563377"><ele>56.66666666666667</ele><time>2026-04-18T06:54:13Z</time></trkpt><trkpt lat="43.75372980275936" lon="11.300709718138716"><ele>57.0</ele><time>2026-04-18T06:54:14Z</time></trkpt><trkpt lat="43.753867879225226" lon="11.300792393886503"><ele>57.0</ele><time>2026-04-18T06:54:15Z</time></trkpt><trkpt lat="43.75400853916849" lon="11.300873874176864"><ele>57.0</ele><time>2026-04-18T06:54:16Z</time></trkpt><trkpt lat="43.754152559855896" lon="11.300956991104172"><ele>57.0</ele><time>2026-04-18T06:54:17Z</time></trkpt><trkpt lat="43.7542993639041" lon="11.301042632685613"><ele>57.33333333333333</ele><time>2026-04-18T06:54:18Z</time></trkpt><trkpt lat="43.75444555072097" lon="11.301136596163296"><ele>57.666666666666664</ele><time>2026-04-18T06:54:19Z</time></trkpt><trkpt lat="43.75459377398969" lon="11.30124033095752"><ele>58.0</ele><time>2026-04-18T06:54:20Z</time></trkpt><trkpt lat="43.75474403254241" lon="11.30133678585977"><ele>58.33333333333333</ele><time>2026-04-18T06:54:21Z</time></trkpt><trkpt lat="43.75489461876677" lon="11.301417025285739"><ele>58.66666666666667</ele><time>2026-04-18T06:54:22Z</time></trkpt><trkpt lat="43.75503607707343" lon="11.301495132557672"><ele>59.0</ele><time>2026-04-18T06:54:23Z</time></trkpt><trkpt lat="43.75516186977577" lon="11.301577486849563"><ele>58.5</ele><time>2026-04-18T06:54:24Z</time></trkpt><trkpt lat="43.75527681660061" lon="11.301658129011999"><ele>58.0</ele><time>2026-04-18T06:54:25Z</time></trkpt><trkpt lat="43.75538198259173" lon="11.301733485041417"><ele>57.5</ele><time>2026-04-18T06:54:26Z</time></trkpt><trkpt lat="43.75548407094666" lon="11.3018073759511"><ele>57.0</ele><time>2026-04-18T06:54:27Z</time></trkpt><trkpt lat="43.755584314353" lon="11.301879638096556"><ele>57.0</ele><time>2026-04-18T06:54:28Z</time></trkpt><trkpt lat="43.75568405577613" lon="11.30195469858774"><ele>57.0</ele><time>2026-04-18T06:54:29Z</time></trkpt><trkpt lat="43.75577367317397" lon="11.302024199776497"><ele>57.0</ele><time>2026-04-18T06:54:29.999Z</time></trkpt><trkpt lat="43.7558577915196" lon="11.30208671263732"><ele>57.0</ele><time>2026-04-18T06:54:30.999Z</time></trkpt><trkpt lat="43.75593893779495" lon="11.302142107068809"><ele>57.0</ele><time>2026-04-18T06:54:31.999Z</time></trkpt><trkpt lat="43.756009624481585" lon="11.302206519507024"><ele>57.2</ele><time>2026-04-18T06:54:32.999Z</time></trkpt><trkpt lat="43.756061625032935" lon="11.30227314464726"><ele>57.400000000000006</ele><time>2026-04-18T06:54:33.999Z</time></trkpt><trkpt lat="43.75611462606848" lon="11.302390341291535"><ele>57.599999999999994</ele><time>2026-04-18T06:54:35.999Z</time></trkpt><trkpt lat="43.75615327440556" lon="11.302494300451993"><ele>57.8</ele><time>2026-04-18T06:54:37.999Z</time></trkpt><trkpt lat="43.75611030098465" lon="11.302626747095582"><ele>58.0</ele><time>2026-04-18T06:54:38.999Z</time></trkpt><trkpt lat="43.7560795840319" lon="11.302744899641871"><ele>57.99999999999999</ele><time>2026-04-18T06:54:39.999Z</time></trkpt><trkpt lat="43.756063566134706" lon="11.302848525910255"><ele>58.0</ele><time>2026-04-18T06:54:40.999Z</time></trkpt><trkpt lat="43.75604596951458" lon="11.302987908735696"><ele>58.0</ele><time>2026-04-18T06:54:42.999Z</time></trkpt><trkpt lat="43.75603725998702" lon="11.303106518389887"><ele>58.0</ele><time>2026-04-18T06:54:44.999Z</time></trkpt><trkpt lat="43.756015064889056" lon="11.303196047207761"><ele>57.99999999999999</ele><time>2026-04-18T06:54:45.999Z</time></trkpt><trkpt lat="43.75599008291872" lon="11.303306127624575"><ele>58.0</ele><time>2026-04-18T06:54:46.999Z</time></trkpt><trkpt lat="43.75597034077699" lon="11.303429634898759"><ele>57.99999999999999</ele><time>2026-04-18T06:54:47.999Z</time></trkpt><trkpt lat="43.75595384746322" lon="11.303518220722097"><ele>58.0</ele><time>2026-04-18T06:54:49Z</time></trkpt><trkpt lat="43.755932187911014" lon="11.303686380964846"><ele>58.0</ele><time>2026-04-18T06:54:51Z</time></trkpt><trkpt lat="43.75592379830759" lon="11.303776295292362"><ele>58.0</ele><time>2026-04-18T06:54:52Z</time></trkpt><trkpt lat="43.755911538256996" lon="11.3038662484011"><ele>57.99999999999999</ele><time>2026-04-18T06:54:53Z</time></trkpt><trkpt lat="43.755892706295455" lon="11.30396361635321"><ele>58.0</ele><time>2026-04-18T06:54:54Z</time></trkpt><trkpt lat="43.755872056366414" lon="11.304073507913593"><ele>58.2</ele><time>2026-04-18T06:54:55Z</time></trkpt><trkpt lat="43.75584669431147" lon="11.30419870863987"><ele>58.4</ele><time>2026-04-18T06:54:56Z</time></trkpt><trkpt lat="43.755818864303826" lon="11.304338658205127"><ele>58.60000000000001</ele><time>2026-04-18T06:54:57Z</time></trkpt><trkpt lat="43.75578724174384" lon="11.304487954768257"><ele>58.800000000000004</ele><time>2026-04-18T06:54:58Z</time></trkpt><trkpt lat="43.75575535381326" lon="11.30463915034055"><ele>59.0</ele><time>2026-04-18T06:54:59Z</time></trkpt><trkpt lat="43.75572372094613" lon="11.304786413524095"><ele>58.6</ele><time>2026-04-18T06:55:00Z</time></trkpt><trkpt lat="43.755693347030025" lon="11.304938042459058"><ele>58.2</ele><time>2026-04-18T06:55:01Z</time></trkpt><trkpt lat="43.75566580760338" lon="11.305084194640619"><ele>57.800000000000004</ele><time>2026-04-18T06:55:02Z</time></trkpt><trkpt lat="43.75562455822095" lon="11.305203275509596"><ele>57.400000000000006</ele><time>2026-04-18T06:55:03Z</time></trkpt><trkpt lat="43.75559863794404" lon="11.305324838871693"><ele>57.0</ele><time>2026-04-18T06:55:04Z</time></trkpt><trkpt lat="43.75557132355171" lon="11.305452757574583"><ele>57.0</ele><time>2026-04-18T06:55:05Z</time></trkpt><trkpt lat="43.75554604861805" lon="11.305571124999899"><ele>57.0</ele><time>2026-04-18T06:55:06Z</time></trkpt><trkpt lat="43.755523715429355" lon="11.305675715787547"><ele>57.0</ele><time>2026-04-18T06:55:07Z</time></trkpt><trkpt lat="43.75550330441948" lon="11.305772515817145"><ele>57.0</ele><time>2026-04-18T06:55:08Z</time></trkpt><trkpt lat="43.7554836584754" lon="11.305869193931027"><ele>57.0</ele><time>2026-04-18T06:55:09Z</time></trkpt><trkpt lat="43.75546182072699" lon="11.305976657873918"><ele>57.0</ele><time>2026-04-18T06:55:10Z</time></trkpt><trkpt lat="43.755436796541375" lon="11.306099802361732"><ele>57.2</ele><time>2026-04-18T06:55:11Z</time></trkpt><trkpt lat="43.75541181635823" lon="11.306222729238266"><ele>57.400000000000006</ele><time>2026-04-18T06:55:12Z</time></trkpt><trkpt lat="43.75538270882057" lon="11.306318856158331"><ele>57.599999999999994</ele><time>2026-04-18T06:55:13Z</time></trkpt><trkpt lat="43.75535888046689" lon="11.30644780312892"><ele>57.8</ele><time>2026-04-18T06:55:15Z</time></trkpt><trkpt lat="43.75533122614993" lon="11.306590100637834"><ele>58.0</ele><time>2026-04-18T06:55:17Z</time></trkpt><trkpt lat="43.755267268128115" lon="11.30674105024881"><ele>58.0</ele><time>2026-04-18T06:55:19Z</time></trkpt><trkpt lat="43.755245089225156" lon="11.306859049791283"><ele>58.0</ele><time>2026-04-18T06:55:20Z</time></trkpt><trkpt lat="43.755217379366805" lon="11.30700899628788"><ele>58.0</ele><time>2026-04-18T06:55:21Z</time></trkpt><trkpt lat="43.75518855615691" lon="11.30717519992206"><ele>58.0</ele><time>2026-04-18T06:55:22Z</time></trkpt><trkpt lat="43.75515885693853" lon="11.307350832009048"><ele>58.25</ele><time>2026-04-18T06:55:23Z</time></trkpt><trkpt lat="43.75512983887447" lon="11.307533461979364"><ele>58.5</ele><time>2026-04-18T06:55:24Z</time></trkpt><trkpt lat="43.75510463071667" lon="11.3077142370287"><ele>58.75</ele><time>2026-04-18T06:55:25Z</time></trkpt><trkpt lat="43.755081060335655" lon="11.307891333284132"><ele>59.0</ele><time>2026-04-18T06:55:26Z</time></trkpt><trkpt lat="43.755061067525546" lon="11.308061000082125"><ele>59.0</ele><time>2026-04-18T06:55:27Z</time></trkpt><trkpt lat="43.755042090332545" lon="11.308221480857647"><ele>59.00000000000001</ele><time>2026-04-18T06:55:28Z</time></trkpt><trkpt lat="43.75502743111405" lon="11.308365914889272"><ele>59.00000000000001</ele><time>2026-04-18T06:55:29Z</time></trkpt><trkpt lat="43.75501516333894" lon="11.308499803086887"><ele>59.0</ele><time>2026-04-18T06:55:30Z</time></trkpt><trkpt lat="43.75500535475945" lon="11.308622825326312"><ele>59.0</ele><time>2026-04-18T06:55:31Z</time></trkpt><trkpt lat="43.75499645665468" lon="11.30874156528848"><ele>59.00000000000001</ele><time>2026-04-18T06:55:32Z</time></trkpt><trkpt lat="43.754988579439676" lon="11.308856265197463"><ele>59.0</ele><time>2026-04-18T06:55:33Z</time></trkpt><trkpt lat="43.75498208678573" lon="11.308950804616831"><ele>59.0</ele><time>2026-04-18T06:55:34Z</time></trkpt><trkpt lat="43.754975506513475" lon="11.309069221879703"><ele>59.0</ele><time>2026-04-18T06:55:36Z</time></trkpt><trkpt lat="43.75496812384425" lon="11.309203643596325"><ele>59.00000000000001</ele><time>2026-04-18T06:55:39Z</time></trkpt><trkpt lat="43.75496465612557" lon="11.30929259331986"><ele>59.0</ele><time>2026-04-18T06:55:42Z</time></trkpt><trkpt lat="43.75495843259063" lon="11.309452231994008"><ele>59.0</ele><time>2026-04-18T06:55:56Z</time></trkpt><trkpt lat="43.75495497093054" lon="11.309549702080695"><ele>59.00000000000001</ele><time>2026-04-18T06:55:57Z</time></trkpt><trkpt lat="43.754952119402006" lon="11.309664494424046"><ele>59.00000000000001</ele><time>2026-04-18T06:55:58Z</time></trkpt><trkpt lat="43.7549488207674" lon="11.30979728416546"><ele>59.0</ele><time>2026-04-18T06:55:59Z</time></trkpt><trkpt lat="43.75491043137683" lon="11.309952700338807"><ele>59.0</ele><time>2026-04-18T06:56:00Z</time></trkpt><trkpt lat="43.75488179789735" lon="11.31010637155335"><ele>58.75</ele><time>2026-04-18T06:56:01Z</time></trkpt><trkpt lat="43.754880410498515" lon="11.310286558397452"><ele>58.5</ele><time>2026-04-18T06:56:02Z</time></trkpt><trkpt lat="43.754883181718924" lon="11.310483499621396"><ele>58.25</ele><time>2026-04-18T06:56:03Z</time></trkpt><trkpt lat="43.754891392611604" lon="11.310686622200903"><ele>58.0</ele><time>2026-04-18T06:56:04Z</time></trkpt><trkpt lat="43.75489925700554" lon="11.310895062709717"><ele>57.666666666666664</ele><time>2026-04-18T06:56:05Z</time></trkpt><trkpt lat="43.75490930386204" lon="11.311106008385554"><ele>57.33333333333333</ele><time>2026-04-18T06:56:06Z</time></trkpt><trkpt lat="43.75492527909272" lon="11.31132481471223"><ele>57.0</ele><time>2026-04-18T06:56:07Z</time></trkpt><trkpt lat="43.754943092754154" lon="11.311548040404832"><ele>57.66666666666667</ele><time>2026-04-18T06:56:08Z</time></trkpt><trkpt lat="43.75496243589468" lon="11.311774676029849"><ele>58.333333333333336</ele><time>2026-04-18T06:56:09Z</time></trkpt><trkpt lat="43.75498485424768" lon="11.312011534013985"><ele>59.0</ele><time>2026-04-18T06:56:10Z</time></trkpt><trkpt lat="43.75502776487344" lon="11.312246674732933"><ele>59.333333333333336</ele><time>2026-04-18T06:56:11Z</time></trkpt><trkpt lat="43.75505934106631" lon="11.312484149085734"><ele>59.66666666666667</ele><time>2026-04-18T06:56:12Z</time></trkpt><trkpt lat="43.75509393538545" lon="11.312723017144537"><ele>60.0</ele><time>2026-04-18T06:56:13Z</time></trkpt><trkpt lat="43.75513061096595" lon="11.312960195586777"><ele>59.66666666666667</ele><time>2026-04-18T06:56:14Z</time></trkpt><trkpt lat="43.755167635997815" lon="11.31319277614968"><ele>59.333333333333336</ele><time>2026-04-18T06:56:15Z</time></trkpt><trkpt lat="43.755204621395094" lon="11.313424512826272"><ele>59.0</ele><time>2026-04-18T06:56:16Z</time></trkpt><trkpt lat="43.755241824243065" lon="11.313652914880656"><ele>59.0</ele><time>2026-04-18T06:56:17Z</time></trkpt><trkpt lat="43.75527886612852" lon="11.313879729316666"><ele>59.0</ele><time>2026-04-18T06:56:18Z</time></trkpt><trkpt lat="43.755315427419376" lon="11.314103600992212"><ele>59.0</ele><time>2026-04-18T06:56:19Z</time></trkpt><trkpt lat="43.75535134921548" lon="11.314323556919275"><ele>58.66666666666667</ele><time>2026-04-18T06:56:20Z</time></trkpt><trkpt lat="43.755386178272154" lon="11.314542575176246"><ele>58.33333333333333</ele><time>2026-04-18T06:56:21Z</time></trkpt><trkpt lat="43.75541858874022" lon="11.314759503845147"><ele>58.0</ele><time>2026-04-18T06:56:22Z</time></trkpt><trkpt lat="43.75544940030941" lon="11.31497291856749"><ele>58.75</ele><time>2026-04-18T06:56:23Z</time></trkpt><trkpt lat="43.75547962826165" lon="11.315179943603116"><ele>59.5</ele><time>2026-04-18T06:56:24Z</time></trkpt><trkpt lat="43.7555105334283" lon="11.315380664526979"><ele>60.25</ele><time>2026-04-18T06:56:25Z</time></trkpt><trkpt lat="43.755540695160896" lon="11.315568279097477"><ele>61.0</ele><time>2026-04-18T06:56:26Z</time></trkpt><trkpt lat="43.75556991461765" lon="11.315745292424213"><ele>61.0</ele><time>2026-04-18T06:56:27Z</time></trkpt><trkpt lat="43.75559771576346" lon="11.315913713595508"><ele>61.0</ele><time>2026-04-18T06:56:27.999Z</time></trkpt><trkpt lat="43.755623439399955" lon="11.316079541793219"><ele>61.0</ele><time>2026-04-18T06:56:28.999Z</time></trkpt><trkpt lat="43.755646988234396" lon="11.316242708918628"><ele>61.0</ele><time>2026-04-18T06:56:29.999Z</time></trkpt><trkpt lat="43.755656020760746" lon="11.316416224456972"><ele>61.0</ele><time>2026-04-18T06:56:30.999Z</time></trkpt><trkpt lat="43.7556759583932" lon="11.316593138893237"><ele>61.0</ele><time>2026-04-18T06:56:31.999Z</time></trkpt><trkpt lat="43.75570294563072" lon="11.316779003849273"><ele>61.0</ele><time>2026-04-18T06:56:32.999Z</time></trkpt><trkpt lat="43.75570780622298" lon="11.316940775462536"><ele>61.0</ele><time>2026-04-18T06:56:33.999Z</time></trkpt><trkpt lat="43.75570924961173" lon="11.317075099528479"><ele>61.0</ele><time>2026-04-18T06:56:34.999Z</time></trkpt><trkpt lat="43.755694004961384" lon="11.317199761475461"><ele>60.99999999999999</ele><time>2026-04-18T06:56:35.999Z</time></trkpt><trkpt lat="43.755693957884866" lon="11.317320569739238"><ele>60.99999999999999</ele><time>2026-04-18T06:56:36.999Z</time></trkpt><trkpt lat="43.75569651800545" lon="11.317438763950255"><ele>61.0</ele><time>2026-04-18T06:56:37.999Z</time></trkpt><trkpt lat="43.755708682445906" lon="11.317559367250505"><ele>61.0</ele><time>2026-04-18T06:56:38.999Z</time></trkpt><trkpt lat="43.755753919691486" lon="11.31768603723669"><ele>61.0</ele><time>2026-04-18T06:56:39.999Z</time></trkpt><trkpt lat="43.75582981127028" lon="11.317805448957666"><ele>61.0</ele><time>2026-04-18T06:56:40.999Z</time></trkpt><trkpt lat="43.75591857209428" lon="11.317924976724777"><ele>61.0</ele><time>2026-04-18T06:56:41.999Z</time></trkpt><trkpt lat="43.755983138832825" lon="11.318073116580718"><ele>61.0</ele><time>2026-04-18T06:56:42.999Z</time></trkpt><trkpt lat="43.756010936816004" lon="11.31825466672906"><ele>61.33333333333333</ele><time>2026-04-18T06:56:43.999Z</time></trkpt><trkpt lat="43.756025905498944" lon="11.318450448112765"><ele>61.66666666666667</ele><time>2026-04-18T06:56:44.999Z</time></trkpt><trkpt lat="43.75605382073245" lon="11.318654922059377"><ele>62.0</ele><time>2026-04-18T06:56:45.999Z</time></trkpt><trkpt lat="43.75608786280798" lon="11.318873072649376"><ele>62.0</ele><time>2026-04-18T06:56:46.999Z</time></trkpt><trkpt lat="43.75612237232408" lon="11.319096546102989"><ele>62.0</ele><time>2026-04-18T06:56:47.999Z</time></trkpt><trkpt lat="43.75615436678826" lon="11.31930678909635"><ele>62.0</ele><time>2026-04-18T06:56:48.999Z</time></trkpt><trkpt lat="43.75618109712176" lon="11.319491809100194"><ele>62.0</ele><time>2026-04-18T06:56:49.999Z</time></trkpt><trkpt lat="43.75620673801482" lon="11.319654222829207"><ele>62.0</ele><time>2026-04-18T06:56:50.999Z</time></trkpt><trkpt lat="43.75623425527185" lon="11.31980950152256"><ele>62.0</ele><time>2026-04-18T06:56:51.999Z</time></trkpt><trkpt lat="43.75626008406746" lon="11.319980153533217"><ele>62.0</ele><time>2026-04-18T06:56:52.999Z</time></trkpt><trkpt lat="43.756283586915664" lon="11.320164655941557"><ele>62.0</ele><time>2026-04-18T06:56:54Z</time></trkpt><trkpt lat="43.756311378113956" lon="11.320361881731094"><ele>62.0</ele><time>2026-04-18T06:56:55Z</time></trkpt><trkpt lat="43.756346564553006" lon="11.32056975953582"><ele>62.0</ele><time>2026-04-18T06:56:56Z</time></trkpt><trkpt lat="43.75637795656865" lon="11.320786012665756"><ele>62.333333333333336</ele><time>2026-04-18T06:56:57Z</time></trkpt><trkpt lat="43.756405765336694" lon="11.321010908789992"><ele>62.66666666666667</ele><time>2026-04-18T06:56:58Z</time></trkpt><trkpt lat="43.75643268856257" lon="11.321246354466332"><ele>63.0</ele><time>2026-04-18T06:56:59Z</time></trkpt><trkpt lat="43.75645442024809" lon="11.321487603134841"><ele>63.0</ele><time>2026-04-18T06:57:00Z</time></trkpt><trkpt lat="43.756467041694435" lon="11.321725132707215"><ele>63.0</ele><time>2026-04-18T06:57:01Z</time></trkpt><trkpt lat="43.756469845888816" lon="11.321959549109284"><ele>63.0</ele><time>2026-04-18T06:57:02Z</time></trkpt><trkpt lat="43.756468774961405" lon="11.322192838062975"><ele>63.33333333333333</ele><time>2026-04-18T06:57:03Z</time></trkpt><trkpt lat="43.75646231728314" lon="11.322415897990757"><ele>63.666666666666664</ele><time>2026-04-18T06:57:04Z</time></trkpt><trkpt lat="43.75644745681596" lon="11.32263372137405"><ele>64.0</ele><time>2026-04-18T06:57:05Z</time></trkpt><trkpt lat="43.75642904859702" lon="11.322847891012014"><ele>64.0</ele><time>2026-04-18T06:57:06Z</time></trkpt><trkpt lat="43.756409489064424" lon="11.323060162962948"><ele>64.0</ele><time>2026-04-18T06:57:07Z</time></trkpt><trkpt lat="43.75638687928498" lon="11.323269390492936"><ele>64.0</ele><time>2026-04-18T06:57:08Z</time></trkpt><trkpt lat="43.7563597130895" lon="11.323469909826605"><ele>64.5</ele><time>2026-04-18T06:57:09Z</time></trkpt><trkpt lat="43.75633042147691" lon="11.323670895197225"><ele>65.0</ele><time>2026-04-18T06:57:10Z</time></trkpt><trkpt lat="43.75630181775025" lon="11.3238653591998"><ele>65.5</ele><time>2026-04-18T06:57:11Z</time></trkpt><trkpt lat="43.756274978688936" lon="11.324056757056708"><ele>66.0</ele><time>2026-04-18T06:57:12Z</time></trkpt><trkpt lat="43.75624800908751" lon="11.324243622774647"><ele>66.25</ele><time>2026-04-18T06:57:13Z</time></trkpt><trkpt lat="43.75622063641095" lon="11.324426428988293"><ele>66.5</ele><time>2026-04-18T06:57:14Z</time></trkpt><trkpt lat="43.75619551852541" lon="11.324600050052956"><ele>66.75</ele><time>2026-04-18T06:57:15Z</time></trkpt><trkpt lat="43.7561694935517" lon="11.324760589689255"><ele>67.0</ele><time>2026-04-18T06:57:16Z</time></trkpt><trkpt lat="43.756134936189845" lon="11.324910825799003"><ele>67.0</ele><time>2026-04-18T06:57:17Z</time></trkpt><trkpt lat="43.75608391347582" lon="11.32505751215564"><ele>67.0</ele><time>2026-04-18T06:57:18Z</time></trkpt><trkpt lat="43.75600678858252" lon="11.325176388626721"><ele>67.0</ele><time>2026-04-18T06:57:19Z</time></trkpt><trkpt lat="43.75595758896475" lon="11.325291418451462"><ele>67.0</ele><time>2026-04-18T06:57:20Z</time></trkpt><trkpt lat="43.755949826214824" lon="11.325412800349099"><ele>67.0</ele><time>2026-04-18T06:57:21Z</time></trkpt><trkpt lat="43.755978939762066" lon="11.325516184460904"><ele>67.4</ele><time>2026-04-18T06:57:22Z</time></trkpt><trkpt lat="43.75604286876221" lon="11.325582176288295"><ele>67.80000000000001</ele><time>2026-04-18T06:57:23Z</time></trkpt><trkpt lat="43.756134599169904" lon="11.325602311855478"><ele>68.2</ele><time>2026-04-18T06:57:24Z</time></trkpt><trkpt lat="43.7562417252935" lon="11.325587064949863"><ele>68.60000000000001</ele><time>2026-04-18T06:57:25Z</time></trkpt><trkpt lat="43.75635579033814" lon="11.325611524570828"><ele>69.0</ele><time>2026-04-18T06:57:26Z</time></trkpt><trkpt lat="43.75645636429295" lon="11.325709449534447"><ele>69.0</ele><time>2026-04-18T06:57:27Z</time></trkpt><trkpt lat="43.756524989794585" lon="11.325867153078837"><ele>69.0</ele><time>2026-04-18T06:57:28Z</time></trkpt><trkpt lat="43.756558856458454" lon="11.326050325143246"><ele>69.0</ele><time>2026-04-18T06:57:29Z</time></trkpt><trkpt lat="43.75658100104477" lon="11.326245560606486"><ele>69.0</ele><time>2026-04-18T06:57:30Z</time></trkpt><trkpt lat="43.75660745705598" lon="11.326454214898606"><ele>70.0</ele><time>2026-04-18T06:57:31Z</time></trkpt><trkpt lat="43.7566436408485" lon="11.32666569485582"><ele>71.0</ele><time>2026-04-18T06:57:32Z</time></trkpt><trkpt lat="43.75671064385433" lon="11.326867799145464"><ele>72.0</ele><time>2026-04-18T06:57:33Z</time></trkpt><trkpt lat="43.75681269880434" lon="11.327045147253108"><ele>71.66666666666667</ele><time>2026-04-18T06:57:34Z</time></trkpt><trkpt lat="43.756947806228716" lon="11.327190197717568"><ele>71.33333333333334</ele><time>2026-04-18T06:57:35Z</time></trkpt><trkpt lat="43.75709471520717" lon="11.32727454392108"><ele>71.0</ele><time>2026-04-18T06:57:36Z</time></trkpt><trkpt lat="43.7572299686456" lon="11.32732598393946"><ele>71.75</ele><time>2026-04-18T06:57:37Z</time></trkpt><trkpt lat="43.75735815089427" lon="11.327374067297153"><ele>72.5</ele><time>2026-04-18T06:57:38Z</time></trkpt><trkpt lat="43.75746468027531" lon="11.327493348732881"><ele>73.25</ele><time>2026-04-18T06:57:39Z</time></trkpt><trkpt lat="43.757573251445045" lon="11.327541077354208"><ele>74.0</ele><time>2026-04-18T06:57:40Z</time></trkpt><trkpt lat="43.757680359521444" lon="11.327579118325257"><ele>73.8</ele><time>2026-04-18T06:57:41Z</time></trkpt><trkpt lat="43.75778419034101" lon="11.327626957469052"><ele>73.60000000000001</ele><time>2026-04-18T06:57:42Z</time></trkpt><trkpt lat="43.757888152799985" lon="11.327677307316453"><ele>73.4</ele><time>2026-04-18T06:57:43Z</time></trkpt><trkpt lat="43.757986861065696" lon="11.327727168528236"><ele>73.2</ele><time>2026-04-18T06:57:44Z</time></trkpt><trkpt lat="43.75807622983426" lon="11.327769087657064"><ele>73.0</ele><time>2026-04-18T06:57:45Z</time></trkpt><trkpt lat="43.75815610810784" lon="11.3278043695809"><ele>73.0</ele><time>2026-04-18T06:57:46Z</time></trkpt><trkpt lat="43.75822236321287" lon="11.327829515938927"><ele>73.0</ele><time>2026-04-18T06:57:47Z</time></trkpt><trkpt lat="43.75830469288208" lon="11.327861647584884"><ele>73.0</ele><time>2026-04-18T06:57:49Z</time></trkpt><trkpt lat="43.75838885881" lon="11.32790101558525"><ele>73.0</ele><time>2026-04-18T06:57:52Z</time></trkpt><trkpt lat="43.75849575880215" lon="11.327956258218238"><ele>73.0</ele><time>2026-04-18T06:58:10Z</time></trkpt><trkpt lat="43.75856378353907" lon="11.32800637225979"><ele>73.0</ele><time>2026-04-18T06:58:11Z</time></trkpt><trkpt lat="43.758651179083294" lon="11.328058170343786"><ele>72.2</ele><time>2026-04-18T06:58:12Z</time></trkpt><trkpt lat="43.758743896200166" lon="11.32810432072652"><ele>71.4</ele><time>2026-04-18T06:58:13Z</time></trkpt><trkpt lat="43.758845055129704" lon="11.328154545232598"><ele>70.60000000000001</ele><time>2026-04-18T06:58:14Z</time></trkpt><trkpt lat="43.758951124316546" lon="11.328207198174452"><ele>69.8</ele><time>2026-04-18T06:58:15Z</time></trkpt><trkpt lat="43.75906923645092" lon="11.328268687595793"><ele>69.0</ele><time>2026-04-18T06:58:16Z</time></trkpt><trkpt lat="43.7591927727928" lon="11.328338392857779"><ele>69.0</ele><time>2026-04-18T06:58:17Z</time></trkpt><trkpt lat="43.75932074368649" lon="11.328418235084031"><ele>69.0</ele><time>2026-04-18T06:58:18Z</time></trkpt><trkpt lat="43.759455331260796" lon="11.328515130870446"><ele>69.0</ele><time>2026-04-18T06:58:19Z</time></trkpt><trkpt lat="43.75958622993285" lon="11.328623155373183"><ele>69.0</ele><time>2026-04-18T06:58:20Z</time></trkpt><trkpt lat="43.75972154779202" lon="11.328751010505332"><ele>69.33333333333333</ele><time>2026-04-18T06:58:21Z</time></trkpt><trkpt lat="43.75985425552761" lon="11.328892036741191"><ele>69.66666666666666</ele><time>2026-04-18T06:58:22Z</time></trkpt><trkpt lat="43.75997906969053" lon="11.329044538921867"><ele>70.0</ele><time>2026-04-18T06:58:23Z</time></trkpt><trkpt lat="43.7600951984829" lon="11.329203355924072"><ele>70.0</ele><time>2026-04-18T06:58:24Z</time></trkpt><trkpt lat="43.76020253191405" lon="11.329362303236822"><ele>70.0</ele><time>2026-04-18T06:58:24.999Z</time></trkpt><trkpt lat="43.76029909833473" lon="11.329523210552056"><ele>70.0</ele><time>2026-04-18T06:58:25.999Z</time></trkpt><trkpt lat="43.760387206565234" lon="11.329687800566257"><ele>70.0</ele><time>2026-04-18T06:58:26.999Z</time></trkpt><trkpt lat="43.76046592679633" lon="11.329859434819243"><ele>70.0</ele><time>2026-04-18T06:58:27.999Z</time></trkpt><trkpt lat="43.760534837620696" lon="11.330038562783173"><ele>70.0</ele><time>2026-04-18T06:58:28.999Z</time></trkpt><trkpt lat="43.76059959631449" lon="11.33022848183375"><ele>70.0</ele><time>2026-04-18T06:58:29.999Z</time></trkpt><trkpt lat="43.760660259484304" lon="11.330418504613757"><ele>70.33333333333333</ele><time>2026-04-18T06:58:30.999Z</time></trkpt><trkpt lat="43.76071854188914" lon="11.33061160774516"><ele>70.66666666666667</ele><time>2026-04-18T06:58:31.999Z</time></trkpt><trkpt lat="43.76077762430215" lon="11.330808787955986"><ele>71.0</ele><time>2026-04-18T06:58:32.999Z</time></trkpt><trkpt lat="43.760834831514195" lon="11.331007225485866"><ele>71.0</ele><time>2026-04-18T06:58:33.999Z</time></trkpt><trkpt lat="43.760894622831444" lon="11.331203780913498"><ele>71.0</ele><time>2026-04-18T06:58:34.999Z</time></trkpt><trkpt lat="43.76095106310392" lon="11.331404364316702"><ele>71.0</ele><time>2026-04-18T06:58:35.999Z</time></trkpt><trkpt lat="43.76100650591205" lon="11.331600087480622"><ele>70.66666666666667</ele><time>2026-04-18T06:58:36.999Z</time></trkpt><trkpt lat="43.76106272128491" lon="11.331794600085086"><ele>70.33333333333333</ele><time>2026-04-18T06:58:37.999Z</time></trkpt><trkpt lat="43.76112033550813" lon="11.33198861929639"><ele>70.0</ele><time>2026-04-18T06:58:38.999Z</time></trkpt><trkpt lat="43.761175051920034" lon="11.332181948373535"><ele>70.0</ele><time>2026-04-18T06:58:39.999Z</time></trkpt><trkpt lat="43.76123018488561" lon="11.332376157778135"><ele>70.0</ele><time>2026-04-18T06:58:40.999Z</time></trkpt><trkpt lat="43.761286105872365" lon="11.33257131541218"><ele>70.0</ele><time>2026-04-18T06:58:41.999Z</time></trkpt><trkpt lat="43.761340990267705" lon="11.332763803182942"><ele>70.0</ele><time>2026-04-18T06:58:42.999Z</time></trkpt><trkpt lat="43.761398300959094" lon="11.332955385116083"><ele>70.0</ele><time>2026-04-18T06:58:43.999Z</time></trkpt><trkpt lat="43.7614596345927" lon="11.333146054382926"><ele>70.0</ele><time>2026-04-18T06:58:44.999Z</time></trkpt><trkpt lat="43.76152447346801" lon="11.333324533253668"><ele>70.0</ele><time>2026-04-18T06:58:45.999Z</time></trkpt><trkpt lat="43.76159294413463" lon="11.333486555302796"><ele>70.25</ele><time>2026-04-18T06:58:46.999Z</time></trkpt><trkpt lat="43.761662669516014" lon="11.333634910196757"><ele>70.5</ele><time>2026-04-18T06:58:47.999Z</time></trkpt><trkpt lat="43.761738511719585" lon="11.333778433073432"><ele>70.75</ele><time>2026-04-18T06:58:48.999Z</time></trkpt><trkpt lat="43.76180992592934" lon="11.333905260912886"><ele>71.0</ele><time>2026-04-18T06:58:49.999Z</time></trkpt><trkpt lat="43.761874108998356" lon="11.334018131979851"><ele>71.0</ele><time>2026-04-18T06:58:50.999Z</time></trkpt><trkpt lat="43.76193564605747" lon="11.33412246733769"><ele>71.0</ele><time>2026-04-18T06:58:51.999Z</time></trkpt><trkpt lat="43.76199776043611" lon="11.334224058849342"><ele>71.0</ele><time>2026-04-18T06:58:52.999Z</time></trkpt><trkpt lat="43.76206615512072" lon="11.334333092150558"><ele>71.0</ele><time>2026-04-18T06:58:53.999Z</time></trkpt><trkpt lat="43.762145081813465" lon="11.33446019083278"><ele>71.0</ele><time>2026-04-18T06:58:54.999Z</time></trkpt><trkpt lat="43.762232313854106" lon="11.334599576307888"><ele>71.66666666666667</ele><time>2026-04-18T06:58:55.999Z</time></trkpt><trkpt lat="43.7623260580867" lon="11.334746822005098"><ele>72.33333333333333</ele><time>2026-04-18T06:58:56.999Z</time></trkpt><trkpt lat="43.76242632139631" lon="11.334906332592832"><ele>73.0</ele><time>2026-04-18T06:58:57.999Z</time></trkpt><trkpt lat="43.762530281369834" lon="11.335074103829662"><ele>73.0</ele><time>2026-04-18T06:58:58.999Z</time></trkpt><trkpt lat="43.76264386123889" lon="11.335262421398083"><ele>73.0</ele><time>2026-04-18T06:59:00Z</time></trkpt><trkpt lat="43.76276070657365" lon="11.335447806926847"><ele>73.0</ele><time>2026-04-18T06:59:01Z</time></trkpt><trkpt lat="43.76287752073529" lon="11.335637414724934"><ele>73.0</ele><time>2026-04-18T06:59:02Z</time></trkpt><trkpt lat="43.762995211189654" lon="11.335840455425153"><ele>73.0</ele><time>2026-04-18T06:59:03Z</time></trkpt><trkpt lat="43.763117081497604" lon="11.33604682971764"><ele>73.0</ele><time>2026-04-18T06:59:04Z</time></trkpt><trkpt lat="43.763232888593805" lon="11.336256966756201"><ele>73.33333333333333</ele><time>2026-04-18T06:59:05Z</time></trkpt><trkpt lat="43.76334223683245" lon="11.336480667281588"><ele>73.66666666666667</ele><time>2026-04-18T06:59:06Z</time></trkpt><trkpt lat="43.76343907094034" lon="11.33671765959603"><ele>74.0</ele><time>2026-04-18T06:59:07Z</time></trkpt><trkpt lat="43.76352729498513" lon="11.336963204855124"><ele>72.0</ele><time>2026-04-18T06:59:08Z</time></trkpt><trkpt lat="43.76360965784704" lon="11.337207832626383"><ele>70.0</ele><time>2026-04-18T06:59:09Z</time></trkpt><trkpt lat="43.763684139063855" lon="11.337437693903565"><ele>68.0</ele><time>2026-04-18T06:59:10Z</time></trkpt><trkpt lat="43.76375423432926" lon="11.337657481645957"><ele>68.0</ele><time>2026-04-18T06:59:11Z</time></trkpt><trkpt lat="43.76382360030419" lon="11.33787442463436"><ele>68.0</ele><time>2026-04-18T06:59:12Z</time></trkpt><trkpt lat="43.76389376323995" lon="11.338087173974813"><ele>68.0</ele><time>2026-04-18T06:59:13Z</time></trkpt><trkpt lat="43.76396189299805" lon="11.338297529991177"><ele>68.0</ele><time>2026-04-18T06:59:14Z</time></trkpt><trkpt lat="43.764031370736866" lon="11.338503746787497"><ele>68.0</ele><time>2026-04-18T06:59:15Z</time></trkpt><trkpt lat="43.76410020080532" lon="11.338711172666754"><ele>68.0</ele><time>2026-04-18T06:59:16Z</time></trkpt><trkpt lat="43.76416397657196" lon="11.338901557312765"><ele>69.0</ele><time>2026-04-18T06:59:17Z</time></trkpt><trkpt lat="43.76422190804796" lon="11.339072086649608"><ele>70.0</ele><time>2026-04-18T06:59:18Z</time></trkpt><trkpt lat="43.76427015004763" lon="11.339215234682452"><ele>71.0</ele><time>2026-04-18T06:59:19Z</time></trkpt><trkpt lat="43.76430638158876" lon="11.339326510422191"><ele>72.0</ele><time>2026-04-18T06:59:20Z</time></trkpt><trkpt lat="43.7643402184721" lon="11.339429030684833"><ele>73.0</ele><time>2026-04-18T06:59:21Z</time></trkpt><trkpt lat="43.76437564579207" lon="11.339533292690417"><ele>70.5</ele><time>2026-04-18T06:59:22Z</time></trkpt><trkpt lat="43.76441832816973" lon="11.339652934338744"><ele>68.0</ele><time>2026-04-18T06:59:23Z</time></trkpt><trkpt lat="43.764467962692876" lon="11.339794252486092"><ele>65.5</ele><time>2026-04-18T06:59:24Z</time></trkpt><trkpt lat="43.764522651801244" lon="11.33994532616877"><ele>63.0</ele><time>2026-04-18T06:59:25Z</time></trkpt><trkpt lat="43.76458990650194" lon="11.34010640810701"><ele>63.0</ele><time>2026-04-18T06:59:26Z</time></trkpt><trkpt lat="43.76466592882874" lon="11.340276921551665"><ele>63.0</ele><time>2026-04-18T06:59:27Z</time></trkpt><trkpt lat="43.76475126908463" lon="11.34046209921743"><ele>63.0</ele><time>2026-04-18T06:59:28Z</time></trkpt><trkpt lat="43.7648492761035" lon="11.340654801621758"><ele>66.0</ele><time>2026-04-18T06:59:29Z</time></trkpt><trkpt lat="43.764953956400156" lon="11.340845265140763"><ele>69.0</ele><time>2026-04-18T06:59:30Z</time></trkpt><trkpt lat="43.76506109827056" lon="11.341030121988123"><ele>72.0</ele><time>2026-04-18T06:59:31Z</time></trkpt><trkpt lat="43.765162145823574" lon="11.341212181350997"><ele>70.33333333333333</ele><time>2026-04-18T06:59:32Z</time></trkpt><trkpt lat="43.765252946052044" lon="11.341397167977933"><ele>68.66666666666666</ele><time>2026-04-18T06:59:33Z</time></trkpt><trkpt lat="43.765340153977164" lon="11.341590235927915"><ele>67.0</ele><time>2026-04-18T06:59:34Z</time></trkpt><trkpt lat="43.765419931597634" lon="11.341787437894043"><ele>67.0</ele><time>2026-04-18T06:59:35Z</time></trkpt><trkpt lat="43.765498141750975" lon="11.341975740490145"><ele>67.0</ele><time>2026-04-18T06:59:36Z</time></trkpt><trkpt lat="43.7655777145978" lon="11.34215200454946"><ele>67.0</ele><time>2026-04-18T06:59:37Z</time></trkpt><trkpt lat="43.765658984935676" lon="11.342320050421375"><ele>67.75</ele><time>2026-04-18T06:59:38Z</time></trkpt><trkpt lat="43.76575104784444" lon="11.342476334448207"><ele>68.5</ele><time>2026-04-18T06:59:39Z</time></trkpt><trkpt lat="43.76585160050862" lon="11.342625958478468"><ele>69.25</ele><time>2026-04-18T06:59:40Z</time></trkpt><trkpt lat="43.76595902145886" lon="11.342772806588028"><ele>70.0</ele><time>2026-04-18T06:59:41Z</time></trkpt><trkpt lat="43.76606634573699" lon="11.342917352038272"><ele>68.66666666666666</ele><time>2026-04-18T06:59:42Z</time></trkpt><trkpt lat="43.76617500678311" lon="11.343063889289962"><ele>67.33333333333333</ele><time>2026-04-18T06:59:43Z</time></trkpt><trkpt lat="43.76628455050551" lon="11.343213078360716"><ele>66.0</ele><time>2026-04-18T06:59:44Z</time></trkpt><trkpt lat="43.766394497412634" lon="11.343367033044196"><ele>66.0</ele><time>2026-04-18T06:59:45Z</time></trkpt><trkpt lat="43.76650355008292" lon="11.343518825642128"><ele>66.0</ele><time>2026-04-18T06:59:46Z</time></trkpt><trkpt lat="43.766616539842126" lon="11.343676227768668"><ele>66.0</ele><time>2026-04-18T06:59:47Z</time></trkpt><trkpt lat="43.76673417013831" lon="11.343831070950154"><ele>65.0</ele><time>2026-04-18T06:59:48Z</time></trkpt><trkpt lat="43.766858027109926" lon="11.343990325207724"><ele>64.0</ele><time>2026-04-18T06:59:49Z</time></trkpt><trkpt lat="43.76699084884961" lon="11.344166860456554"><ele>63.0</ele><time>2026-04-18T06:59:50Z</time></trkpt><trkpt lat="43.767126394340245" lon="11.34435837342063"><ele>63.0</ele><time>2026-04-18T06:59:51Z</time></trkpt><trkpt lat="43.76725641426613" lon="11.344542801606105"><ele>63.0</ele><time>2026-04-18T06:59:52Z</time></trkpt><trkpt lat="43.76738117682744" lon="11.344726010570845"><ele>63.0</ele><time>2026-04-18T06:59:53Z</time></trkpt><trkpt lat="43.76750383568097" lon="11.344896139678385"><ele>62.66666666666667</ele><time>2026-04-18T06:59:54Z</time></trkpt><trkpt lat="43.767622517433274" lon="11.345059172858997"><ele>62.333333333333336</ele><time>2026-04-18T06:59:55Z</time></trkpt><trkpt lat="43.76773624090845" lon="11.345218068315436"><ele>62.0</ele><time>2026-04-18T06:59:56Z</time></trkpt><trkpt lat="43.76784448127086" lon="11.345383802623955"><ele>63.333333333333336</ele><time>2026-04-18T06:59:57Z</time></trkpt><trkpt lat="43.76794623705509" lon="11.345559629424313"><ele>64.66666666666667</ele><time>2026-04-18T06:59:58Z</time></trkpt><trkpt lat="43.76804272271347" lon="11.34574913129253"><ele>66.0</ele><time>2026-04-18T06:59:59Z</time></trkpt><trkpt lat="43.76813222745861" lon="11.345950860523166"><ele>66.0</ele><time>2026-04-18T07:00:00Z</time></trkpt><trkpt lat="43.768218410007" lon="11.346163289146341"><ele>66.0</ele><time>2026-04-18T07:00:01Z</time></trkpt><trkpt lat="43.768304422541156" lon="11.346379478483959"><ele>66.0</ele><time>2026-04-18T07:00:02Z</time></trkpt><trkpt lat="43.76839362750561" lon="11.346600323686737"><ele>65.66666666666667</ele><time>2026-04-18T07:00:03Z</time></trkpt><trkpt lat="43.768480510888445" lon="11.346817054453457"><ele>65.33333333333334</ele><time>2026-04-18T07:00:04Z</time></trkpt><trkpt lat="43.768566102747165" lon="11.347024602108954"><ele>65.0</ele><time>2026-04-18T07:00:05Z</time></trkpt><trkpt lat="43.76864586956053" lon="11.34722743328153"><ele>65.0</ele><time>2026-04-18T07:00:06Z</time></trkpt><trkpt lat="43.768732452053065" lon="11.34743496470166"><ele>65.0</ele><time>2026-04-18T07:00:07Z</time></trkpt><trkpt lat="43.76881844190102" lon="11.347637680369706"><ele>65.0</ele><time>2026-04-18T07:00:08Z</time></trkpt><trkpt lat="43.76890527102005" lon="11.347851643519032"><ele>66.0</ele><time>2026-04-18T07:00:09Z</time></trkpt><trkpt lat="43.76899144611904" lon="11.34806371748527"><ele>67.0</ele><time>2026-04-18T07:00:10Z</time></trkpt><trkpt lat="43.76907705966713" lon="11.34827763500495"><ele>68.0</ele><time>2026-04-18T07:00:11Z</time></trkpt><trkpt lat="43.76916726889161" lon="11.348501338873103"><ele>68.0</ele><time>2026-04-18T07:00:12Z</time></trkpt><trkpt lat="43.769255248995485" lon="11.348715158148021"><ele>68.0</ele><time>2026-04-18T07:00:13Z</time></trkpt><trkpt lat="43.76934462657544" lon="11.348930654230463"><ele>68.0</ele><time>2026-04-18T07:00:14Z</time></trkpt><trkpt lat="43.769428871114215" lon="11.349131218607576"><ele>67.0</ele><time>2026-04-18T07:00:15Z</time></trkpt><trkpt lat="43.76951465671146" lon="11.349334446357105"><ele>66.0</ele><time>2026-04-18T07:00:16Z</time></trkpt><trkpt lat="43.76959969765728" lon="11.34953983010361"><ele>65.0</ele><time>2026-04-18T07:00:17Z</time></trkpt><trkpt lat="43.76968434531616" lon="11.349749215697413"><ele>65.0</ele><time>2026-04-18T07:00:18Z</time></trkpt><trkpt lat="43.769769804300005" lon="11.349960999263027"><ele>65.0</ele><time>2026-04-18T07:00:19Z</time></trkpt><trkpt lat="43.7698568811696" lon="11.35017676693289"><ele>65.0</ele><time>2026-04-18T07:00:20Z</time></trkpt><trkpt lat="43.76994509068366" lon="11.350397060374748"><ele>64.33333333333334</ele><time>2026-04-18T07:00:21Z</time></trkpt><trkpt lat="43.77003789541904" lon="11.35062024655126"><ele>63.66666666666667</ele><time>2026-04-18T07:00:22Z</time></trkpt><trkpt lat="43.77013274764318" lon="11.350849403937055"><ele>63.0</ele><time>2026-04-18T07:00:23Z</time></trkpt><trkpt lat="43.77022713966791" lon="11.35108070239015"><ele>63.0</ele><time>2026-04-18T07:00:24Z</time></trkpt><trkpt lat="43.77031525494488" lon="11.35130727633256"><ele>63.0</ele><time>2026-04-18T07:00:24.999Z</time></trkpt><trkpt lat="43.770396650087775" lon="11.351536245078295"><ele>63.0</ele><time>2026-04-18T07:00:25.999Z</time></trkpt><trkpt lat="43.770479358825725" lon="11.351769732442916"><ele>63.66666666666667</ele><time>2026-04-18T07:00:26.999Z</time></trkpt><trkpt lat="43.77054885874862" lon="11.351995223472416"><ele>64.33333333333334</ele><time>2026-04-18T07:00:27.999Z</time></trkpt><trkpt lat="43.77070478247024" lon="11.352251872573975"><ele>65.0</ele><time>2026-04-18T07:00:28.999Z</time></trkpt><trkpt lat="43.77079204696797" lon="11.352488022412194"><ele>66.66666666666667</ele><time>2026-04-18T07:00:29.999Z</time></trkpt><trkpt lat="43.7708803850406" lon="11.35272359637927"><ele>68.33333333333333</ele><time>2026-04-18T07:00:30.999Z</time></trkpt><trkpt lat="43.77095345256174" lon="11.352961504689674"><ele>70.0</ele><time>2026-04-18T07:00:31.999Z</time></trkpt><trkpt lat="43.77101943052766" lon="11.35320903348741"><ele>68.0</ele><time>2026-04-18T07:00:32.999Z</time></trkpt><trkpt lat="43.771086768498776" lon="11.353452593290903"><ele>66.0</ele><time>2026-04-18T07:00:33.999Z</time></trkpt><trkpt lat="43.771157395959435" lon="11.353689204742148"><ele>64.0</ele><time>2026-04-18T07:00:34.999Z</time></trkpt><trkpt lat="43.77122972059958" lon="11.353921998672478"><ele>63.666666666666664</ele><time>2026-04-18T07:00:35.999Z</time></trkpt><trkpt lat="43.771299034032964" lon="11.354159440953211"><ele>63.33333333333333</ele><time>2026-04-18T07:00:36.999Z</time></trkpt><trkpt lat="43.77135576632989" lon="11.354404277589767"><ele>63.0</ele><time>2026-04-18T07:00:37.999Z</time></trkpt><trkpt lat="43.77141210167004" lon="11.354656213258423"><ele>64.0</ele><time>2026-04-18T07:00:38.999Z</time></trkpt><trkpt lat="43.7714617710038" lon="11.354904202478501"><ele>65.0</ele><time>2026-04-18T07:00:39.999Z</time></trkpt><trkpt lat="43.77150697249531" lon="11.355153529892329"><ele>66.0</ele><time>2026-04-18T07:00:40.999Z</time></trkpt><trkpt lat="43.77154187652934" lon="11.355404697282605"><ele>66.0</ele><time>2026-04-18T07:00:41.999Z</time></trkpt><trkpt lat="43.771572697624144" lon="11.35565679576211"><ele>66.0</ele><time>2026-04-18T07:00:42.999Z</time></trkpt><trkpt lat="43.77159476003024" lon="11.35591304186635"><ele>66.0</ele><time>2026-04-18T07:00:43.999Z</time></trkpt><trkpt lat="43.77161121425769" lon="11.356164523566765"><ele>66.33333333333333</ele><time>2026-04-18T07:00:44.999Z</time></trkpt><trkpt lat="43.77160220920744" lon="11.356419296936943"><ele>66.66666666666666</ele><time>2026-04-18T07:00:45.999Z</time></trkpt><trkpt lat="43.771592831476504" lon="11.356668005328425"><ele>67.0</ele><time>2026-04-18T07:00:46.999Z</time></trkpt><trkpt lat="43.77156952034852" lon="11.356925610317099"><ele>67.0</ele><time>2026-04-18T07:00:47.999Z</time></trkpt><trkpt lat="43.77153483671471" lon="11.357178606461504"><ele>67.0</ele><time>2026-04-18T07:00:48.999Z</time></trkpt><trkpt lat="43.77150443835961" lon="11.357429223691364"><ele>67.0</ele><time>2026-04-18T07:00:49.999Z</time></trkpt><trkpt lat="43.77148961977885" lon="11.357662762893327"><ele>67.33333333333333</ele><time>2026-04-18T07:00:50.999Z</time></trkpt><trkpt lat="43.77149838569442" lon="11.357881465246084"><ele>67.66666666666667</ele><time>2026-04-18T07:00:51.999Z</time></trkpt><trkpt lat="43.771534808744406" lon="11.35808241193993"><ele>68.0</ele><time>2026-04-18T07:00:52.999Z</time></trkpt><trkpt lat="43.771566360689654" lon="11.358285796890339"><ele>68.0</ele><time>2026-04-18T07:00:53.999Z</time></trkpt><trkpt lat="43.77159974279712" lon="11.358492704496399"><ele>68.0</ele><time>2026-04-18T07:00:54.999Z</time></trkpt><trkpt lat="43.77163230772064" lon="11.358707672975598"><ele>68.0</ele><time>2026-04-18T07:00:55.999Z</time></trkpt><trkpt lat="43.77166011326269" lon="11.358931542580153"><ele>68.33333333333334</ele><time>2026-04-18T07:00:56.999Z</time></trkpt><trkpt lat="43.77168636970765" lon="11.359152296421541"><ele>68.66666666666667</ele><time>2026-04-18T07:00:57.999Z</time></trkpt><trkpt lat="43.77170495035545" lon="11.359370911517209"><ele>69.0</ele><time>2026-04-18T07:00:58.999Z</time></trkpt><trkpt lat="43.771722461618786" lon="11.359587182932874"><ele>69.0</ele><time>2026-04-18T07:00:59.999Z</time></trkpt><trkpt lat="43.771732234643196" lon="11.359798889242784"><ele>69.0</ele><time>2026-04-18T07:01:00.999Z</time></trkpt><trkpt lat="43.77174297445096" lon="11.36000056858016"><ele>69.0</ele><time>2026-04-18T07:01:01.999Z</time></trkpt><trkpt lat="43.771751372584156" lon="11.360194988341545"><ele>69.0</ele><time>2026-04-18T07:01:02.999Z</time></trkpt><trkpt lat="43.77177379097522" lon="11.360386859786908"><ele>70.0</ele><time>2026-04-18T07:01:03.999Z</time></trkpt><trkpt lat="43.77181962447771" lon="11.36058169446493"><ele>71.0</ele><time>2026-04-18T07:01:05Z</time></trkpt><trkpt lat="43.77188239390023" lon="11.360779999320211"><ele>72.0</ele><time>2026-04-18T07:01:06Z</time></trkpt><trkpt lat="43.77195288908876" lon="11.36096064829397"><ele>71.0</ele><time>2026-04-18T07:01:07Z</time></trkpt><trkpt lat="43.77201649172179" lon="11.361118965967083"><ele>70.0</ele><time>2026-04-18T07:01:08Z</time></trkpt><trkpt lat="43.77207181705889" lon="11.361271214180395"><ele>69.0</ele><time>2026-04-18T07:01:09Z</time></trkpt><trkpt lat="43.77210619935805" lon="11.36142901899123"><ele>68.0</ele><time>2026-04-18T07:01:10Z</time></trkpt><trkpt lat="43.772135990374046" lon="11.361591386261862"><ele>68.0</ele><time>2026-04-18T07:01:11Z</time></trkpt><trkpt lat="43.77216787679281" lon="11.361736061502352"><ele>68.0</ele><time>2026-04-18T07:01:12Z</time></trkpt><trkpt lat="43.77220889702892" lon="11.361860914963183"><ele>68.0</ele><time>2026-04-18T07:01:13Z</time></trkpt><trkpt lat="43.77226526996223" lon="11.361964679582126"><ele>68.0</ele><time>2026-04-18T07:01:14Z</time></trkpt><trkpt lat="43.77233281346336" lon="11.362039162887434"><ele>68.0</ele><time>2026-04-18T07:01:15Z</time></trkpt><trkpt lat="43.77240460719052" lon="11.36209255842012"><ele>68.0</ele><time>2026-04-18T07:01:16Z</time></trkpt><trkpt lat="43.772477805537214" lon="11.362138276683696"><ele>68.0</ele><time>2026-04-18T07:01:17Z</time></trkpt><trkpt lat="43.772557087654455" lon="11.362182915660554"><ele>68.0</ele><time>2026-04-18T07:01:18Z</time></trkpt><trkpt lat="43.772637820009756" lon="11.362223325378936"><ele>68.0</ele><time>2026-04-18T07:01:19Z</time></trkpt><trkpt lat="43.772722645877494" lon="11.362260816888108"><ele>68.0</ele><time>2026-04-18T07:01:20Z</time></trkpt><trkpt lat="43.77281246980747" lon="11.362276027772365"><ele>68.0</ele><time>2026-04-18T07:01:21Z</time></trkpt><trkpt lat="43.77291671461343" lon="11.362305360675842"><ele>68.25</ele><time>2026-04-18T07:01:22Z</time></trkpt><trkpt lat="43.77303568435034" lon="11.362337546467014"><ele>68.5</ele><time>2026-04-18T07:01:23Z</time></trkpt><trkpt lat="43.77315763060799" lon="11.36236656128734"><ele>68.75</ele><time>2026-04-18T07:01:24Z</time></trkpt><trkpt lat="43.77328374597677" lon="11.362403213987086"><ele>69.0</ele><time>2026-04-18T07:01:25Z</time></trkpt><trkpt lat="43.773406913794545" lon="11.362439970109707"><ele>69.0</ele><time>2026-04-18T07:01:26Z</time></trkpt><trkpt lat="43.7735175369989" lon="11.362468640479873"><ele>69.0</ele><time>2026-04-18T07:01:27Z</time></trkpt><trkpt lat="43.773620983061804" lon="11.362497955700931"><ele>69.0</ele><time>2026-04-18T07:01:28Z</time></trkpt><trkpt lat="43.773723158239875" lon="11.362526745826164"><ele>69.0</ele><time>2026-04-18T07:01:29Z</time></trkpt><trkpt lat="43.77382828253054" lon="11.362556492434932"><ele>69.0</ele><time>2026-04-18T07:01:30Z</time></trkpt><trkpt lat="43.773937327518595" lon="11.362587526530307"><ele>68.25</ele><time>2026-04-18T07:01:31Z</time></trkpt><trkpt lat="43.7740522151753" lon="11.362620246261566"><ele>67.5</ele><time>2026-04-18T07:01:32Z</time></trkpt><trkpt lat="43.77417110678489" lon="11.36265143476529"><ele>66.75</ele><time>2026-04-18T07:01:33Z</time></trkpt><trkpt lat="43.77429819675414" lon="11.362683862895608"><ele>66.0</ele><time>2026-04-18T07:01:34Z</time></trkpt><trkpt lat="43.77442603761216" lon="11.362718276806772"><ele>66.0</ele><time>2026-04-18T07:01:35Z</time></trkpt><trkpt lat="43.77454444861244" lon="11.36275399018738"><ele>66.0</ele><time>2026-04-18T07:01:36Z</time></trkpt><trkpt lat="43.77465250494586" lon="11.362782073737666"><ele>66.0</ele><time>2026-04-18T07:01:37Z</time></trkpt><trkpt lat="43.77475973401337" lon="11.36281131528655"><ele>66.0</ele><time>2026-04-18T07:01:38Z</time></trkpt><trkpt lat="43.77487327365934" lon="11.362837787778828"><ele>66.0</ele><time>2026-04-18T07:01:39Z</time></trkpt><trkpt lat="43.77499245596633" lon="11.362871187972114"><ele>66.0</ele><time>2026-04-18T07:01:40Z</time></trkpt><trkpt lat="43.775117561143816" lon="11.36290652664567"><ele>66.0</ele><time>2026-04-18T07:01:41Z</time></trkpt><trkpt lat="43.7752353755107" lon="11.362913064358846"><ele>66.0</ele><time>2026-04-18T07:01:42Z</time></trkpt><trkpt lat="43.775349435593235" lon="11.362964514622755"><ele>66.25</ele><time>2026-04-18T07:01:43Z</time></trkpt><trkpt lat="43.77546221249755" lon="11.36299223612556"><ele>66.5</ele><time>2026-04-18T07:01:44Z</time></trkpt><trkpt lat="43.775574071725394" lon="11.363029781464588"><ele>66.75</ele><time>2026-04-18T07:01:45Z</time></trkpt><trkpt lat="43.77569204028582" lon="11.363071382316674"><ele>67.0</ele><time>2026-04-18T07:01:46Z</time></trkpt><trkpt lat="43.77581301627479" lon="11.363119476511855"><ele>67.5</ele><time>2026-04-18T07:01:47Z</time></trkpt><trkpt lat="43.775941945815326" lon="11.363175457314838"><ele>68.0</ele><time>2026-04-18T07:01:48Z</time></trkpt><trkpt lat="43.776075658305736" lon="11.363215378274317"><ele>68.5</ele><time>2026-04-18T07:01:49Z</time></trkpt><trkpt lat="43.77622345263982" lon="11.363309868754028"><ele>69.0</ele><time>2026-04-18T07:01:50Z</time></trkpt><trkpt lat="43.776365597309336" lon="11.363389260041204"><ele>69.0</ele><time>2026-04-18T07:01:51Z</time></trkpt><trkpt lat="43.77651629634593" lon="11.363470526188914"><ele>69.0</ele><time>2026-04-18T07:01:52Z</time></trkpt><trkpt lat="43.776664215625544" lon="11.363546729158564"><ele>69.0</ele><time>2026-04-18T07:01:53Z</time></trkpt><trkpt lat="43.77681843901036" lon="11.363631600227828"><ele>69.25</ele><time>2026-04-18T07:01:54Z</time></trkpt><trkpt lat="43.77695948918841" lon="11.363693380521585"><ele>69.5</ele><time>2026-04-18T07:01:55Z</time></trkpt><trkpt lat="43.77709131228563" lon="11.363766301915872"><ele>69.75</ele><time>2026-04-18T07:01:56Z</time></trkpt><trkpt lat="43.77722336446199" lon="11.363816998459475"><ele>70.0</ele><time>2026-04-18T07:01:57Z</time></trkpt><trkpt lat="43.777358690968555" lon="11.363839710567792"><ele>71.0</ele><time>2026-04-18T07:01:58Z</time></trkpt><trkpt lat="43.77749759499868" lon="11.363863585945383"><ele>72.0</ele><time>2026-04-18T07:01:59Z</time></trkpt><trkpt lat="43.77763641601456" lon="11.363879331521199"><ele>73.0</ele><time>2026-04-18T07:02:00Z</time></trkpt><trkpt lat="43.777774856399304" lon="11.36388525899418"><ele>74.0</ele><time>2026-04-18T07:02:01Z</time></trkpt><trkpt lat="43.777911531603976" lon="11.363887598886654"><ele>75.25</ele><time>2026-04-18T07:02:02Z</time></trkpt><trkpt lat="43.77804658971655" lon="11.363883647117857"><ele>76.5</ele><time>2026-04-18T07:02:03Z</time></trkpt><trkpt lat="43.77817890372612" lon="11.363875278409026"><ele>77.75</ele><time>2026-04-18T07:02:04Z</time></trkpt><trkpt lat="43.77830514277372" lon="11.363874740076692"><ele>79.0</ele><time>2026-04-18T07:02:05Z</time></trkpt><trkpt lat="43.77842912658387" lon="11.363877030314207"><ele>79.25</ele><time>2026-04-18T07:02:06Z</time></trkpt><trkpt lat="43.77854405775839" lon="11.36388434510249"><ele>79.5</ele><time>2026-04-18T07:02:07Z</time></trkpt><trkpt lat="43.77866585765836" lon="11.363896797153464"><ele>79.75</ele><time>2026-04-18T07:02:08Z</time></trkpt><trkpt lat="43.77879317837635" lon="11.363916465104614"><ele>80.0</ele><time>2026-04-18T07:02:09Z</time></trkpt><trkpt lat="43.77893259932446" lon="11.363938107161832"><ele>80.0</ele><time>2026-04-18T07:02:10Z</time></trkpt><trkpt lat="43.779069973744214" lon="11.363965641698021"><ele>80.0</ele><time>2026-04-18T07:02:11Z</time></trkpt><trkpt lat="43.77918657986594" lon="11.363979034669443"><ele>80.0</ele><time>2026-04-18T07:02:12Z</time></trkpt><trkpt lat="43.77931083469818" lon="11.36403075918979"><ele>80.0</ele><time>2026-04-18T07:02:13Z</time></trkpt><trkpt lat="43.779443359380345" lon="11.364077396471966"><ele>80.5</ele><time>2026-04-18T07:02:14Z</time></trkpt><trkpt lat="43.77957152700536" lon="11.36411552140948"><ele>81.0</ele><time>2026-04-18T07:02:15Z</time></trkpt><trkpt lat="43.77969836991786" lon="11.36415938480517"><ele>81.5</ele><time>2026-04-18T07:02:16Z</time></trkpt><trkpt lat="43.77982628579256" lon="11.364212689318254"><ele>82.0</ele><time>2026-04-18T07:02:17Z</time></trkpt><trkpt lat="43.779952734773985" lon="11.364268845071468"><ele>82.0</ele><time>2026-04-18T07:02:18Z</time></trkpt><trkpt lat="43.78008003790857" lon="11.36432581910693"><ele>82.0</ele><time>2026-04-18T07:02:19Z</time></trkpt><trkpt lat="43.780207684797695" lon="11.364381311351691"><ele>82.0</ele><time>2026-04-18T07:02:20Z</time></trkpt><trkpt lat="43.78033524666794" lon="11.364430111706435"><ele>82.0</ele><time>2026-04-18T07:02:21Z</time></trkpt><trkpt lat="43.78046296329966" lon="11.364486780056806"><ele>81.25</ele><time>2026-04-18T07:02:21.999Z</time></trkpt><trkpt lat="43.78059088341546" lon="11.364545491804078"><ele>80.5</ele><time>2026-04-18T07:02:22.999Z</time></trkpt><trkpt lat="43.78071596679208" lon="11.364585981449464"><ele>79.75</ele><time>2026-04-18T07:02:23.999Z</time></trkpt><trkpt lat="43.78083391201942" lon="11.364652245146543"><ele>79.0</ele><time>2026-04-18T07:02:24.999Z</time></trkpt><trkpt lat="43.7809793816752" lon="11.364749409785468"><ele>79.0</ele><time>2026-04-18T07:02:25.999Z</time></trkpt><trkpt lat="43.78112135917859" lon="11.36484468223001"><ele>79.0</ele><time>2026-04-18T07:02:26.999Z</time></trkpt><trkpt lat="43.7812661008063" lon="11.364945794346449"><ele>79.0</ele><time>2026-04-18T07:02:27.999Z</time></trkpt><trkpt lat="43.781402223228035" lon="11.365067085282641"><ele>79.0</ele><time>2026-04-18T07:02:28.999Z</time></trkpt><trkpt lat="43.78153913386521" lon="11.365192430437325"><ele>79.0</ele><time>2026-04-18T07:02:29.999Z</time></trkpt><trkpt lat="43.781671729785494" lon="11.365318297669624"><ele>79.0</ele><time>2026-04-18T07:02:30.999Z</time></trkpt><trkpt lat="43.78179457323394" lon="11.365438369589166"><ele>77.75</ele><time>2026-04-18T07:02:31.999Z</time></trkpt><trkpt lat="43.78191062612017" lon="11.365552719711365"><ele>76.5</ele><time>2026-04-18T07:02:32.999Z</time></trkpt><trkpt lat="43.78202103004622" lon="11.365666759075287"><ele>75.25</ele><time>2026-04-18T07:02:33.999Z</time></trkpt><trkpt lat="43.78213095550042" lon="11.365785409818416"><ele>74.0</ele><time>2026-04-18T07:02:34.999Z</time></trkpt><trkpt lat="43.782240028653966" lon="11.365916277263535"><ele>74.0</ele><time>2026-04-18T07:02:35.999Z</time></trkpt><trkpt lat="43.78234764251363" lon="11.36607024131441"><ele>74.0</ele><time>2026-04-18T07:02:36.999Z</time></trkpt><trkpt lat="43.78244758072827" lon="11.366244448617289"><ele>74.0</ele><time>2026-04-18T07:02:37.999Z</time></trkpt><trkpt lat="43.78254253786136" lon="11.366439758255828"><ele>75.66666666666667</ele><time>2026-04-18T07:02:38.999Z</time></trkpt><trkpt lat="43.78261867924493" lon="11.366632309094339"><ele>77.33333333333333</ele><time>2026-04-18T07:02:39.999Z</time></trkpt><trkpt lat="43.7826852260347" lon="11.366821992444203"><ele>79.0</ele><time>2026-04-18T07:02:40.999Z</time></trkpt><trkpt lat="43.78273834685403" lon="11.367011099471691"><ele>76.5</ele><time>2026-04-18T07:02:41.999Z</time></trkpt><trkpt lat="43.78278602982548" lon="11.367203564839546"><ele>74.0</ele><time>2026-04-18T07:02:42.999Z</time></trkpt><trkpt lat="43.78282030623113" lon="11.367395826508659"><ele>71.5</ele><time>2026-04-18T07:02:43.999Z</time></trkpt><trkpt lat="43.78284568588209" lon="11.36758560432007"><ele>69.0</ele><time>2026-04-18T07:02:44.999Z</time></trkpt><trkpt lat="43.782864041289486" lon="11.36779012159267"><ele>69.0</ele><time>2026-04-18T07:02:45.999Z</time></trkpt><trkpt lat="43.782870721544114" lon="11.36800481407382"><ele>69.0</ele><time>2026-04-18T07:02:46.999Z</time></trkpt><trkpt lat="43.782864063866604" lon="11.368220231771575"><ele>69.0</ele><time>2026-04-18T07:02:47.999Z</time></trkpt><trkpt lat="43.7828530018503" lon="11.368434789579483"><ele>68.66666666666667</ele><time>2026-04-18T07:02:48.999Z</time></trkpt><trkpt lat="43.782834379152085" lon="11.368647725368556"><ele>68.33333333333334</ele><time>2026-04-18T07:02:49.999Z</time></trkpt><trkpt lat="43.78281563679971" lon="11.368855826677736"><ele>68.0</ele><time>2026-04-18T07:02:50.999Z</time></trkpt><trkpt lat="43.78279130954589" lon="11.369067123529993"><ele>68.0</ele><time>2026-04-18T07:02:51.999Z</time></trkpt><trkpt lat="43.78277331364269" lon="11.369273154508294"><ele>68.0</ele><time>2026-04-18T07:02:52.999Z</time></trkpt><trkpt lat="43.78275762144803" lon="11.369478170250241"><ele>68.0</ele><time>2026-04-18T07:02:53.999Z</time></trkpt><trkpt lat="43.782739611621345" lon="11.369681828055738"><ele>68.0</ele><time>2026-04-18T07:02:54.999Z</time></trkpt><trkpt lat="43.782719597660055" lon="11.369879841609002"><ele>67.5</ele><time>2026-04-18T07:02:55.999Z</time></trkpt><trkpt lat="43.78270153469562" lon="11.370080919092366"><ele>67.0</ele><time>2026-04-18T07:02:56.999Z</time></trkpt><trkpt lat="43.78268886983792" lon="11.37027881348975"><ele>66.5</ele><time>2026-04-18T07:02:57.999Z</time></trkpt><trkpt lat="43.78266805755183" lon="11.370466505238415"><ele>66.0</ele><time>2026-04-18T07:02:58.999Z</time></trkpt><trkpt lat="43.78264668583287" lon="11.370654885557869"><ele>69.0</ele><time>2026-04-18T07:02:59.999Z</time></trkpt><trkpt lat="43.78263170932535" lon="11.370850709494542"><ele>72.0</ele><time>2026-04-18T07:03:00.999Z</time></trkpt><trkpt lat="43.782609727572996" lon="11.37105825650667"><ele>75.0</ele><time>2026-04-18T07:03:01.999Z</time></trkpt><trkpt lat="43.782587401739484" lon="11.371261829111862"><ele>78.0</ele><time>2026-04-18T07:03:02.999Z</time></trkpt><trkpt lat="43.78256633727395" lon="11.371477112416706"><ele>78.0</ele><time>2026-04-18T07:03:03.999Z</time></trkpt><trkpt lat="43.782547295886225" lon="11.371689647872302"><ele>78.0</ele><time>2026-04-18T07:03:04.999Z</time></trkpt><trkpt lat="43.782536430355435" lon="11.37190986530227"><ele>78.0</ele><time>2026-04-18T07:03:05.999Z</time></trkpt><trkpt lat="43.78253004723559" lon="11.372129893208353"><ele>79.0</ele><time>2026-04-18T07:03:06.999Z</time></trkpt><trkpt lat="43.78253266531139" lon="11.372346712421544"><ele>80.0</ele><time>2026-04-18T07:03:07.999Z</time></trkpt><trkpt lat="43.782534883495345" lon="11.372560012292066"><ele>81.0</ele><time>2026-04-18T07:03:08.999Z</time></trkpt><trkpt lat="43.78254156537766" lon="11.372780291663302"><ele>81.0</ele><time>2026-04-18T07:03:09.999Z</time></trkpt><trkpt lat="43.78254933406769" lon="11.373005602234231"><ele>81.0</ele><time>2026-04-18T07:03:11Z</time></trkpt><trkpt lat="43.78255763595712" lon="11.373232481689078"><ele>81.0</ele><time>2026-04-18T07:03:12Z</time></trkpt><trkpt lat="43.78256466051789" lon="11.373461330741026"><ele>80.66666666666667</ele><time>2026-04-18T07:03:13Z</time></trkpt><trkpt lat="43.78256824891988" lon="11.373690379834288"><ele>80.33333333333334</ele><time>2026-04-18T07:03:14Z</time></trkpt><trkpt lat="43.7825723632523" lon="11.373914616547058"><ele>80.0</ele><time>2026-04-18T07:03:15Z</time></trkpt><trkpt lat="43.78257711257008" lon="11.37412835300072"><ele>80.0</ele><time>2026-04-18T07:03:16Z</time></trkpt><trkpt lat="43.78258412990847" lon="11.374327550340377"><ele>80.0</ele><time>2026-04-18T07:03:17Z</time></trkpt><trkpt lat="43.782593748082206" lon="11.374525807296745"><ele>80.0</ele><time>2026-04-18T07:03:18Z</time></trkpt><trkpt lat="43.78260682423975" lon="11.374725191068695"><ele>80.0</ele><time>2026-04-18T07:03:19Z</time></trkpt><trkpt lat="43.78262540443394" lon="11.374928215052853"><ele>78.33333333333334</ele><time>2026-04-18T07:03:20Z</time></trkpt><trkpt lat="43.78264975464524" lon="11.375135850249643"><ele>76.66666666666667</ele><time>2026-04-18T07:03:21Z</time></trkpt><trkpt lat="43.78267705371722" lon="11.37534887480292"><ele>75.0</ele><time>2026-04-18T07:03:22Z</time></trkpt><trkpt lat="43.78270885417209" lon="11.37556700478943"><ele>75.0</ele><time>2026-04-18T07:03:23Z</time></trkpt><trkpt lat="43.78274996996745" lon="11.375789139447717"><ele>75.0</ele><time>2026-04-18T07:03:24Z</time></trkpt><trkpt lat="43.78279961916145" lon="11.376013190344878"><ele>75.0</ele><time>2026-04-18T07:03:25Z</time></trkpt><trkpt lat="43.78285370884498" lon="11.376241590701998"><ele>78.0</ele><time>2026-04-18T07:03:26Z</time></trkpt><trkpt lat="43.78290772867455" lon="11.37646727098394"><ele>81.0</ele><time>2026-04-18T07:03:27Z</time></trkpt><trkpt lat="43.78296978255581" lon="11.376684716961654"><ele>84.0</ele><time>2026-04-18T07:03:28Z</time></trkpt><trkpt lat="43.78303230828836" lon="11.376899492386706"><ele>84.0</ele><time>2026-04-18T07:03:29Z</time></trkpt><trkpt lat="43.78309113957275" lon="11.377112717641959"><ele>84.0</ele><time>2026-04-18T07:03:30Z</time></trkpt><trkpt lat="43.78315208532976" lon="11.377322559292889"><ele>84.0</ele><time>2026-04-18T07:03:31Z</time></trkpt><trkpt lat="43.78321149676639" lon="11.377531129909057"><ele>86.66666666666667</ele><time>2026-04-18T07:03:32Z</time></trkpt><trkpt lat="43.78326933124925" lon="11.37773524343603"><ele>89.33333333333334</ele><time>2026-04-18T07:03:33Z</time></trkpt><trkpt lat="43.78332595009096" lon="11.377933382277462"><ele>92.0</ele><time>2026-04-18T07:03:34Z</time></trkpt><trkpt lat="43.78338109136399" lon="11.378129081975239"><ele>93.25</ele><time>2026-04-18T07:03:35Z</time></trkpt><trkpt lat="43.783439041886375" lon="11.378321362085282"><ele>94.5</ele><time>2026-04-18T07:03:36Z</time></trkpt><trkpt lat="43.78349007596889" lon="11.378511359951057"><ele>95.75</ele><time>2026-04-18T07:03:37Z</time></trkpt><trkpt lat="43.78353737650761" lon="11.378699472509213"><ele>97.0</ele><time>2026-04-18T07:03:38Z</time></trkpt><trkpt lat="43.78357623040011" lon="11.378890809998687"><ele>89.66666666666667</ele><time>2026-04-18T07:03:39Z</time></trkpt><trkpt lat="43.7836115106835" lon="11.379085589983417"><ele>82.33333333333334</ele><time>2026-04-18T07:03:40Z</time></trkpt><trkpt lat="43.78364613705817" lon="11.379290841597898"><ele>75.0</ele><time>2026-04-18T07:03:41Z</time></trkpt><trkpt lat="43.78368882198397" lon="11.379499780993333"><ele>76.33333333333333</ele><time>2026-04-18T07:03:42Z</time></trkpt><trkpt lat="43.78374364262368" lon="11.379710522684073"><ele>77.66666666666666</ele><time>2026-04-18T07:03:43Z</time></trkpt><trkpt lat="43.783808735221804" lon="11.37992281600448"><ele>79.0</ele><time>2026-04-18T07:03:44Z</time></trkpt><trkpt lat="43.78387736990773" lon="11.380146302902238"><ele>79.0</ele><time>2026-04-18T07:03:45Z</time></trkpt><trkpt lat="43.78394686197188" lon="11.380371631332544"><ele>79.0</ele><time>2026-04-18T07:03:46Z</time></trkpt><trkpt lat="43.78402278304184" lon="11.380593364225811"><ele>79.0</ele><time>2026-04-18T07:03:47Z</time></trkpt><trkpt lat="43.78410705724042" lon="11.380805383420029"><ele>80.66666666666666</ele><time>2026-04-18T07:03:48Z</time></trkpt><trkpt lat="43.78419727197809" lon="11.38100833855876"><ele>82.33333333333333</ele><time>2026-04-18T07:03:49Z</time></trkpt><trkpt lat="43.78428988826869" lon="11.381207723404366"><ele>84.0</ele><time>2026-04-18T07:03:50Z</time></trkpt><trkpt lat="43.784375456179866" lon="11.381398135886291"><ele>79.66666666666667</ele><time>2026-04-18T07:03:51Z</time></trkpt><trkpt lat="43.78446214058398" lon="11.381581734919921"><ele>75.33333333333334</ele><time>2026-04-18T07:03:52Z</time></trkpt><trkpt lat="43.784547809863135" lon="11.381761771647117"><ele>71.0</ele><time>2026-04-18T07:03:53Z</time></trkpt><trkpt lat="43.7846389568312" lon="11.381936487302776"><ele>71.0</ele><time>2026-04-18T07:03:54Z</time></trkpt><trkpt lat="43.784739024517954" lon="11.382102473768915"><ele>71.0</ele><time>2026-04-18T07:03:55Z</time></trkpt><trkpt lat="43.7848530552035" lon="11.382259773138923"><ele>71.0</ele><time>2026-04-18T07:03:56Z</time></trkpt><trkpt lat="43.78497942809443" lon="11.382399960342575"><ele>71.0</ele><time>2026-04-18T07:03:57Z</time></trkpt><trkpt lat="43.7851180369825" lon="11.382525351521268"><ele>71.0</ele><time>2026-04-18T07:03:58Z</time></trkpt><trkpt lat="43.78525645867184" lon="11.382627316005276"><ele>71.0</ele><time>2026-04-18T07:03:59Z</time></trkpt><trkpt lat="43.78539322830282" lon="11.382720475796742"><ele>71.0</ele><time>2026-04-18T07:04:00Z</time></trkpt><trkpt lat="43.78551903808079" lon="11.382817948524032"><ele>71.0</ele><time>2026-04-18T07:04:01Z</time></trkpt><trkpt lat="43.78563974658478" lon="11.382933040036578"><ele>71.0</ele><time>2026-04-18T07:04:02Z</time></trkpt><trkpt lat="43.785761928574026" lon="11.383059009129099"><ele>71.0</ele><time>2026-04-18T07:04:03Z</time></trkpt><trkpt lat="43.78587867296376" lon="11.38320065997289"><ele>71.0</ele><time>2026-04-18T07:04:04Z</time></trkpt><trkpt lat="43.785986812632494" lon="11.38335586544935"><ele>71.0</ele><time>2026-04-18T07:04:05Z</time></trkpt><trkpt lat="43.7860885206092" lon="11.383521263293751"><ele>71.0</ele><time>2026-04-18T07:04:06Z</time></trkpt><trkpt lat="43.786186064744335" lon="11.383689670070424"><ele>72.66666666666667</ele><time>2026-04-18T07:04:07Z</time></trkpt><trkpt lat="43.78627616192507" lon="11.383858038429686"><ele>74.33333333333333</ele><time>2026-04-18T07:04:08Z</time></trkpt><trkpt lat="43.786358237277106" lon="11.38403092805645"><ele>76.0</ele><time>2026-04-18T07:04:09Z</time></trkpt><trkpt lat="43.78643478440574" lon="11.384208461758268"><ele>76.0</ele><time>2026-04-18T07:04:10Z</time></trkpt><trkpt lat="43.78650581673576" lon="11.38439292438102"><ele>76.0</ele><time>2026-04-18T07:04:11Z</time></trkpt><trkpt lat="43.786569157345134" lon="11.384585968802712"><ele>76.0</ele><time>2026-04-18T07:04:12Z</time></trkpt><trkpt lat="43.786620020366705" lon="11.384780295432146"><ele>76.5</ele><time>2026-04-18T07:04:13Z</time></trkpt><trkpt lat="43.78666025783306" lon="11.384977557470519"><ele>77.0</ele><time>2026-04-18T07:04:14Z</time></trkpt><trkpt lat="43.7866870720167" lon="11.385175880972753"><ele>77.5</ele><time>2026-04-18T07:04:15Z</time></trkpt><trkpt lat="43.78670385130752" lon="11.385369982165356"><ele>78.0</ele><time>2026-04-18T07:04:16Z</time></trkpt><trkpt lat="43.78671984601634" lon="11.385567397221493"><ele>78.25</ele><time>2026-04-18T07:04:17Z</time></trkpt><trkpt lat="43.78673894222653" lon="11.385781224528824"><ele>78.5</ele><time>2026-04-18T07:04:18Z</time></trkpt><trkpt lat="43.78675158324115" lon="11.385980827202534"><ele>78.75</ele><time>2026-04-18T07:04:19Z</time></trkpt><trkpt lat="43.7867650104377" lon="11.386182474290312"><ele>79.0</ele><time>2026-04-18T07:04:20Z</time></trkpt><trkpt lat="43.78677747767487" lon="11.386385899545532"><ele>79.5</ele><time>2026-04-18T07:04:21Z</time></trkpt><trkpt lat="43.78678924768958" lon="11.386592620630152"><ele>80.0</ele><time>2026-04-18T07:04:22Z</time></trkpt><trkpt lat="43.78680314236828" lon="11.386798003537566"><ele>80.5</ele><time>2026-04-18T07:04:23Z</time></trkpt><trkpt lat="43.786814463658324" lon="11.386980590151282"><ele>81.0</ele><time>2026-04-18T07:04:24Z</time></trkpt><trkpt lat="43.78682578474003" lon="11.387148236878028"><ele>80.25</ele><time>2026-04-18T07:04:25Z</time></trkpt><trkpt lat="43.78683904274275" lon="11.387320522170608"><ele>79.5</ele><time>2026-04-18T07:04:25.999Z</time></trkpt><trkpt lat="43.78685140896922" lon="11.387501777721567"><ele>78.75</ele><time>2026-04-18T07:04:26.999Z</time></trkpt><trkpt lat="43.7868608585717" lon="11.38768919740049"><ele>78.0</ele><time>2026-04-18T07:04:27.999Z</time></trkpt><trkpt lat="43.786869078782175" lon="11.38788504562441"><ele>77.75</ele><time>2026-04-18T07:04:28.999Z</time></trkpt><trkpt lat="43.78686990144125" lon="11.388086673102736"><ele>77.5</ele><time>2026-04-18T07:04:29.999Z</time></trkpt><trkpt lat="43.78685484682649" lon="11.388295064817354"><ele>77.25</ele><time>2026-04-18T07:04:30.999Z</time></trkpt><trkpt lat="43.78682618482858" lon="11.388499438517922"><ele>77.0</ele><time>2026-04-18T07:04:31.999Z</time></trkpt><trkpt lat="43.786782126316325" lon="11.38870824149752"><ele>79.5</ele><time>2026-04-18T07:04:32.999Z</time></trkpt><trkpt lat="43.7867248709022" lon="11.388919729944591"><ele>82.0</ele><time>2026-04-18T07:04:33.999Z</time></trkpt><trkpt lat="43.786668048528604" lon="11.389105256330586"><ele>84.5</ele><time>2026-04-18T07:04:34.999Z</time></trkpt><trkpt lat="43.78661589770269" lon="11.389280810441997"><ele>87.0</ele><time>2026-04-18T07:04:35.999Z</time></trkpt><trkpt lat="43.78656632049826" lon="11.38945014896247"><ele>87.0</ele><time>2026-04-18T07:04:36.999Z</time></trkpt><trkpt lat="43.78652325743759" lon="11.389617244334012"><ele>87.0</ele><time>2026-04-18T07:04:37.999Z</time></trkpt><trkpt lat="43.78647290354984" lon="11.389775195758292"><ele>87.0</ele><time>2026-04-18T07:04:38.999Z</time></trkpt><trkpt lat="43.7864231701068" lon="11.389933690856216"><ele>87.0</ele><time>2026-04-18T07:04:39.999Z</time></trkpt><trkpt lat="43.78637574711726" lon="11.390088317583555"><ele>85.75</ele><time>2026-04-18T07:04:40.999Z</time></trkpt><trkpt lat="43.78633027440075" lon="11.390240277199497"><ele>84.5</ele><time>2026-04-18T07:04:41.999Z</time></trkpt><trkpt lat="43.78628437198128" lon="11.39039044428493"><ele>83.25</ele><time>2026-04-18T07:04:42.999Z</time></trkpt><trkpt lat="43.78624001808337" lon="11.390541825271114"><ele>82.0</ele><time>2026-04-18T07:04:43.999Z</time></trkpt><trkpt lat="43.78619249545279" lon="11.390700023529238"><ele>81.75</ele><time>2026-04-18T07:04:44.999Z</time></trkpt><trkpt lat="43.7861415779643" lon="11.390861079641883"><ele>81.5</ele><time>2026-04-18T07:04:45.999Z</time></trkpt><trkpt lat="43.7860904560891" lon="11.391022533285607"><ele>81.25</ele><time>2026-04-18T07:04:46.999Z</time></trkpt><trkpt lat="43.78604384636279" lon="11.391180987683333"><ele>81.0</ele><time>2026-04-18T07:04:47.999Z</time></trkpt><trkpt lat="43.785997148886196" lon="11.391328762380308"><ele>83.75</ele><time>2026-04-18T07:04:48.999Z</time></trkpt><trkpt lat="43.78595247155034" lon="11.391474411120152"><ele>86.5</ele><time>2026-04-18T07:04:49.999Z</time></trkpt><trkpt lat="43.785910248691344" lon="11.39161164940689"><ele>89.25</ele><time>2026-04-18T07:04:50.999Z</time></trkpt><trkpt lat="43.78586542056766" lon="11.391754158504163"><ele>92.0</ele><time>2026-04-18T07:04:51.999Z</time></trkpt><trkpt lat="43.785811289705066" lon="11.391915399695227"><ele>92.0</ele><time>2026-04-18T07:04:52.999Z</time></trkpt><trkpt lat="43.78575660880118" lon="11.392056596238985"><ele>92.0</ele><time>2026-04-18T07:04:53.999Z</time></trkpt><trkpt lat="43.78569952513605" lon="11.392197438662956"><ele>92.0</ele><time>2026-04-18T07:04:54.999Z</time></trkpt><trkpt lat="43.78563752447524" lon="11.392341279077854"><ele>92.0</ele><time>2026-04-18T07:04:55.999Z</time></trkpt><trkpt lat="43.7855685321401" lon="11.392489393870653"><ele>91.0</ele><time>2026-04-18T07:04:56.999Z</time></trkpt><trkpt lat="43.785492327238735" lon="11.39263911727335"><ele>90.0</ele><time>2026-04-18T07:04:57.999Z</time></trkpt><trkpt lat="43.785408707386765" lon="11.392791636329514"><ele>89.0</ele><time>2026-04-18T07:04:58.999Z</time></trkpt><trkpt lat="43.78531936193002" lon="11.392944679595903"><ele>88.0</ele><time>2026-04-18T07:04:59.999Z</time></trkpt><trkpt lat="43.785224537058866" lon="11.393099008001828"><ele>89.0</ele><time>2026-04-18T07:05:00.999Z</time></trkpt><trkpt lat="43.78512951268395" lon="11.393245688308408"><ele>90.0</ele><time>2026-04-18T07:05:01.999Z</time></trkpt><trkpt lat="43.7850384606886" lon="11.393373818318059"><ele>91.0</ele><time>2026-04-18T07:05:02.999Z</time></trkpt><trkpt lat="43.784950562812575" lon="11.393491026304057"><ele>92.0</ele><time>2026-04-18T07:05:03.999Z</time></trkpt><trkpt lat="43.784863052056636" lon="11.393600202612255"><ele>92.0</ele><time>2026-04-18T07:05:04.999Z</time></trkpt><trkpt lat="43.7847713918623" lon="11.39371320267369"><ele>92.0</ele><time>2026-04-18T07:05:05.999Z</time></trkpt><trkpt lat="43.784671409508654" lon="11.393830215776063"><ele>92.0</ele><time>2026-04-18T07:05:06.999Z</time></trkpt><trkpt lat="43.78455787956218" lon="11.393948959562763"><ele>92.0</ele><time>2026-04-18T07:05:07.999Z</time></trkpt><trkpt lat="43.78442845709133" lon="11.394075478402762"><ele>90.25</ele><time>2026-04-18T07:05:08.999Z</time></trkpt><trkpt lat="43.78430171632337" lon="11.394190451710351"><ele>88.5</ele><time>2026-04-18T07:05:09.999Z</time></trkpt><trkpt lat="43.78418071356879" lon="11.394296685853853"><ele>86.75</ele><time>2026-04-18T07:05:10.999Z</time></trkpt><trkpt lat="43.78405628289807" lon="11.394409257785314"><ele>85.0</ele><time>2026-04-18T07:05:11.999Z</time></trkpt><trkpt lat="43.783928595152375" lon="11.394538814787062"><ele>82.33333333333333</ele><time>2026-04-18T07:05:12.999Z</time></trkpt><trkpt lat="43.783798356486464" lon="11.394690953574884"><ele>79.66666666666667</ele><time>2026-04-18T07:05:13.999Z</time></trkpt><trkpt lat="43.78366850445193" lon="11.394863649883376"><ele>77.0</ele><time>2026-04-18T07:05:14.999Z</time></trkpt><trkpt lat="43.78354709190501" lon="11.395050161840492"><ele>77.66666666666667</ele><time>2026-04-18T07:05:15.999Z</time></trkpt><trkpt lat="43.78344583914441" lon="11.395256964088713"><ele>78.33333333333333</ele><time>2026-04-18T07:05:17Z</time></trkpt><trkpt lat="43.78335579235452" lon="11.39545462133783"><ele>79.0</ele><time>2026-04-18T07:05:18Z</time></trkpt><trkpt lat="43.7832815752899" lon="11.395648865318412"><ele>79.0</ele><time>2026-04-18T07:05:19Z</time></trkpt><trkpt lat="43.783228961282354" lon="11.395844099591564"><ele>79.0</ele><time>2026-04-18T07:05:20Z</time></trkpt><trkpt lat="43.783182134287294" lon="11.39603935006572"><ele>79.0</ele><time>2026-04-18T07:05:21Z</time></trkpt><trkpt lat="43.78313852428056" lon="11.396238910199028"><ele>78.5</ele><time>2026-04-18T07:05:22Z</time></trkpt><trkpt lat="43.783102010978354" lon="11.39643630555241"><ele>78.0</ele><time>2026-04-18T07:05:23Z</time></trkpt><trkpt lat="43.78306536119286" lon="11.396624682148095"><ele>77.5</ele><time>2026-04-18T07:05:24Z</time></trkpt><trkpt lat="43.78302399037155" lon="11.39680827441606"><ele>77.0</ele><time>2026-04-18T07:05:25Z</time></trkpt><trkpt lat="43.78297705526992" lon="11.39698731220677"><ele>77.0</ele><time>2026-04-18T07:05:26Z</time></trkpt><trkpt lat="43.78292056777535" lon="11.3971674522498"><ele>77.0</ele><time>2026-04-18T07:05:27Z</time></trkpt><trkpt lat="43.782857408149056" lon="11.397345738905598"><ele>77.0</ele><time>2026-04-18T07:05:28Z</time></trkpt><trkpt lat="43.782786770067126" lon="11.397521746654098"><ele>77.0</ele><time>2026-04-18T07:05:29Z</time></trkpt><trkpt lat="43.782708891300324" lon="11.39769689383241"><ele>76.0</ele><time>2026-04-18T07:05:30Z</time></trkpt><trkpt lat="43.78262397735186" lon="11.397867894831695"><ele>75.0</ele><time>2026-04-18T07:05:31Z</time></trkpt><trkpt lat="43.78253354555225" lon="11.398032082675854"><ele>74.0</ele><time>2026-04-18T07:05:32Z</time></trkpt><trkpt lat="43.782437065318234" lon="11.398193502680309"><ele>73.66666666666667</ele><time>2026-04-18T07:05:33Z</time></trkpt><trkpt lat="43.782337367498904" lon="11.398353576675198"><ele>73.33333333333333</ele><time>2026-04-18T07:05:34Z</time></trkpt><trkpt lat="43.78223592463118" lon="11.39850959337572"><ele>73.0</ele><time>2026-04-18T07:05:35Z</time></trkpt><trkpt lat="43.782133564738096" lon="11.39865606728114"><ele>73.0</ele><time>2026-04-18T07:05:36Z</time></trkpt><trkpt lat="43.782035437407515" lon="11.398784880667176"><ele>73.0</ele><time>2026-04-18T07:05:37Z</time></trkpt><trkpt lat="43.78194021561986" lon="11.398896947017084"><ele>73.0</ele><time>2026-04-18T07:05:38Z</time></trkpt><trkpt lat="43.78185122118501" lon="11.399002002954024"><ele>73.0</ele><time>2026-04-18T07:05:39Z</time></trkpt><trkpt lat="43.781766242865515" lon="11.399102607636552"><ele>73.6</ele><time>2026-04-18T07:05:40Z</time></trkpt><trkpt lat="43.78168183681331" lon="11.39919563732918"><ele>74.19999999999999</ele><time>2026-04-18T07:05:41Z</time></trkpt><trkpt lat="43.78160248522726" lon="11.399285961502104"><ele>74.8</ele><time>2026-04-18T07:05:42Z</time></trkpt><trkpt lat="43.7815265219265" lon="11.399374099785842"><ele>75.39999999999999</ele><time>2026-04-18T07:05:43Z</time></trkpt><trkpt lat="43.78144662457832" lon="11.399466037345716"><ele>76.0</ele><time>2026-04-18T07:05:44Z</time></trkpt><trkpt lat="43.781361980165286" lon="11.399562085143938"><ele>76.0</ele><time>2026-04-18T07:05:45Z</time></trkpt><trkpt lat="43.78127074113308" lon="11.39966181815792"><ele>76.0</ele><time>2026-04-18T07:05:46Z</time></trkpt><trkpt lat="43.78117222015618" lon="11.399770201898608"><ele>76.0</ele><time>2026-04-18T07:05:47Z</time></trkpt><trkpt lat="43.781069292960495" lon="11.399887353346786"><ele>76.0</ele><time>2026-04-18T07:05:48Z</time></trkpt><trkpt lat="43.78096240122681" lon="11.400012694423435"><ele>78.33333333333333</ele><time>2026-04-18T07:05:49Z</time></trkpt><trkpt lat="43.78085249721265" lon="11.40014144738835"><ele>80.66666666666667</ele><time>2026-04-18T07:05:50Z</time></trkpt><trkpt lat="43.78073302741522" lon="11.400276992756481"><ele>83.0</ele><time>2026-04-18T07:05:51Z</time></trkpt><trkpt lat="43.78061741945937" lon="11.400412135814149"><ele>82.5</ele><time>2026-04-18T07:05:52Z</time></trkpt><trkpt lat="43.78050506382178" lon="11.400543771466191"><ele>82.0</ele><time>2026-04-18T07:05:53Z</time></trkpt><trkpt lat="43.780393425364494" lon="11.40067217202391"><ele>81.5</ele><time>2026-04-18T07:05:54Z</time></trkpt><trkpt lat="43.78028149696894" lon="11.400797471738048"><ele>81.0</ele><time>2026-04-18T07:05:55Z</time></trkpt><trkpt lat="43.78017131744644" lon="11.400922371544928"><ele>81.0</ele><time>2026-04-18T07:05:56Z</time></trkpt><trkpt lat="43.78006347003434" lon="11.401046899288241"><ele>81.0</ele><time>2026-04-18T07:05:57Z</time></trkpt><trkpt lat="43.77996020559456" lon="11.401167562888062"><ele>81.0</ele><time>2026-04-18T07:05:58Z</time></trkpt><trkpt lat="43.77985747049009" lon="11.401287910450336"><ele>81.0</ele><time>2026-04-18T07:05:59Z</time></trkpt><trkpt lat="43.77975514718736" lon="11.401405939879826"><ele>79.75</ele><time>2026-04-18T07:06:00Z</time></trkpt><trkpt lat="43.77965106591753" lon="11.401525246772694"><ele>78.5</ele><time>2026-04-18T07:06:01Z</time></trkpt><trkpt lat="43.77954607083555" lon="11.401650528499307"><ele>77.25</ele><time>2026-04-18T07:06:02Z</time></trkpt><trkpt lat="43.77944634126647" lon="11.40178841706439"><ele>76.0</ele><time>2026-04-18T07:06:03Z</time></trkpt><trkpt lat="43.77935203870908" lon="11.401938056216025"><ele>76.75</ele><time>2026-04-18T07:06:04Z</time></trkpt><trkpt lat="43.77926199599722" lon="11.402096722772745"><ele>77.5</ele><time>2026-04-18T07:06:05Z</time></trkpt><trkpt lat="43.77918142359334" lon="11.402265320851935"><ele>78.25</ele><time>2026-04-18T07:06:06Z</time></trkpt><trkpt lat="43.779105770588934" lon="11.402440166041579"><ele>79.0</ele><time>2026-04-18T07:06:07Z</time></trkpt><trkpt lat="43.779041208581134" lon="11.402624287233312"><ele>79.0</ele><time>2026-04-18T07:06:08Z</time></trkpt><trkpt lat="43.778982762458085" lon="11.402817118226366"><ele>79.0</ele><time>2026-04-18T07:06:09Z</time></trkpt><trkpt lat="43.77893314438769" lon="11.403016197355234"><ele>79.0</ele><time>2026-04-18T07:06:10Z</time></trkpt><trkpt lat="43.77888908205135" lon="11.403223182320765"><ele>78.66666666666666</ele><time>2026-04-18T07:06:11Z</time></trkpt><trkpt lat="43.77884162434197" lon="11.403436018737732"><ele>78.33333333333333</ele><time>2026-04-18T07:06:12Z</time></trkpt><trkpt lat="43.77878782065653" lon="11.403643033350258"><ele>78.0</ele><time>2026-04-18T07:06:13Z</time></trkpt><trkpt lat="43.77872640101032" lon="11.403846171294363"><ele>78.25</ele><time>2026-04-18T07:06:14Z</time></trkpt><trkpt lat="43.778661821248875" lon="11.40404376146436"><ele>78.5</ele><time>2026-04-18T07:06:15Z</time></trkpt><trkpt lat="43.7785897219739" lon="11.404223447293436"><ele>78.75</ele><time>2026-04-18T07:06:16Z</time></trkpt><trkpt lat="43.7785118394675" lon="11.404386098407471"><ele>79.0</ele><time>2026-04-18T07:06:17Z</time></trkpt><trkpt lat="43.77843761097102" lon="11.404539315910739"><ele>78.5</ele><time>2026-04-18T07:06:18Z</time></trkpt><trkpt lat="43.77836796459458" lon="11.404679481987351"><ele>78.0</ele><time>2026-04-18T07:06:19Z</time></trkpt><trkpt lat="43.778303635279926" lon="11.404814433544866"><ele>77.5</ele><time>2026-04-18T07:06:20Z</time></trkpt><trkpt lat="43.77823964919119" lon="11.404942141772523"><ele>77.0</ele><time>2026-04-18T07:06:21Z</time></trkpt><trkpt lat="43.77817536745593" lon="11.405071385229151"><ele>77.0</ele><time>2026-04-18T07:06:22Z</time></trkpt><trkpt lat="43.77810716891528" lon="11.405205701974177"><ele>77.0</ele><time>2026-04-18T07:06:23Z</time></trkpt><trkpt lat="43.778037255482204" lon="11.405347305494955"><ele>77.0</ele><time>2026-04-18T07:06:24Z</time></trkpt><trkpt lat="43.77796320455803" lon="11.405494190476727"><ele>77.0</ele><time>2026-04-18T07:06:24.999Z</time></trkpt><trkpt lat="43.77788515480044" lon="11.40564433168831"><ele>76.75</ele><time>2026-04-18T07:06:25.999Z</time></trkpt><trkpt lat="43.77780608309833" lon="11.405799382553914"><ele>76.5</ele><time>2026-04-18T07:06:26.999Z</time></trkpt><trkpt lat="43.77772563166178" lon="11.40595760786737"><ele>76.25</ele><time>2026-04-18T07:06:27.999Z</time></trkpt><trkpt lat="43.77764458767899" lon="11.406115825641459"><ele>76.0</ele><time>2026-04-18T07:06:28.999Z</time></trkpt><trkpt lat="43.77756159499057" lon="11.406273308125613"><ele>76.0</ele><time>2026-04-18T07:06:29.999Z</time></trkpt><trkpt lat="43.77747835182345" lon="11.406434271783429"><ele>76.0</ele><time>2026-04-18T07:06:30.999Z</time></trkpt><trkpt lat="43.777397513658016" lon="11.406598116202263"><ele>76.0</ele><time>2026-04-18T07:06:31.999Z</time></trkpt><trkpt lat="43.777316311938975" lon="11.406755727292996"><ele>76.0</ele><time>2026-04-18T07:06:32.999Z</time></trkpt><trkpt lat="43.77723667203574" lon="11.406911701460421"><ele>76.0</ele><time>2026-04-18T07:06:33.999Z</time></trkpt><trkpt lat="43.777159092305595" lon="11.407065587385144"><ele>76.0</ele><time>2026-04-18T07:06:34.999Z</time></trkpt><trkpt lat="43.7770825786653" lon="11.407216746920126"><ele>76.0</ele><time>2026-04-18T07:06:35.999Z</time></trkpt><trkpt lat="43.777006347654336" lon="11.407370058502885"><ele>76.0</ele><time>2026-04-18T07:06:36.999Z</time></trkpt><trkpt lat="43.77693090344298" lon="11.407522398647062"><ele>76.0</ele><time>2026-04-18T07:06:37.999Z</time></trkpt><trkpt lat="43.776854458733354" lon="11.407672925459527"><ele>76.0</ele><time>2026-04-18T07:06:38.999Z</time></trkpt><trkpt lat="43.77677843718881" lon="11.407820685715217"><ele>76.0</ele><time>2026-04-18T07:06:39.999Z</time></trkpt><trkpt lat="43.77670441120236" lon="11.407968680694173"><ele>76.0</ele><time>2026-04-18T07:06:40.999Z</time></trkpt><trkpt lat="43.7766305840594" lon="11.408113879211577"><ele>76.75</ele><time>2026-04-18T07:06:41.999Z</time></trkpt><trkpt lat="43.77655440989321" lon="11.408257305042728"><ele>77.5</ele><time>2026-04-18T07:06:42.999Z</time></trkpt><trkpt lat="43.77647923316442" lon="11.40839859000399"><ele>78.25</ele><time>2026-04-18T07:06:43.999Z</time></trkpt><trkpt lat="43.776403925601365" lon="11.408540793602521"><ele>79.0</ele><time>2026-04-18T07:06:44.999Z</time></trkpt><trkpt lat="43.77632765303031" lon="11.408683160935677"><ele>79.0</ele><time>2026-04-18T07:06:45.999Z</time></trkpt><trkpt lat="43.776251295800165" lon="11.40882683105754"><ele>79.0</ele><time>2026-04-18T07:06:46.999Z</time></trkpt><trkpt lat="43.77617408801713" lon="11.40896636222211"><ele>79.0</ele><time>2026-04-18T07:06:47.999Z</time></trkpt><trkpt lat="43.77609509375221" lon="11.409102085760457"><ele>79.0</ele><time>2026-04-18T07:06:48.999Z</time></trkpt><trkpt lat="43.77601669151476" lon="11.409235565059191"><ele>79.25</ele><time>2026-04-18T07:06:49.999Z</time></trkpt><trkpt lat="43.77593762173193" lon="11.409369070992497"><ele>79.5</ele><time>2026-04-18T07:06:50.999Z</time></trkpt><trkpt lat="43.77585705350265" lon="11.409501456300386"><ele>79.75</ele><time>2026-04-18T07:06:51.999Z</time></trkpt><trkpt lat="43.77577540739841" lon="11.409633786339146"><ele>80.0</ele><time>2026-04-18T07:06:52.999Z</time></trkpt><trkpt lat="43.77568955988491" lon="11.409764759391427"><ele>80.0</ele><time>2026-04-18T07:06:53.999Z</time></trkpt><trkpt lat="43.77559918845106" lon="11.409898263080732"><ele>80.0</ele><time>2026-04-18T07:06:54.999Z</time></trkpt><trkpt lat="43.775509462207474" lon="11.410028799328307"><ele>80.0</ele><time>2026-04-18T07:06:55.999Z</time></trkpt><trkpt lat="43.77542110069516" lon="11.410153757302313"><ele>80.0</ele><time>2026-04-18T07:06:56.999Z</time></trkpt><trkpt lat="43.77533743959548" lon="11.41027297644709"><ele>80.0</ele><time>2026-04-18T07:06:57.999Z</time></trkpt><trkpt lat="43.77524955406855" lon="11.41039132029022"><ele>80.0</ele><time>2026-04-18T07:06:58.999Z</time></trkpt><trkpt lat="43.77515486243867" lon="11.410511639218614"><ele>80.0</ele><time>2026-04-18T07:06:59.999Z</time></trkpt><trkpt lat="43.77505716306255" lon="11.41063778889046"><ele>80.0</ele><time>2026-04-18T07:07:00.999Z</time></trkpt><trkpt lat="43.774956191806325" lon="11.410765771325236"><ele>80.25</ele><time>2026-04-18T07:07:01.999Z</time></trkpt><trkpt lat="43.77485277904447" lon="11.41089207000718"><ele>80.5</ele><time>2026-04-18T07:07:02.999Z</time></trkpt><trkpt lat="43.774747154900915" lon="11.411016306571984"><ele>80.75</ele><time>2026-04-18T07:07:03.999Z</time></trkpt><trkpt lat="43.77464300929608" lon="11.41114310981336"><ele>81.0</ele><time>2026-04-18T07:07:04.999Z</time></trkpt><trkpt lat="43.774547650078475" lon="11.411277577472186"><ele>81.0</ele><time>2026-04-18T07:07:05.999Z</time></trkpt><trkpt lat="43.774459452950786" lon="11.411421026696745"><ele>81.0</ele><time>2026-04-18T07:07:06.999Z</time></trkpt><trkpt lat="43.774382654230244" lon="11.411572545723244"><ele>81.0</ele><time>2026-04-18T07:07:07.999Z</time></trkpt><trkpt lat="43.774317550924444" lon="11.411735711902752"><ele>81.0</ele><time>2026-04-18T07:07:08.999Z</time></trkpt><trkpt lat="43.774256785595725" lon="11.411908708333643"><ele>80.5</ele><time>2026-04-18T07:07:09.999Z</time></trkpt><trkpt lat="43.7742089029019" lon="11.412093002422182"><ele>80.0</ele><time>2026-04-18T07:07:10.999Z</time></trkpt><trkpt lat="43.774165942060556" lon="11.412284474639321"><ele>79.5</ele><time>2026-04-18T07:07:11.999Z</time></trkpt><trkpt lat="43.77413293071783" lon="11.41248714955069"><ele>79.0</ele><time>2026-04-18T07:07:12.999Z</time></trkpt><trkpt lat="43.77411394106722" lon="11.412695102008865"><ele>79.0</ele><time>2026-04-18T07:07:13.999Z</time></trkpt><trkpt lat="43.774111864901315" lon="11.412908730572338"><ele>79.0</ele><time>2026-04-18T07:07:14.999Z</time></trkpt><trkpt lat="43.77412325537643" lon="11.413119676289085"><ele>79.0</ele><time>2026-04-18T07:07:15.999Z</time></trkpt><trkpt lat="43.774138947855555" lon="11.413316869041479"><ele>78.75</ele><time>2026-04-18T07:07:16.999Z</time></trkpt><trkpt lat="43.77415435809401" lon="11.413495105751114"><ele>78.5</ele><time>2026-04-18T07:07:17.999Z</time></trkpt><trkpt lat="43.77416819266803" lon="11.413667865217208"><ele>78.25</ele><time>2026-04-18T07:07:18.999Z</time></trkpt><trkpt lat="43.774184378675194" lon="11.413829860387597"><ele>78.0</ele><time>2026-04-18T07:07:19.999Z</time></trkpt><trkpt lat="43.77420198168884" lon="11.413982357672346"><ele>78.0</ele><time>2026-04-18T07:07:20.999Z</time></trkpt><trkpt lat="43.77421628676209" lon="11.41413013517402"><ele>78.0</ele><time>2026-04-18T07:07:22Z</time></trkpt><trkpt lat="43.7742241783344" lon="11.414268875564426"><ele>78.0</ele><time>2026-04-18T07:07:23Z</time></trkpt><trkpt lat="43.77423531286415" lon="11.414398730130717"><ele>78.0</ele><time>2026-04-18T07:07:24Z</time></trkpt><trkpt lat="43.77424886840962" lon="11.414525311602752"><ele>78.0</ele><time>2026-04-18T07:07:25Z</time></trkpt><trkpt lat="43.774263243853845" lon="11.414660186324792"><ele>78.0</ele><time>2026-04-18T07:07:26Z</time></trkpt><trkpt lat="43.774278663016645" lon="11.414791247942011"><ele>78.0</ele><time>2026-04-18T07:07:27Z</time></trkpt><trkpt lat="43.774291017565524" lon="11.414919775124348"><ele>78.0</ele><time>2026-04-18T07:07:28Z</time></trkpt><trkpt lat="43.77430253079953" lon="11.415053762492525"><ele>78.0</ele><time>2026-04-18T07:07:29Z</time></trkpt><trkpt lat="43.774314194341294" lon="11.4151787543072"><ele>78.0</ele><time>2026-04-18T07:07:30Z</time></trkpt><trkpt lat="43.77432700531978" lon="11.415288850719714"><ele>78.0</ele><time>2026-04-18T07:07:31Z</time></trkpt><trkpt lat="43.77433661130048" lon="11.41539022105963"><ele>78.0</ele><time>2026-04-18T07:07:32Z</time></trkpt><trkpt lat="43.77434515879947" lon="11.415480992095613"><ele>78.0</ele><time>2026-04-18T07:07:33Z</time></trkpt><trkpt lat="43.774350539162185" lon="11.415608957031663"><ele>78.0</ele><time>2026-04-18T07:07:35Z</time></trkpt><trkpt lat="43.77434725975" lon="11.415727893744092"><ele>78.0</ele><time>2026-04-18T07:07:38Z</time></trkpt><trkpt lat="43.77432468347321" lon="11.415882278764977"><ele>78.0</ele><time>2026-04-18T07:07:40Z</time></trkpt><trkpt lat="43.77429540698342" lon="11.415991643940991"><ele>78.2</ele><time>2026-04-18T07:07:41Z</time></trkpt><trkpt lat="43.77426593847518" lon="11.416095491362778"><ele>78.4</ele><time>2026-04-18T07:07:42Z</time></trkpt><trkpt lat="43.77423292813966" lon="11.416186161621717"><ele>78.60000000000001</ele><time>2026-04-18T07:07:43Z</time></trkpt><trkpt lat="43.77419033107598" lon="11.416291541599412"><ele>78.8</ele><time>2026-04-18T07:07:44Z</time></trkpt><trkpt lat="43.7741348826331" lon="11.416404358651077"><ele>79.0</ele><time>2026-04-18T07:07:45Z</time></trkpt><trkpt lat="43.77407184245323" lon="11.416529902793268"><ele>79.5</ele><time>2026-04-18T07:07:46Z</time></trkpt><trkpt lat="43.77400597967078" lon="11.416670969392625"><ele>80.0</ele><time>2026-04-18T07:07:47Z</time></trkpt><trkpt lat="43.77393274929672" lon="11.416819540613503"><ele>80.5</ele><time>2026-04-18T07:07:48Z</time></trkpt><trkpt lat="43.773855952952495" lon="11.4169787327386"><ele>81.0</ele><time>2026-04-18T07:07:49Z</time></trkpt><trkpt lat="43.77377695201488" lon="11.417149637178035"><ele>81.0</ele><time>2026-04-18T07:07:50Z</time></trkpt><trkpt lat="43.773697440229014" lon="11.417331007088693"><ele>81.0</ele><time>2026-04-18T07:07:51Z</time></trkpt><trkpt lat="43.773620154557285" lon="11.417522992711444"><ele>81.0</ele><time>2026-04-18T07:07:52Z</time></trkpt><trkpt lat="43.77354789222189" lon="11.417730251281"><ele>80.66666666666667</ele><time>2026-04-18T07:07:53Z</time></trkpt><trkpt lat="43.773482367690356" lon="11.417949381507794"><ele>80.33333333333334</ele><time>2026-04-18T07:07:54Z</time></trkpt><trkpt lat="43.773423576566834" lon="11.418176714590015"><ele>80.0</ele><time>2026-04-18T07:07:55Z</time></trkpt><trkpt lat="43.77337045055442" lon="11.418404483897916"><ele>80.0</ele><time>2026-04-18T07:07:56Z</time></trkpt><trkpt lat="43.77331752414406" lon="11.418631115280068"><ele>80.0</ele><time>2026-04-18T07:07:57Z</time></trkpt><trkpt lat="43.77326301641864" lon="11.418868145684598"><ele>80.0</ele><time>2026-04-18T07:07:58Z</time></trkpt><trkpt lat="43.773209105617276" lon="11.41911277255964"><ele>80.5</ele><time>2026-04-18T07:07:59Z</time></trkpt><trkpt lat="43.77315516891742" lon="11.419355070082418"><ele>81.0</ele><time>2026-04-18T07:08:00Z</time></trkpt><trkpt lat="43.77303199253452" lon="11.419823989211972"><ele>81.0</ele><time>2026-04-18T07:08:02Z</time></trkpt><trkpt lat="43.773022057687285" lon="11.4199338198093"><ele>81.0</ele><time>2026-04-18T07:08:03Z</time></trkpt><trkpt lat="43.772978140978054" lon="11.42012165867906"><ele>81.0</ele><time>2026-04-18T07:08:04Z</time></trkpt><trkpt lat="43.77289124385105" lon="11.420424637358336"><ele>81.0</ele><time>2026-04-18T07:08:05Z</time></trkpt><trkpt lat="43.77286822055862" lon="11.420576296568205"><ele>81.0</ele><time>2026-04-18T07:08:06Z</time></trkpt><trkpt lat="43.772817038847975" lon="11.420802910540562"><ele>81.0</ele><time>2026-04-18T07:08:07Z</time></trkpt><trkpt lat="43.772764899201064" lon="11.421035350892017"><ele>81.0</ele><time>2026-04-18T07:08:08Z</time></trkpt><trkpt lat="43.77270614717871" lon="11.421275047100478"><ele>81.0</ele><time>2026-04-18T07:08:09Z</time></trkpt><trkpt lat="43.772641584118105" lon="11.421523799235791"><ele>81.0</ele><time>2026-04-18T07:08:10Z</time></trkpt><trkpt lat="43.77257605598819" lon="11.421780114456846"><ele>81.0</ele><time>2026-04-18T07:08:11Z</time></trkpt><trkpt lat="43.77251115815369" lon="11.422040263742604"><ele>81.0</ele><time>2026-04-18T07:08:12Z</time></trkpt><trkpt lat="43.772453703136335" lon="11.422279666868139"><ele>81.0</ele><time>2026-04-18T07:08:13Z</time></trkpt><trkpt lat="43.77239639101801" lon="11.42251739561198"><ele>81.0</ele><time>2026-04-18T07:08:14Z</time></trkpt><trkpt lat="43.77234104638145" lon="11.422747605427093"><ele>81.0</ele><time>2026-04-18T07:08:15Z</time></trkpt><trkpt lat="43.772287703503345" lon="11.422968673511617"><ele>81.0</ele><time>2026-04-18T07:08:16Z</time></trkpt><trkpt lat="43.77223571086947" lon="11.423179190233844"><ele>81.33333333333333</ele><time>2026-04-18T07:08:17Z</time></trkpt><trkpt lat="43.77218553458946" lon="11.423381466657132"><ele>81.66666666666666</ele><time>2026-04-18T07:08:18Z</time></trkpt><trkpt lat="43.77213817068791" lon="11.423579298303922"><ele>82.0</ele><time>2026-04-18T07:08:19Z</time></trkpt><trkpt lat="43.772092693984945" lon="11.423774515176092"><ele>82.0</ele><time>2026-04-18T07:08:20Z</time></trkpt><trkpt lat="43.77204769024719" lon="11.423962911528928"><ele>82.0</ele><time>2026-04-18T07:08:21Z</time></trkpt><trkpt lat="43.77200238901003" lon="11.424149852655228"><ele>82.0</ele><time>2026-04-18T07:08:22Z</time></trkpt><trkpt lat="43.771958217197" lon="11.424334732865775"><ele>82.0</ele><time>2026-04-18T07:08:23Z</time></trkpt><trkpt lat="43.77191562023566" lon="11.42451835858226"><ele>82.0</ele><time>2026-04-18T07:08:23.999Z</time></trkpt><trkpt lat="43.77187413336108" lon="11.42469886243159"><ele>82.0</ele><time>2026-04-18T07:08:24.999Z</time></trkpt><trkpt lat="43.77183465951219" lon="11.424880624576309"><ele>82.0</ele><time>2026-04-18T07:08:25.999Z</time></trkpt><trkpt lat="43.77178994571804" lon="11.425074759940523"><ele>82.0</ele><time>2026-04-18T07:08:26.999Z</time></trkpt><trkpt lat="43.77174332774661" lon="11.425276656274857"><ele>81.66666666666666</ele><time>2026-04-18T07:08:27.999Z</time></trkpt><trkpt lat="43.77169454473058" lon="11.425486773504247"><ele>81.33333333333333</ele><time>2026-04-18T07:08:28.999Z</time></trkpt><trkpt lat="43.77164370423818" lon="11.42571121546779"><ele>81.0</ele><time>2026-04-18T07:08:29.999Z</time></trkpt><trkpt lat="43.771590689404704" lon="11.42594453650519"><ele>81.0</ele><time>2026-04-18T07:08:30.999Z</time></trkpt><trkpt lat="43.771535495550616" lon="11.426185651750016"><ele>81.0</ele><time>2026-04-18T07:08:31.999Z</time></trkpt><trkpt lat="43.771476876004314" lon="11.426432337471866"><ele>81.0</ele><time>2026-04-18T07:08:32.999Z</time></trkpt><trkpt lat="43.77141856395406" lon="11.426676811200787"><ele>81.0</ele><time>2026-04-18T07:08:33.999Z</time></trkpt><trkpt lat="43.77136003951992" lon="11.426919944995706"><ele>81.0</ele><time>2026-04-18T07:08:34.999Z</time></trkpt><trkpt lat="43.77130605598755" lon="11.427153334895918"><ele>81.0</ele><time>2026-04-18T07:08:35.999Z</time></trkpt><trkpt lat="43.771244097269616" lon="11.42739407359382"><ele>81.33333333333333</ele><time>2026-04-18T07:08:36.999Z</time></trkpt><trkpt lat="43.77119360679131" lon="11.427616189987885"><ele>81.66666666666666</ele><time>2026-04-18T07:08:37.999Z</time></trkpt><trkpt lat="43.77110072153291" lon="11.427973332449055"><ele>82.0</ele><time>2026-04-18T07:08:38.999Z</time></trkpt><trkpt lat="43.77105383216627" lon="11.428222783530925"><ele>81.66666666666666</ele><time>2026-04-18T07:08:39.999Z</time></trkpt><trkpt lat="43.77099646271078" lon="11.428457255896783"><ele>81.33333333333333</ele><time>2026-04-18T07:08:40.999Z</time></trkpt><trkpt lat="43.770945854187005" lon="11.428663674945582"><ele>81.0</ele><time>2026-04-18T07:08:41.999Z</time></trkpt><trkpt lat="43.77089237028605" lon="11.42886456875222"><ele>81.0</ele><time>2026-04-18T07:08:42.999Z</time></trkpt><trkpt lat="43.770839916326665" lon="11.42906662403454"><ele>81.0</ele><time>2026-04-18T07:08:43.999Z</time></trkpt><trkpt lat="43.77078371396334" lon="11.429258520199092"><ele>81.0</ele><time>2026-04-18T07:08:44.999Z</time></trkpt><trkpt lat="43.77072639994016" lon="11.429452583180158"><ele>81.0</ele><time>2026-04-18T07:08:45.999Z</time></trkpt><trkpt lat="43.77066619822578" lon="11.42964538471186"><ele>81.0</ele><time>2026-04-18T07:08:46.999Z</time></trkpt><trkpt lat="43.770603055514016" lon="11.42984167781449"><ele>81.0</ele><time>2026-04-18T07:08:47.999Z</time></trkpt><trkpt lat="43.77053322381575" lon="11.430046271874929"><ele>81.0</ele><time>2026-04-18T07:08:48.999Z</time></trkpt><trkpt lat="43.77038712127516" lon="11.430461782590598"><ele>81.0</ele><time>2026-04-18T07:08:50.999Z</time></trkpt><trkpt lat="43.77030610705004" lon="11.430671365629319"><ele>81.33333333333333</ele><time>2026-04-18T07:08:51.999Z</time></trkpt><trkpt lat="43.77023089610259" lon="11.430896978602009"><ele>81.66666666666666</ele><time>2026-04-18T07:08:52.999Z</time></trkpt><trkpt lat="43.7701528094606" lon="11.43111647765942"><ele>82.0</ele><time>2026-04-18T07:08:53.999Z</time></trkpt><trkpt lat="43.77007673714456" lon="11.431337404310844"><ele>81.33333333333333</ele><time>2026-04-18T07:08:54.999Z</time></trkpt><trkpt lat="43.76999630460286" lon="11.431559791637287"><ele>80.66666666666667</ele><time>2026-04-18T07:08:55.999Z</time></trkpt><trkpt lat="43.769921130169124" lon="11.431770110468802"><ele>80.0</ele><time>2026-04-18T07:08:56.999Z</time></trkpt><trkpt lat="43.76984904151751" lon="11.431980939978736"><ele>80.66666666666667</ele><time>2026-04-18T07:08:57.999Z</time></trkpt><trkpt lat="43.769780087908316" lon="11.432186607598549"><ele>81.33333333333333</ele><time>2026-04-18T07:08:58.999Z</time></trkpt><trkpt lat="43.76971860189276" lon="11.432388675550003"><ele>82.0</ele><time>2026-04-18T07:08:59.999Z</time></trkpt><trkpt lat="43.76965990488134" lon="11.43259619333557"><ele>82.0</ele><time>2026-04-18T07:09:00.999Z</time></trkpt><trkpt lat="43.769601919006966" lon="11.432807369331309"><ele>82.0</ele><time>2026-04-18T07:09:01.999Z</time></trkpt><trkpt lat="43.769547842390004" lon="11.433026560917302"><ele>82.0</ele><time>2026-04-18T07:09:02.999Z</time></trkpt><trkpt lat="43.76950141382058" lon="11.433242835247004"><ele>82.0</ele><time>2026-04-18T07:09:03.999Z</time></trkpt><trkpt lat="43.76945762139259" lon="11.43345528018043"><ele>82.0</ele><time>2026-04-18T07:09:04.999Z</time></trkpt><trkpt lat="43.76942303088921" lon="11.433665684903707"><ele>82.0</ele><time>2026-04-18T07:09:05.999Z</time></trkpt><trkpt lat="43.76939091275032" lon="11.433873333666115"><ele>82.0</ele><time>2026-04-18T07:09:06.999Z</time></trkpt><trkpt lat="43.76936570323607" lon="11.4340737138196"><ele>82.0</ele><time>2026-04-18T07:09:07.999Z</time></trkpt><trkpt lat="43.76934525594561" lon="11.43427745342852"><ele>82.0</ele><time>2026-04-18T07:09:08.999Z</time></trkpt><trkpt lat="43.76932675799845" lon="11.434481617904948"><ele>82.0</ele><time>2026-04-18T07:09:09.999Z</time></trkpt><trkpt lat="43.76931593870948" lon="11.434697464568018"><ele>82.0</ele><time>2026-04-18T07:09:10.999Z</time></trkpt><trkpt lat="43.76931228666433" lon="11.434916816290377"><ele>82.0</ele><time>2026-04-18T07:09:11.999Z</time></trkpt><trkpt lat="43.76931061764116" lon="11.435143039531308"><ele>82.0</ele><time>2026-04-18T07:09:12.999Z</time></trkpt><trkpt lat="43.769312637502324" lon="11.435371505432013"><ele>81.66666666666666</ele><time>2026-04-18T07:09:13.999Z</time></trkpt><trkpt lat="43.76932011382081" lon="11.43560165989779"><ele>81.33333333333333</ele><time>2026-04-18T07:09:14.999Z</time></trkpt><trkpt lat="43.76933451284149" lon="11.435832249876956"><ele>81.0</ele><time>2026-04-18T07:09:15.999Z</time></trkpt><trkpt lat="43.76936008185887" lon="11.436072095876064"><ele>81.66666666666667</ele><time>2026-04-18T07:09:16.999Z</time></trkpt><trkpt lat="43.76938492540984" lon="11.436314338287273"><ele>82.33333333333334</ele><time>2026-04-18T07:09:17.999Z</time></trkpt><trkpt lat="43.76942065948101" lon="11.436554108181616"><ele>83.0</ele><time>2026-04-18T07:09:18.999Z</time></trkpt><trkpt lat="43.76945934721197" lon="11.436794252512748"><ele>83.0</ele><time>2026-04-18T07:09:19.999Z</time></trkpt><trkpt lat="43.769505792672696" lon="11.437029355819412"><ele>83.0</ele><time>2026-04-18T07:09:20.999Z</time></trkpt><trkpt lat="43.76955634339151" lon="11.437263429822982"><ele>83.0</ele><time>2026-04-18T07:09:21.999Z</time></trkpt><trkpt lat="43.76961247596385" lon="11.437490793996375"><ele>83.0</ele><time>2026-04-18T07:09:22.999Z</time></trkpt><trkpt lat="43.769672145125654" lon="11.437713831740625"><ele>83.0</ele><time>2026-04-18T07:09:23.999Z</time></trkpt><trkpt lat="43.76973545872237" lon="11.437929091587499"><ele>83.0</ele><time>2026-04-18T07:09:24.999Z</time></trkpt><trkpt lat="43.769795773118155" lon="11.438132053683624"><ele>83.0</ele><time>2026-04-18T07:09:25.999Z</time></trkpt><trkpt lat="43.76985704733464" lon="11.438319074221155"><ele>83.0</ele><time>2026-04-18T07:09:26.999Z</time></trkpt><trkpt lat="43.76991382468061" lon="11.438492394252563"><ele>83.0</ele><time>2026-04-18T07:09:28Z</time></trkpt><trkpt lat="43.76996994176106" lon="11.438655948404689"><ele>83.0</ele><time>2026-04-18T07:09:29Z</time></trkpt><trkpt lat="43.77002547186528" lon="11.438822611642724"><ele>83.33333333333334</ele><time>2026-04-18T07:09:30Z</time></trkpt><trkpt lat="43.770086613232166" lon="11.439005355123973"><ele>83.66666666666667</ele><time>2026-04-18T07:09:31Z</time></trkpt><trkpt lat="43.77015308884378" lon="11.439200428748077"><ele>84.0</ele><time>2026-04-18T07:09:32Z</time></trkpt><trkpt lat="43.770221385183255" lon="11.439400441912822"><ele>84.0</ele><time>2026-04-18T07:09:33Z</time></trkpt><trkpt lat="43.77030129431782" lon="11.439616457301671"><ele>84.0</ele><time>2026-04-18T07:09:34Z</time></trkpt><trkpt lat="43.770383587227265" lon="11.43984120003189"><ele>84.0</ele><time>2026-04-18T07:09:35Z</time></trkpt><trkpt lat="43.770469619685365" lon="11.440071848996343"><ele>83.33333333333333</ele><time>2026-04-18T07:09:36Z</time></trkpt><trkpt lat="43.770551326996525" lon="11.440303501550138"><ele>82.66666666666666</ele><time>2026-04-18T07:09:37Z</time></trkpt><trkpt lat="43.77062378291809" lon="11.440521943999752"><ele>82.0</ele><time>2026-04-18T07:09:38Z</time></trkpt><trkpt lat="43.77069297384702" lon="11.440728816734008"><ele>81.33333333333333</ele><time>2026-04-18T07:09:39Z</time></trkpt><trkpt lat="43.7707670903721" lon="11.440938927931946"><ele>80.66666666666667</ele><time>2026-04-18T07:09:40Z</time></trkpt><trkpt lat="43.77083485053286" lon="11.441148898266233"><ele>80.0</ele><time>2026-04-18T07:09:41Z</time></trkpt><trkpt lat="43.770894076343055" lon="11.441356206809646"><ele>80.0</ele><time>2026-04-18T07:09:42Z</time></trkpt><trkpt lat="43.77095086957424" lon="11.441563236008697"><ele>80.0</ele><time>2026-04-18T07:09:43Z</time></trkpt><trkpt lat="43.7710021178545" lon="11.441774825466728"><ele>80.0</ele><time>2026-04-18T07:09:44Z</time></trkpt><trkpt lat="43.77104481346759" lon="11.441988549303954"><ele>80.0</ele><time>2026-04-18T07:09:45Z</time></trkpt><trkpt lat="43.77108163600564" lon="11.442207737753737"><ele>80.0</ele><time>2026-04-18T07:09:46Z</time></trkpt><trkpt lat="43.77111838553603" lon="11.44242081121014"><ele>80.0</ele><time>2026-04-18T07:09:47Z</time></trkpt><trkpt lat="43.77114625733155" lon="11.442637007691863"><ele>80.0</ele><time>2026-04-18T07:09:48Z</time></trkpt><trkpt lat="43.7711713953495" lon="11.442857404441282"><ele>80.0</ele><time>2026-04-18T07:09:49Z</time></trkpt><trkpt lat="43.77119421682189" lon="11.443069022616223"><ele>80.0</ele><time>2026-04-18T07:09:50Z</time></trkpt><trkpt lat="43.771215643493186" lon="11.443291196295895"><ele>80.33333333333334</ele><time>2026-04-18T07:09:51Z</time></trkpt><trkpt lat="43.77123315450325" lon="11.443507164384712"><ele>80.66666666666667</ele><time>2026-04-18T07:09:52Z</time></trkpt><trkpt lat="43.7712519975568" lon="11.44372604122485"><ele>81.0</ele><time>2026-04-18T07:09:53Z</time></trkpt><trkpt lat="43.771266580040084" lon="11.443958616457795"><ele>81.66666666666667</ele><time>2026-04-18T07:09:54Z</time></trkpt><trkpt lat="43.77128092801466" lon="11.444196493918023"><ele>82.33333333333334</ele><time>2026-04-18T07:09:55Z</time></trkpt><trkpt lat="43.77129638589788" lon="11.444441695659915"><ele>83.0</ele><time>2026-04-18T07:09:56Z</time></trkpt><trkpt lat="43.77131356389375" lon="11.444690403018358"><ele>83.0</ele><time>2026-04-18T07:09:57Z</time></trkpt><trkpt lat="43.77133497562987" lon="11.444943263768145"><ele>83.0</ele><time>2026-04-18T07:09:58Z</time></trkpt><trkpt lat="43.77135742207311" lon="11.445189207501201"><ele>83.0</ele><time>2026-04-18T07:09:59Z</time></trkpt><trkpt lat="43.77138073519431" lon="11.445436198050496"><ele>82.66666666666667</ele><time>2026-04-18T07:10:00Z</time></trkpt><trkpt lat="43.77140352225665" lon="11.445693372760207"><ele>82.33333333333333</ele><time>2026-04-18T07:10:01Z</time></trkpt><trkpt lat="43.77142896383871" lon="11.44596208937641"><ele>82.0</ele><time>2026-04-18T07:10:02Z</time></trkpt><trkpt lat="43.77145209568563" lon="11.44621321424379"><ele>82.66666666666666</ele><time>2026-04-18T07:10:03Z</time></trkpt><trkpt lat="43.77147745550265" lon="11.446467596142853"><ele>83.33333333333333</ele><time>2026-04-18T07:10:04Z</time></trkpt><trkpt lat="43.771509539675456" lon="11.446715064421742"><ele>84.0</ele><time>2026-04-18T07:10:05Z</time></trkpt><trkpt lat="43.77155110320767" lon="11.446955142630879"><ele>84.0</ele><time>2026-04-18T07:10:06Z</time></trkpt><trkpt lat="43.77160222643804" lon="11.44720391056879"><ele>84.0</ele><time>2026-04-18T07:10:07Z</time></trkpt><trkpt lat="43.77166167206742" lon="11.447460358414233"><ele>84.0</ele><time>2026-04-18T07:10:08Z</time></trkpt><trkpt lat="43.7717293999827" lon="11.447717566782593"><ele>83.66666666666667</ele><time>2026-04-18T07:10:09Z</time></trkpt><trkpt lat="43.7718044426105" lon="11.447962593521495"><ele>83.33333333333334</ele><time>2026-04-18T07:10:10Z</time></trkpt><trkpt lat="43.77189162839258" lon="11.448200125625295"><ele>83.0</ele><time>2026-04-18T07:10:11Z</time></trkpt><trkpt lat="43.771986754000075" lon="11.448428649611072"><ele>83.66666666666667</ele><time>2026-04-18T07:10:12Z</time></trkpt><trkpt lat="43.77209486840496" lon="11.448648699481792"><ele>84.33333333333333</ele><time>2026-04-18T07:10:13Z</time></trkpt><trkpt lat="43.772213255058674" lon="11.448861136710185"><ele>85.0</ele><time>2026-04-18T07:10:14Z</time></trkpt><trkpt lat="43.7723410788951" lon="11.449064251148798"><ele>86.0</ele><time>2026-04-18T07:10:15Z</time></trkpt><trkpt lat="43.77247021208869" lon="11.449259604848203"><ele>87.0</ele><time>2026-04-18T07:10:16Z</time></trkpt><trkpt lat="43.77260150577299" lon="11.449449077755048"><ele>88.0</ele><time>2026-04-18T07:10:17Z</time></trkpt><trkpt lat="43.772743535144464" lon="11.449620255493178"><ele>89.33333333333333</ele><time>2026-04-18T07:10:18Z</time></trkpt><trkpt lat="43.77289033082656" lon="11.449779875421921"><ele>90.66666666666667</ele><time>2026-04-18T07:10:19Z</time></trkpt><trkpt lat="43.77304374254381" lon="11.449928973165832"><ele>92.0</ele><time>2026-04-18T07:10:20Z</time></trkpt><trkpt lat="43.77320421302885" lon="11.450065606586294"><ele>92.0</ele><time>2026-04-18T07:10:20.999Z</time></trkpt><trkpt lat="43.7733713143249" lon="11.450190298238324"><ele>92.0</ele><time>2026-04-18T07:10:21.999Z</time></trkpt><trkpt lat="43.77354393423153" lon="11.450306969399714"><ele>92.0</ele><time>2026-04-18T07:10:22.999Z</time></trkpt><trkpt lat="43.77372587857306" lon="11.450410219979851"><ele>95.66666666666667</ele><time>2026-04-18T07:10:23.999Z</time></trkpt><trkpt lat="43.77391178357481" lon="11.450502052479699"><ele>99.33333333333334</ele><time>2026-04-18T07:10:24.999Z</time></trkpt><trkpt lat="43.7741002825118" lon="11.450588442289968"><ele>103.0</ele><time>2026-04-18T07:10:25.999Z</time></trkpt><trkpt lat="43.77430951998052" lon="11.450643320591128"><ele>109.5</ele><time>2026-04-18T07:10:26.999Z</time></trkpt><trkpt lat="43.77452507238478" lon="11.450706098467414"><ele>116.0</ele><time>2026-04-18T07:10:27.999Z</time></trkpt><trkpt lat="43.774757138636296" lon="11.45075210188914"><ele>116.0</ele><time>2026-04-18T07:10:28.999Z</time></trkpt><trkpt lat="43.775005065165274" lon="11.45078252499967"><ele>116.0</ele><time>2026-04-18T07:10:29.999Z</time></trkpt><trkpt lat="43.775243580878865" lon="11.450814848213556"><ele>133.0</ele><time>2026-04-18T07:10:30.999Z</time></trkpt><trkpt lat="43.7754835932924" lon="11.450856017265735"><ele>150.0</ele><time>2026-04-18T07:10:31.999Z</time></trkpt><trkpt lat="43.77596722078651" lon="11.450894292915846"><ele>154.0</ele><time>2026-04-18T07:10:33.999Z</time></trkpt><trkpt lat="43.776211359604716" lon="11.450919530210102"><ele>158.0</ele><time>2026-04-18T07:10:35.057Z</time></trkpt><trkpt lat="43.776439110130134" lon="11.450944779121462"><ele>158.0</ele><time>2026-04-18T07:10:36.059Z</time></trkpt><trkpt lat="43.7766626524036" lon="11.45096924287212"><ele>158.0</ele><time>2026-04-18T07:10:37.043Z</time></trkpt><trkpt lat="43.776893087926034" lon="11.450993780259465"><ele>185.0</ele><time>2026-04-18T07:10:38.042Z</time></trkpt><trkpt lat="43.77808784784443" lon="11.451025793155575"><ele>185.0</ele><time>2026-04-18T07:10:41.357Z</time></trkpt><trkpt lat="43.778446083187056" lon="11.451081249170747"><ele>185.0</ele><time>2026-04-18T07:10:42.358Z</time></trkpt><trkpt lat="43.778805356472034" lon="11.451114559542118"><ele>125.0</ele><time>2026-04-18T07:10:43.358Z</time></trkpt><trkpt lat="43.78170689760979" lon="11.45234432841374"><ele>121.66666666666666</ele><time>2026-04-18T07:11:03.999Z</time></trkpt><trkpt lat="43.78187058400195" lon="11.452535010258147"><ele>118.33333333333334</ele><time>2026-04-18T07:11:04.999Z</time></trkpt><trkpt lat="43.781932128932596" lon="11.452733856982075"><ele>115.0</ele><time>2026-04-18T07:11:05.999Z</time></trkpt><trkpt lat="43.78207245301807" lon="11.452929888139849"><ele>116.5</ele><time>2026-04-18T07:11:06.999Z</time></trkpt><trkpt lat="43.78223501477946" lon="11.453163758337462"><ele>118.0</ele><time>2026-04-18T07:11:07.999Z</time></trkpt><trkpt lat="43.7823605086588" lon="11.453413360576887"><ele>118.0</ele><time>2026-04-18T07:11:08.999Z</time></trkpt><trkpt lat="43.782466675896416" lon="11.453674576658956"><ele>118.0</ele><time>2026-04-18T07:11:09.999Z</time></trkpt><trkpt lat="43.782570603695405" lon="11.45393651071968"><ele>118.0</ele><time>2026-04-18T07:11:10.999Z</time></trkpt><trkpt lat="43.7826538442208" lon="11.454214883585776"><ele>116.33333333333334</ele><time>2026-04-18T07:11:11.999Z</time></trkpt><trkpt lat="43.7827347744604" lon="11.454504319250177"><ele>114.66666666666666</ele><time>2026-04-18T07:11:12.999Z</time></trkpt><trkpt lat="43.7828091922106" lon="11.454787399053638"><ele>113.0</ele><time>2026-04-18T07:11:13.999Z</time></trkpt><trkpt lat="43.782867860370686" lon="11.455063907394607"><ele>113.0</ele><time>2026-04-18T07:11:14.999Z</time></trkpt><trkpt lat="43.78294284421344" lon="11.455337122015937"><ele>113.0</ele><time>2026-04-18T07:11:15.999Z</time></trkpt><trkpt lat="43.7830184619756" lon="11.455603136047486"><ele>113.0</ele><time>2026-04-18T07:11:16.999Z</time></trkpt><trkpt lat="43.7830970237867" lon="11.455859549314342"><ele>113.33333333333333</ele><time>2026-04-18T07:11:17.999Z</time></trkpt><trkpt lat="43.78318502483048" lon="11.456110873163922"><ele>113.66666666666666</ele><time>2026-04-18T07:11:18.999Z</time></trkpt><trkpt lat="43.783284830784595" lon="11.456359901220647"><ele>114.0</ele><time>2026-04-18T07:11:19.999Z</time></trkpt><trkpt lat="43.783398251120474" lon="11.456612849350465"><ele>113.33333333333334</ele><time>2026-04-18T07:11:20.999Z</time></trkpt><trkpt lat="43.78351595579724" lon="11.456847596725563"><ele>112.66666666666667</ele><time>2026-04-18T07:11:21.999Z</time></trkpt><trkpt lat="43.78364831872563" lon="11.457059155202138"><ele>112.0</ele><time>2026-04-18T07:11:22.999Z</time></trkpt><trkpt lat="43.78378117101677" lon="11.45724470063892"><ele>113.66666666666667</ele><time>2026-04-18T07:11:23.999Z</time></trkpt><trkpt lat="43.78389654730472" lon="11.457428985276493"><ele>115.33333333333334</ele><time>2026-04-18T07:11:24.999Z</time></trkpt><trkpt lat="43.784007643145785" lon="11.457583922471615"><ele>117.0</ele><time>2026-04-18T07:11:25.999Z</time></trkpt><trkpt lat="43.7841186495726" lon="11.457732742588458"><ele>117.0</ele><time>2026-04-18T07:11:26.999Z</time></trkpt><trkpt lat="43.78421438050983" lon="11.457858435931556"><ele>117.0</ele><time>2026-04-18T07:11:27.999Z</time></trkpt><trkpt lat="43.78430204007869" lon="11.457971292807704"><ele>117.0</ele><time>2026-04-18T07:11:28.999Z</time></trkpt><trkpt lat="43.784366780219095" lon="11.45814825058126"><ele>117.0</ele><time>2026-04-18T07:11:29.999Z</time></trkpt><trkpt lat="43.78449216224243" lon="11.458351618341245"><ele>109.0</ele><time>2026-04-18T07:11:30.999Z</time></trkpt><trkpt lat="43.785041772024336" lon="11.45902901335559"><ele>105.33333333333334</ele><time>2026-04-18T07:11:31.999Z</time></trkpt><trkpt lat="43.78520669670777" lon="11.459220964828097"><ele>101.66666666666666</ele><time>2026-04-18T07:11:32.999Z</time></trkpt><trkpt lat="43.78535983161933" lon="11.459404249898137"><ele>98.0</ele><time>2026-04-18T07:11:34Z</time></trkpt><trkpt lat="43.78550770597239" lon="11.45959043445696"><ele>99.33333333333333</ele><time>2026-04-18T07:11:35Z</time></trkpt><trkpt lat="43.78565136570107" lon="11.459786010527308"><ele>100.66666666666666</ele><time>2026-04-18T07:11:36Z</time></trkpt><trkpt lat="43.78578697184241" lon="11.459985748717816"><ele>102.0</ele><time>2026-04-18T07:11:37Z</time></trkpt><trkpt lat="43.785918645854416" lon="11.460189068219323"><ele>97.33333333333333</ele><time>2026-04-18T07:11:38Z</time></trkpt><trkpt lat="43.78603704500662" lon="11.46040915823239"><ele>92.66666666666666</ele><time>2026-04-18T07:11:39Z</time></trkpt><trkpt lat="43.786146682981446" lon="11.460638054931353"><ele>88.0</ele><time>2026-04-18T07:11:40Z</time></trkpt><trkpt lat="43.78625095873692" lon="11.460878461806564"><ele>88.0</ele><time>2026-04-18T07:11:41Z</time></trkpt><trkpt lat="43.7863500394084" lon="11.461130027642804"><ele>88.0</ele><time>2026-04-18T07:11:42Z</time></trkpt><trkpt lat="43.78644484121886" lon="11.461381592217746"><ele>88.0</ele><time>2026-04-18T07:11:43Z</time></trkpt><trkpt lat="43.78654266880715" lon="11.46162983224288"><ele>88.33333333333333</ele><time>2026-04-18T07:11:44Z</time></trkpt><trkpt lat="43.786640692626214" lon="11.46187500883021"><ele>88.66666666666667</ele><time>2026-04-18T07:11:45Z</time></trkpt><trkpt lat="43.7867419202681" lon="11.46211268462276"><ele>89.0</ele><time>2026-04-18T07:11:46Z</time></trkpt><trkpt lat="43.7868525104997" lon="11.462336267373727"><ele>89.0</ele><time>2026-04-18T07:11:47Z</time></trkpt><trkpt lat="43.78696399167279" lon="11.462547643921472"><ele>89.0</ele><time>2026-04-18T07:11:48Z</time></trkpt><trkpt lat="43.787074285078084" lon="11.46273822196256"><ele>89.0</ele><time>2026-04-18T07:11:49Z</time></trkpt><trkpt lat="43.78717859046318" lon="11.462915154057718"><ele>91.66666666666667</ele><time>2026-04-18T07:11:50Z</time></trkpt><trkpt lat="43.78727846761562" lon="11.463095937600444"><ele>94.33333333333334</ele><time>2026-04-18T07:11:51Z</time></trkpt><trkpt lat="43.78737321781056" lon="11.463278771848508"><ele>97.0</ele><time>2026-04-18T07:11:52Z</time></trkpt><trkpt lat="43.78746396019674" lon="11.463467336061152"><ele>97.0</ele><time>2026-04-18T07:11:53Z</time></trkpt><trkpt lat="43.787552200098816" lon="11.463659214178637"><ele>97.0</ele><time>2026-04-18T07:11:54Z</time></trkpt><trkpt lat="43.78764383940945" lon="11.463850400568864"><ele>97.0</ele><time>2026-04-18T07:11:55Z</time></trkpt><trkpt lat="43.787740168145156" lon="11.464031382165205"><ele>94.66666666666667</ele><time>2026-04-18T07:11:56Z</time></trkpt><trkpt lat="43.7878431946174" lon="11.464199060551898"><ele>92.33333333333334</ele><time>2026-04-18T07:11:57Z</time></trkpt><trkpt lat="43.787945280987536" lon="11.464362026046107"><ele>90.0</ele><time>2026-04-18T07:11:58Z</time></trkpt><trkpt lat="43.78805053334836" lon="11.464514501825041"><ele>90.25</ele><time>2026-04-18T07:11:59Z</time></trkpt><trkpt lat="43.78815797923663" lon="11.464644612515002"><ele>90.5</ele><time>2026-04-18T07:12:00Z</time></trkpt><trkpt lat="43.78827717327867" lon="11.464769487990909"><ele>90.75</ele><time>2026-04-18T07:12:01Z</time></trkpt><trkpt lat="43.788423727826206" lon="11.464845479687527"><ele>91.0</ele><time>2026-04-18T07:12:02Z</time></trkpt><trkpt lat="43.78857711707244" lon="11.464898584727884"><ele>91.0</ele><time>2026-04-18T07:12:03Z</time></trkpt><trkpt lat="43.78873685738863" lon="11.464931192475973"><ele>91.0</ele><time>2026-04-18T07:12:04Z</time></trkpt><trkpt lat="43.78890426331845" lon="11.464953247041228"><ele>91.0</ele><time>2026-04-18T07:12:05Z</time></trkpt><trkpt lat="43.78907274374298" lon="11.46496762690451"><ele>91.0</ele><time>2026-04-18T07:12:06Z</time></trkpt><trkpt lat="43.78924316655923" lon="11.46498143950371"><ele>91.0</ele><time>2026-04-18T07:12:07Z</time></trkpt><trkpt lat="43.78941179159254" lon="11.46499509238897"><ele>91.0</ele><time>2026-04-18T07:12:08Z</time></trkpt><trkpt lat="43.789578691874944" lon="11.46501323617995"><ele>91.33333333333333</ele><time>2026-04-18T07:12:09Z</time></trkpt><trkpt lat="43.78973836961046" lon="11.465028875439176"><ele>91.66666666666667</ele><time>2026-04-18T07:12:10Z</time></trkpt><trkpt lat="43.78989265509076" lon="11.46504070407478"><ele>92.0</ele><time>2026-04-18T07:12:11Z</time></trkpt><trkpt lat="43.79004217961956" lon="11.465046854672856"><ele>92.5</ele><time>2026-04-18T07:12:12Z</time></trkpt><trkpt lat="43.79019290720664" lon="11.465048785406372"><ele>93.0</ele><time>2026-04-18T07:12:13Z</time></trkpt><trkpt lat="43.790340380951704" lon="11.465037042926486"><ele>93.5</ele><time>2026-04-18T07:12:14Z</time></trkpt><trkpt lat="43.79048665801718" lon="11.46500904020601"><ele>94.0</ele><time>2026-04-18T07:12:15Z</time></trkpt><trkpt lat="43.7906332070473" lon="11.464972842544691"><ele>94.0</ele><time>2026-04-18T07:12:16Z</time></trkpt><trkpt lat="43.790779958446585" lon="11.464930076466606"><ele>94.0</ele><time>2026-04-18T07:12:17Z</time></trkpt><trkpt lat="43.79092484603709" lon="11.464884295456713"><ele>94.0</ele><time>2026-04-18T07:12:18Z</time></trkpt><trkpt lat="43.791071096273896" lon="11.464830882743653"><ele>94.0</ele><time>2026-04-18T07:12:19Z</time></trkpt><trkpt lat="43.79121446661536" lon="11.464763221104013"><ele>94.0</ele><time>2026-04-18T07:12:20Z</time></trkpt><trkpt lat="43.791358576521716" lon="11.464691063737863"><ele>94.0</ele><time>2026-04-18T07:12:21Z</time></trkpt><trkpt lat="43.79149448121638" lon="11.464608392590556"><ele>94.0</ele><time>2026-04-18T07:12:21.999Z</time></trkpt><trkpt lat="43.79162906064927" lon="11.464526674420087"><ele>94.0</ele><time>2026-04-18T07:12:22.999Z</time></trkpt><trkpt lat="43.791760008410904" lon="11.464443229147031"><ele>94.0</ele><time>2026-04-18T07:12:23.999Z</time></trkpt><trkpt lat="43.79188950684891" lon="11.464363439724016"><ele>94.0</ele><time>2026-04-18T07:12:24.999Z</time></trkpt><trkpt lat="43.79201563552222" lon="11.46428772565724"><ele>94.75</ele><time>2026-04-18T07:12:25.999Z</time></trkpt><trkpt lat="43.79214149344358" lon="11.464211746368017"><ele>95.5</ele><time>2026-04-18T07:12:26.999Z</time></trkpt><trkpt lat="43.79226519467186" lon="11.464138950378127"><ele>96.25</ele><time>2026-04-18T07:12:27.999Z</time></trkpt><trkpt lat="43.79238282266089" lon="11.464070733080364"><ele>97.0</ele><time>2026-04-18T07:12:28.999Z</time></trkpt><trkpt lat="43.79249287737174" lon="11.464006430291054"><ele>97.0</ele><time>2026-04-18T07:12:29.999Z</time></trkpt><trkpt lat="43.79259513754414" lon="11.4639525211553"><ele>97.0</ele><time>2026-04-18T07:12:30.999Z</time></trkpt><trkpt lat="43.792690778885905" lon="11.463900757718985"><ele>97.0</ele><time>2026-04-18T07:12:31.999Z</time></trkpt><trkpt lat="43.79277591610022" lon="11.463848260677791"><ele>97.0</ele><time>2026-04-18T07:12:32.999Z</time></trkpt><trkpt lat="43.792858317481695" lon="11.463797399996146"><ele>97.0</ele><time>2026-04-18T07:12:33.999Z</time></trkpt><trkpt lat="43.79294526653338" lon="11.46374571599362"><ele>96.19999999999999</ele><time>2026-04-18T07:12:34.999Z</time></trkpt><trkpt lat="43.793035917223634" lon="11.463688705586124"><ele>95.4</ele><time>2026-04-18T07:12:35.999Z</time></trkpt><trkpt lat="43.79312968931881" lon="11.46363499728467"><ele>94.6</ele><time>2026-04-18T07:12:36.999Z</time></trkpt><trkpt lat="43.79322529208033" lon="11.463577092827574"><ele>93.80000000000001</ele><time>2026-04-18T07:12:37.999Z</time></trkpt><trkpt lat="43.79332627716538" lon="11.463522154010867"><ele>93.0</ele><time>2026-04-18T07:12:38.999Z</time></trkpt><trkpt lat="43.79343159547436" lon="11.463462365727995"><ele>93.5</ele><time>2026-04-18T07:12:39.999Z</time></trkpt><trkpt lat="43.79354420880599" lon="11.463395188613886"><ele>94.0</ele><time>2026-04-18T07:12:40.999Z</time></trkpt><trkpt lat="43.7936646659533" lon="11.463325513921017"><ele>94.5</ele><time>2026-04-18T07:12:41.999Z</time></trkpt><trkpt lat="43.79378566919779" lon="11.463240691251842"><ele>95.0</ele><time>2026-04-18T07:12:42.999Z</time></trkpt><trkpt lat="43.79390692584051" lon="11.463132030681106"><ele>95.0</ele><time>2026-04-18T07:12:43.999Z</time></trkpt><trkpt lat="43.794025504880736" lon="11.463012310872717"><ele>95.0</ele><time>2026-04-18T07:12:44.999Z</time></trkpt><trkpt lat="43.7941494052505" lon="11.462883159266976"><ele>95.0</ele><time>2026-04-18T07:12:45.999Z</time></trkpt><trkpt lat="43.79427761026415" lon="11.462752629866971"><ele>95.0</ele><time>2026-04-18T07:12:46.999Z</time></trkpt><trkpt lat="43.794405265554595" lon="11.462625855667719"><ele>95.0</ele><time>2026-04-18T07:12:47.999Z</time></trkpt><trkpt lat="43.79452633730985" lon="11.462498514066912"><ele>95.0</ele><time>2026-04-18T07:12:48.999Z</time></trkpt><trkpt lat="43.79464314098306" lon="11.462371273571522"><ele>95.0</ele><time>2026-04-18T07:12:49.999Z</time></trkpt><trkpt lat="43.794754137089434" lon="11.462253579161922"><ele>95.0</ele><time>2026-04-18T07:12:50.999Z</time></trkpt><trkpt lat="43.79485370119978" lon="11.46214618477924"><ele>95.0</ele><time>2026-04-18T07:12:51.999Z</time></trkpt><trkpt lat="43.7949456296337" lon="11.462050623191008"><ele>95.0</ele><time>2026-04-18T07:12:52.999Z</time></trkpt><trkpt lat="43.79503309112739" lon="11.461965333154064"><ele>95.0</ele><time>2026-04-18T07:12:53.999Z</time></trkpt><trkpt lat="43.795121227038166" lon="11.46188261237431"><ele>95.0</ele><time>2026-04-18T07:12:54.999Z</time></trkpt><trkpt lat="43.79521259899492" lon="11.461806033592698"><ele>95.0</ele><time>2026-04-18T07:12:55.999Z</time></trkpt><trkpt lat="43.79531314428641" lon="11.461744520484777"><ele>95.0</ele><time>2026-04-18T07:12:56.999Z</time></trkpt><trkpt lat="43.795425396276435" lon="11.461701793538932"><ele>95.0</ele><time>2026-04-18T07:12:57.999Z</time></trkpt><trkpt lat="43.79555058622622" lon="11.461677679418433"><ele>95.0</ele><time>2026-04-18T07:12:58.999Z</time></trkpt><trkpt lat="43.79568082335546" lon="11.461669171677864"><ele>95.0</ele><time>2026-04-18T07:12:59.999Z</time></trkpt><trkpt lat="43.79581593008918" lon="11.461684680048334"><ele>95.0</ele><time>2026-04-18T07:13:00.999Z</time></trkpt><trkpt lat="43.795953839529155" lon="11.461711645651166"><ele>95.0</ele><time>2026-04-18T07:13:01.999Z</time></trkpt><trkpt lat="43.79609130284882" lon="11.461732577355622"><ele>95.75</ele><time>2026-04-18T07:13:02.999Z</time></trkpt><trkpt lat="43.7962323315577" lon="11.461750707355325"><ele>96.5</ele><time>2026-04-18T07:13:03.999Z</time></trkpt><trkpt lat="43.79637498609465" lon="11.461771255471835"><ele>97.25</ele><time>2026-04-18T07:13:04.999Z</time></trkpt><trkpt lat="43.79651735083932" lon="11.461792077494952"><ele>98.0</ele><time>2026-04-18T07:13:05.999Z</time></trkpt><trkpt lat="43.79664222080097" lon="11.461810648245779"><ele>98.0</ele><time>2026-04-18T07:13:06.999Z</time></trkpt><trkpt lat="43.79675746488291" lon="11.461829586506477"><ele>98.0</ele><time>2026-04-18T07:13:07.999Z</time></trkpt><trkpt lat="43.79686018813765" lon="11.461855051839217"><ele>98.0</ele><time>2026-04-18T07:13:08.999Z</time></trkpt><trkpt lat="43.79696128011612" lon="11.46189472769853"><ele>98.0</ele><time>2026-04-18T07:13:09.999Z</time></trkpt><trkpt lat="43.79706496293202" lon="11.46194184220674"><ele>98.0</ele><time>2026-04-18T07:13:10.999Z</time></trkpt><trkpt lat="43.79716663908077" lon="11.461999402549262"><ele>98.0</ele><time>2026-04-18T07:13:11.999Z</time></trkpt><trkpt lat="43.79726638381838" lon="11.46206544700868"><ele>98.0</ele><time>2026-04-18T07:13:12.999Z</time></trkpt><trkpt lat="43.797364201869975" lon="11.462139454564841"><ele>98.0</ele><time>2026-04-18T07:13:13.999Z</time></trkpt><trkpt lat="43.797464050995714" lon="11.462229998601336"><ele>98.0</ele><time>2026-04-18T07:13:14.999Z</time></trkpt><trkpt lat="43.797564797656435" lon="11.462332533772027"><ele>98.25</ele><time>2026-04-18T07:13:15.999Z</time></trkpt><trkpt lat="43.797670258344304" lon="11.462438670709664"><ele>98.5</ele><time>2026-04-18T07:13:16.999Z</time></trkpt><trkpt lat="43.797777667123" lon="11.46255059542888"><ele>98.75</ele><time>2026-04-18T07:13:17.999Z</time></trkpt><trkpt lat="43.797889012755064" lon="11.462665869230205"><ele>99.0</ele><time>2026-04-18T07:13:18.999Z</time></trkpt><trkpt lat="43.79799940919916" lon="11.462796009056355"><ele>99.0</ele><time>2026-04-18T07:13:19.999Z</time></trkpt><trkpt lat="43.798106313235046" lon="11.462936271515073"><ele>99.0</ele><time>2026-04-18T07:13:20.999Z</time></trkpt><trkpt lat="43.798212219674454" lon="11.463085195562304"><ele>99.0</ele><time>2026-04-18T07:13:21.999Z</time></trkpt><trkpt lat="43.798315970358615" lon="11.46324063313862"><ele>99.0</ele><time>2026-04-18T07:13:22.999Z</time></trkpt><trkpt lat="43.798416054672565" lon="11.463403007670802"><ele>99.0</ele><time>2026-04-18T07:13:23.999Z</time></trkpt><trkpt lat="43.79851470248987" lon="11.463565584484328"><ele>99.0</ele><time>2026-04-18T07:13:24.999Z</time></trkpt><trkpt lat="43.79861457854497" lon="11.463727623351517"><ele>99.0</ele><time>2026-04-18T07:13:25.999Z</time></trkpt><trkpt lat="43.79871225812421" lon="11.46389190212312"><ele>99.0</ele><time>2026-04-18T07:13:26.999Z</time></trkpt><trkpt lat="43.79881732679979" lon="11.464062986449608"><ele>99.0</ele><time>2026-04-18T07:13:27.999Z</time></trkpt><trkpt lat="43.798924469373745" lon="11.464237771275428"><ele>99.0</ele><time>2026-04-18T07:13:28.999Z</time></trkpt><trkpt lat="43.79903309016971" lon="11.46441646915335"><ele>99.0</ele><time>2026-04-18T07:13:29.999Z</time></trkpt><trkpt lat="43.79913647967824" lon="11.464591784754086"><ele>99.0</ele><time>2026-04-18T07:13:30.999Z</time></trkpt><trkpt lat="43.79923707610276" lon="11.4647598828181"><ele>98.66666666666666</ele><time>2026-04-18T07:13:31.999Z</time></trkpt><trkpt lat="43.79933682404574" lon="11.464921900814415"><ele>98.33333333333333</ele><time>2026-04-18T07:13:32.999Z</time></trkpt><trkpt lat="43.799433353079024" lon="11.465077002503161"><ele>98.0</ele><time>2026-04-18T07:13:33.999Z</time></trkpt><trkpt lat="43.799531911678464" lon="11.465234351698136"><ele>98.0</ele><time>2026-04-18T07:13:34.999Z</time></trkpt><trkpt lat="43.79963367548786" lon="11.465396884418567"><ele>98.0</ele><time>2026-04-18T07:13:35.999Z</time></trkpt><trkpt lat="43.79974110948816" lon="11.465567844400633"><ele>98.0</ele><time>2026-04-18T07:13:36.999Z</time></trkpt><trkpt lat="43.799851002004274" lon="11.465743636953334"><ele>97.66666666666666</ele><time>2026-04-18T07:13:37.999Z</time></trkpt><trkpt lat="43.7999640904742" lon="11.465924802947006"><ele>97.33333333333334</ele><time>2026-04-18T07:13:39Z</time></trkpt><trkpt lat="43.80008215583002" lon="11.46611295631544"><ele>97.0</ele><time>2026-04-18T07:13:40Z</time></trkpt><trkpt lat="43.80019542267772" lon="11.466322490439389"><ele>97.0</ele><time>2026-04-18T07:13:41Z</time></trkpt><trkpt lat="43.800321430753456" lon="11.466523441518804"><ele>97.0</ele><time>2026-04-18T07:13:42Z</time></trkpt><trkpt lat="43.80046603633745" lon="11.466747918325444"><ele>97.0</ele><time>2026-04-18T07:13:43Z</time></trkpt><trkpt lat="43.80063008210159" lon="11.466994443862683"><ele>100.0</ele><time>2026-04-18T07:13:44Z</time></trkpt><trkpt lat="43.80079492321905" lon="11.467238190696671"><ele>103.0</ele><time>2026-04-18T07:13:45Z</time></trkpt><trkpt lat="43.800960371645274" lon="11.46745122194466"><ele>102.0</ele><time>2026-04-18T07:13:46Z</time></trkpt><trkpt lat="43.80109596469833" lon="11.467682319977845"><ele>101.0</ele><time>2026-04-18T07:13:47Z</time></trkpt><trkpt lat="43.801225317603894" lon="11.46789762832081"><ele>100.0</ele><time>2026-04-18T07:13:48Z</time></trkpt><trkpt lat="43.80135393689033" lon="11.468094607975177"><ele>100.0</ele><time>2026-04-18T07:13:49Z</time></trkpt><trkpt lat="43.80146708460632" lon="11.468289401425503"><ele>100.0</ele><time>2026-04-18T07:13:50Z</time></trkpt><trkpt lat="43.801567422101904" lon="11.468496237419393"><ele>100.0</ele><time>2026-04-18T07:13:51Z</time></trkpt><trkpt lat="43.801667390157185" lon="11.468703418696803"><ele>99.0</ele><time>2026-04-18T07:13:52Z</time></trkpt><trkpt lat="43.801765077170735" lon="11.468902905070752"><ele>98.0</ele><time>2026-04-18T07:13:53Z</time></trkpt><trkpt lat="43.80186253836422" lon="11.469098840192283"><ele>97.0</ele><time>2026-04-18T07:13:54Z</time></trkpt><trkpt lat="43.80195420112649" lon="11.469283157194896"><ele>97.0</ele><time>2026-04-18T07:13:55Z</time></trkpt><trkpt lat="43.802041133459646" lon="11.469440715113794"><ele>97.0</ele><time>2026-04-18T07:13:56Z</time></trkpt><trkpt lat="43.8021392443578" lon="11.469569384424581"><ele>97.0</ele><time>2026-04-18T07:13:57Z</time></trkpt><trkpt lat="43.80226595864571" lon="11.469661861257224"><ele>97.0</ele><time>2026-04-18T07:13:58Z</time></trkpt><trkpt lat="43.802421310854456" lon="11.469697440488508"><ele>97.66666666666667</ele><time>2026-04-18T07:13:59Z</time></trkpt><trkpt lat="43.80258563684033" lon="11.469702863464342"><ele>98.33333333333334</ele><time>2026-04-18T07:14:00Z</time></trkpt><trkpt lat="43.8027561704728" lon="11.46969730606065"><ele>99.0</ele><time>2026-04-18T07:14:01Z</time></trkpt><trkpt lat="43.80292857398165" lon="11.469704607741637"><ele>99.0</ele><time>2026-04-18T07:14:02Z</time></trkpt><trkpt lat="43.80310138753128" lon="11.469710663175363"><ele>99.0</ele><time>2026-04-18T07:14:03Z</time></trkpt><trkpt lat="43.8032725069573" lon="11.469714080061248"><ele>99.0</ele><time>2026-04-18T07:14:04Z</time></trkpt><trkpt lat="43.80342979712092" lon="11.469722635309891"><ele>99.33333333333334</ele><time>2026-04-18T07:14:05Z</time></trkpt><trkpt lat="43.80357536070112" lon="11.469731754301174"><ele>99.66666666666667</ele><time>2026-04-18T07:14:06Z</time></trkpt><trkpt lat="43.80372735125772" lon="11.46974198411338"><ele>100.0</ele><time>2026-04-18T07:14:07Z</time></trkpt><trkpt lat="43.80388081756079" lon="11.469751195951318"><ele>100.0</ele><time>2026-04-18T07:14:08Z</time></trkpt><trkpt lat="43.80403702779848" lon="11.469761267468769"><ele>100.0</ele><time>2026-04-18T07:14:09Z</time></trkpt><trkpt lat="43.804195016100536" lon="11.469769848175462"><ele>100.0</ele><time>2026-04-18T07:14:10Z</time></trkpt><trkpt lat="43.80435721484578" lon="11.469777534423214"><ele>99.66666666666667</ele><time>2026-04-18T07:14:11Z</time></trkpt><trkpt lat="43.80452257242594" lon="11.469787512454891"><ele>99.33333333333334</ele><time>2026-04-18T07:14:12Z</time></trkpt><trkpt lat="43.804691651247" lon="11.469800906819284"><ele>99.0</ele><time>2026-04-18T07:14:13Z</time></trkpt><trkpt lat="43.80486795749051" lon="11.46982615871171"><ele>99.0</ele><time>2026-04-18T07:14:14Z</time></trkpt><trkpt lat="43.805040255298984" lon="11.469873237847725"><ele>99.0</ele><time>2026-04-18T07:14:15Z</time></trkpt><trkpt lat="43.805200374838044" lon="11.469941633440062"><ele>99.0</ele><time>2026-04-18T07:14:16Z</time></trkpt><trkpt lat="43.80534731408626" lon="11.47001449447565"><ele>99.25</ele><time>2026-04-18T07:14:16.999Z</time></trkpt><trkpt lat="43.80548175620187" lon="11.470091698880028"><ele>99.5</ele><time>2026-04-18T07:14:17.999Z</time></trkpt><trkpt lat="43.80560524125627" lon="11.470176318038668"><ele>99.75</ele><time>2026-04-18T07:14:18.999Z</time></trkpt><trkpt lat="43.80571968125013" lon="11.470271365135254"><ele>100.0</ele><time>2026-04-18T07:14:19.999Z</time></trkpt><trkpt lat="43.80582302580644" lon="11.470380336139733"><ele>100.0</ele><time>2026-04-18T07:14:20.999Z</time></trkpt><trkpt lat="43.8059215844049" lon="11.470498192318496"><ele>100.0</ele><time>2026-04-18T07:14:21.999Z</time></trkpt><trkpt lat="43.80601932084953" lon="11.470618148162634"><ele>100.0</ele><time>2026-04-18T07:14:22.999Z</time></trkpt><trkpt lat="43.80611741200519" lon="11.470738290393378"><ele>100.0</ele><time>2026-04-18T07:14:23.999Z</time></trkpt><trkpt lat="43.806220173662595" lon="11.470862802970128"><ele>100.0</ele><time>2026-04-18T07:14:24.999Z</time></trkpt><trkpt lat="43.80632917626135" lon="11.470993468437241"><ele>100.0</ele><time>2026-04-18T07:14:25.999Z</time></trkpt><trkpt lat="43.806442557039816" lon="11.471129988700405"><ele>100.0</ele><time>2026-04-18T07:14:26.999Z</time></trkpt><trkpt lat="43.806558918438846" lon="11.471276098264065"><ele>100.66666666666667</ele><time>2026-04-18T07:14:27.999Z</time></trkpt><trkpt lat="43.80667828648788" lon="11.471427157772046"><ele>101.33333333333334</ele><time>2026-04-18T07:14:28.999Z</time></trkpt><trkpt lat="43.80679908198132" lon="11.47158077718625"><ele>102.0</ele><time>2026-04-18T07:14:29.999Z</time></trkpt><trkpt lat="43.806920609110875" lon="11.471734147614951"><ele>102.33333333333334</ele><time>2026-04-18T07:14:30.999Z</time></trkpt><trkpt lat="43.80704017591573" lon="11.471882810322333"><ele>102.66666666666667</ele><time>2026-04-18T07:14:31.999Z</time></trkpt><trkpt lat="43.80715540340975" lon="11.472023555576758"><ele>103.0</ele><time>2026-04-18T07:14:32.999Z</time></trkpt><trkpt lat="43.8072654306663" lon="11.472158028835953"><ele>103.0</ele><time>2026-04-18T07:14:33.999Z</time></trkpt><trkpt lat="43.807369607051186" lon="11.47228852960351"><ele>103.0</ele><time>2026-04-18T07:14:34.999Z</time></trkpt><trkpt lat="43.80746887245684" lon="11.472414931273255"><ele>103.0</ele><time>2026-04-18T07:14:35.999Z</time></trkpt><trkpt lat="43.8075671200211" lon="11.472539246252103"><ele>103.0</ele><time>2026-04-18T07:14:36.999Z</time></trkpt><trkpt lat="43.80766496792223" lon="11.47266142312966"><ele>102.75</ele><time>2026-04-18T07:14:37.999Z</time></trkpt><trkpt lat="43.80776374569288" lon="11.472782468820126"><ele>102.5</ele><time>2026-04-18T07:14:38.999Z</time></trkpt><trkpt lat="43.807862734731096" lon="11.47290241918581"><ele>102.25</ele><time>2026-04-18T07:14:39.999Z</time></trkpt><trkpt lat="43.80796114211556" lon="11.473019724241736"><ele>102.0</ele><time>2026-04-18T07:14:40.999Z</time></trkpt><trkpt lat="43.808061131755636" lon="11.47313393837072"><ele>102.0</ele><time>2026-04-18T07:14:41.999Z</time></trkpt><trkpt lat="43.808167006979566" lon="11.473249638192355"><ele>102.0</ele><time>2026-04-18T07:14:42.999Z</time></trkpt><trkpt lat="43.80827982114658" lon="11.473365122725584"><ele>102.0</ele><time>2026-04-18T07:14:43.999Z</time></trkpt><trkpt lat="43.8083956458358" lon="11.473463910131034"><ele>102.0</ele><time>2026-04-18T07:14:44.999Z</time></trkpt><trkpt lat="43.80850792870196" lon="11.473552537681597"><ele>101.8</ele><time>2026-04-18T07:14:45.999Z</time></trkpt><trkpt lat="43.80861071785942" lon="11.473626954784272"><ele>101.6</ele><time>2026-04-18T07:14:46.999Z</time></trkpt><trkpt lat="43.808701961598054" lon="11.47369068769426"><ele>101.39999999999999</ele><time>2026-04-18T07:14:47.999Z</time></trkpt><trkpt lat="43.80878848108199" lon="11.473752050396083"><ele>101.19999999999999</ele><time>2026-04-18T07:14:48.999Z</time></trkpt><trkpt lat="43.80887320403813" lon="11.473813675459647"><ele>101.0</ele><time>2026-04-18T07:14:49.999Z</time></trkpt><trkpt lat="43.80895706830521" lon="11.473874474937457"><ele>101.4</ele><time>2026-04-18T07:14:50.999Z</time></trkpt><trkpt lat="43.80904661591084" lon="11.473939634549831"><ele>101.8</ele><time>2026-04-18T07:14:51.999Z</time></trkpt><trkpt lat="43.809138423648356" lon="11.474016740987606"><ele>102.2</ele><time>2026-04-18T07:14:52.999Z</time></trkpt><trkpt lat="43.809231664409324" lon="11.474106854256394"><ele>102.60000000000001</ele><time>2026-04-18T07:14:53.999Z</time></trkpt><trkpt lat="43.809326563622946" lon="11.474211058611933"><ele>103.0</ele><time>2026-04-18T07:14:54.999Z</time></trkpt><trkpt lat="43.809423556304296" lon="11.47432966395123"><ele>103.0</ele><time>2026-04-18T07:14:55.999Z</time></trkpt><trkpt lat="43.809525230024875" lon="11.474458025794872"><ele>103.0</ele><time>2026-04-18T07:14:56.999Z</time></trkpt><trkpt lat="43.80962763964006" lon="11.474596314277148"><ele>103.0</ele><time>2026-04-18T07:14:57.999Z</time></trkpt><trkpt lat="43.80973833552413" lon="11.474741190669498"><ele>103.0</ele><time>2026-04-18T07:14:58.999Z</time></trkpt><trkpt lat="43.809853002835574" lon="11.474890903207635"><ele>103.66666666666667</ele><time>2026-04-18T07:14:59.999Z</time></trkpt><trkpt lat="43.80996963486994" lon="11.475042443787014"><ele>104.33333333333334</ele><time>2026-04-18T07:15:00.999Z</time></trkpt><trkpt lat="43.81008671504461" lon="11.4751979701005"><ele>105.0</ele><time>2026-04-18T07:15:01.999Z</time></trkpt><trkpt lat="43.810196790710116" lon="11.475353943570378"><ele>104.66666666666666</ele><time>2026-04-18T07:15:02.999Z</time></trkpt><trkpt lat="43.81030876890826" lon="11.475514707595764"><ele>104.33333333333333</ele><time>2026-04-18T07:15:03.999Z</time></trkpt><trkpt lat="43.81041495441394" lon="11.475680452431702"><ele>104.0</ele><time>2026-04-18T07:15:04.999Z</time></trkpt><trkpt lat="43.81051738686427" lon="11.475845827173448"><ele>104.0</ele><time>2026-04-18T07:15:05.999Z</time></trkpt><trkpt lat="43.810619323392594" lon="11.476010886059246"><ele>104.0</ele><time>2026-04-18T07:15:06.999Z</time></trkpt><trkpt lat="43.81072239288507" lon="11.476178296666577"><ele>104.0</ele><time>2026-04-18T07:15:07.999Z</time></trkpt><trkpt lat="43.81082886853731" lon="11.476346035413552"><ele>104.33333333333333</ele><time>2026-04-18T07:15:08.999Z</time></trkpt><trkpt lat="43.81093828010113" lon="11.476516955715494"><ele>104.66666666666666</ele><time>2026-04-18T07:15:09.999Z</time></trkpt><trkpt lat="43.81104982056386" lon="11.476687266851377"><ele>105.0</ele><time>2026-04-18T07:15:10.999Z</time></trkpt><trkpt lat="43.81116347713482" lon="11.476859507606614"><ele>105.0</ele><time>2026-04-18T07:15:11.999Z</time></trkpt><trkpt lat="43.811277098793596" lon="11.477033485944606"><ele>105.0</ele><time>2026-04-18T07:15:12.999Z</time></trkpt><trkpt lat="43.81139404496618" lon="11.477206962302663"><ele>105.0</ele><time>2026-04-18T07:15:13.999Z</time></trkpt><trkpt lat="43.811515283194936" lon="11.477383312352787"><ele>105.33333333333334</ele><time>2026-04-18T07:15:14.999Z</time></trkpt><trkpt lat="43.8116361637489" lon="11.4775646616766"><ele>105.66666666666667</ele><time>2026-04-18T07:15:15.999Z</time></trkpt><trkpt lat="43.81176223247492" lon="11.477745929979914"><ele>106.0</ele><time>2026-04-18T07:15:16.999Z</time></trkpt><trkpt lat="43.81203468660662" lon="11.478094188278632"><ele>105.0</ele><time>2026-04-18T07:15:18.999Z</time></trkpt><trkpt lat="43.81217734221932" lon="11.47826131902808"><ele>104.0</ele><time>2026-04-18T07:15:19.999Z</time></trkpt><trkpt lat="43.81231312518471" lon="11.478418972325866"><ele>103.0</ele><time>2026-04-18T07:15:20.999Z</time></trkpt><trkpt lat="43.81243957747464" lon="11.47856997944783"><ele>103.0</ele><time>2026-04-18T07:15:21.999Z</time></trkpt><trkpt lat="43.81256049573739" lon="11.478712499320574"><ele>103.0</ele><time>2026-04-18T07:15:22.999Z</time></trkpt><trkpt lat="43.81267986840525" lon="11.478845985156024"><ele>103.0</ele><time>2026-04-18T07:15:23.999Z</time></trkpt><trkpt lat="43.812794272136294" lon="11.478980301225"><ele>103.0</ele><time>2026-04-18T07:15:24.999Z</time></trkpt><trkpt lat="43.81290921922723" lon="11.479113469066597"><ele>103.0</ele><time>2026-04-18T07:15:25.999Z</time></trkpt><trkpt lat="43.81302061073963" lon="11.479241918817682"><ele>103.0</ele><time>2026-04-18T07:15:26.999Z</time></trkpt><trkpt lat="43.81313166676888" lon="11.479368360910879"><ele>103.0</ele><time>2026-04-18T07:15:27.999Z</time></trkpt><trkpt lat="43.81323459032742" lon="11.479489217593777"><ele>103.25</ele><time>2026-04-18T07:15:28.999Z</time></trkpt><trkpt lat="43.81333504039489" lon="11.479607170948476"><ele>103.5</ele><time>2026-04-18T07:15:29.999Z</time></trkpt><trkpt lat="43.81342915269147" lon="11.479717934665805"><ele>103.75</ele><time>2026-04-18T07:15:30.999Z</time></trkpt><trkpt lat="43.81351684018472" lon="11.479823300013862"><ele>104.0</ele><time>2026-04-18T07:15:31.999Z</time></trkpt><trkpt lat="43.81360220502293" lon="11.479925654945573"><ele>104.25</ele><time>2026-04-18T07:15:32.999Z</time></trkpt><trkpt lat="43.81368712584868" lon="11.480026660809827"><ele>104.5</ele><time>2026-04-18T07:15:33.999Z</time></trkpt><trkpt lat="43.813774327899175" lon="11.480128132786074"><ele>104.75</ele><time>2026-04-18T07:15:34.999Z</time></trkpt><trkpt lat="43.81386232237826" lon="11.48023084622076"><ele>105.0</ele><time>2026-04-18T07:15:35.999Z</time></trkpt><trkpt lat="43.813955476368" lon="11.480337065665378"><ele>105.0</ele><time>2026-04-18T07:15:36.999Z</time></trkpt><trkpt lat="43.81405390784952" lon="11.48045222865443"><ele>105.0</ele><time>2026-04-18T07:15:37.999Z</time></trkpt><trkpt lat="43.81415737205634" lon="11.480570766972782"><ele>105.0</ele><time>2026-04-18T07:15:38.999Z</time></trkpt><trkpt lat="43.81426563062094" lon="11.480692357814723"><ele>105.0</ele><time>2026-04-18T07:15:39.999Z</time></trkpt><trkpt lat="43.81438063827317" lon="11.480818756614957"><ele>105.0</ele><time>2026-04-18T07:15:40.999Z</time></trkpt><trkpt lat="43.81449535513429" lon="11.480952246148888"><ele>105.0</ele><time>2026-04-18T07:15:41.999Z</time></trkpt><trkpt lat="43.814613586306564" lon="11.48109339156794"><ele>105.0</ele><time>2026-04-18T07:15:42.999Z</time></trkpt><trkpt lat="43.81473493741764" lon="11.48123763569973"><ele>105.33333333333334</ele><time>2026-04-18T07:15:43.999Z</time></trkpt><trkpt lat="43.81485788339562" lon="11.481383066514779"><ele>105.66666666666667</ele><time>2026-04-18T07:15:45Z</time></trkpt><trkpt lat="43.81497736549704" lon="11.481524178259564"><ele>106.0</ele><time>2026-04-18T07:15:46Z</time></trkpt><trkpt lat="43.8150925016834" lon="11.481658411734577"><ele>106.5</ele><time>2026-04-18T07:15:47Z</time></trkpt><trkpt lat="43.81520616031412" lon="11.48178794702444"><ele>107.0</ele><time>2026-04-18T07:15:48Z</time></trkpt><trkpt lat="43.81531844483991" lon="11.481913317537211"><ele>107.5</ele><time>2026-04-18T07:15:49Z</time></trkpt><trkpt lat="43.815426006434066" lon="11.482034187141116"><ele>108.0</ele><time>2026-04-18T07:15:50Z</time></trkpt><trkpt lat="43.81552816298061" lon="11.482152560526234"><ele>108.4</ele><time>2026-04-18T07:15:51Z</time></trkpt><trkpt lat="43.81561847730468" lon="11.482258847261583"><ele>108.80000000000001</ele><time>2026-04-18T07:15:52Z</time></trkpt><trkpt lat="43.81569893584371" lon="11.482357101340966"><ele>109.2</ele><time>2026-04-18T07:15:53Z</time></trkpt><trkpt lat="43.81577994401093" lon="11.482456052178305"><ele>109.6</ele><time>2026-04-18T07:15:54Z</time></trkpt><trkpt lat="43.81586547677273" lon="11.482552487558094"><ele>110.0</ele><time>2026-04-18T07:15:55Z</time></trkpt><trkpt lat="43.81596069095269" lon="11.482641714938019"><ele>110.0</ele><time>2026-04-18T07:15:56Z</time></trkpt><trkpt lat="43.8160664232918" lon="11.482726714913163"><ele>110.0</ele><time>2026-04-18T07:15:57Z</time></trkpt><trkpt lat="43.81618037337932" lon="11.482810353351622"><ele>110.0</ele><time>2026-04-18T07:15:58Z</time></trkpt><trkpt lat="43.8163034888005" lon="11.48289205812293"><ele>110.0</ele><time>2026-04-18T07:15:59Z</time></trkpt><trkpt lat="43.8164365396369" lon="11.482972466311143"><ele>110.0</ele><time>2026-04-18T07:16:00Z</time></trkpt><trkpt lat="43.81657888087609" lon="11.483048136597205"><ele>110.0</ele><time>2026-04-18T07:16:01Z</time></trkpt><trkpt lat="43.81672359325811" lon="11.4831177475768"><ele>110.0</ele><time>2026-04-18T07:16:02Z</time></trkpt><trkpt lat="43.81687722368216" lon="11.483189726724385"><ele>109.0</ele><time>2026-04-18T07:16:03Z</time></trkpt><trkpt lat="43.817036345969576" lon="11.483262156492946"><ele>108.0</ele><time>2026-04-18T07:16:04Z</time></trkpt><trkpt lat="43.817199864754734" lon="11.48333952249711"><ele>107.0</ele><time>2026-04-18T07:16:05Z</time></trkpt><trkpt lat="43.81736997071892" lon="11.483421572229792"><ele>107.0</ele><time>2026-04-18T07:16:06Z</time></trkpt><trkpt lat="43.81754178972902" lon="11.483506102365746"><ele>107.0</ele><time>2026-04-18T07:16:07Z</time></trkpt><trkpt lat="43.817706364367055" lon="11.483587347814202"><ele>107.0</ele><time>2026-04-18T07:16:08Z</time></trkpt><trkpt lat="43.81786374035666" lon="11.483669390185076"><ele>106.66666666666666</ele><time>2026-04-18T07:16:09Z</time></trkpt><trkpt lat="43.818016171734676" lon="11.483743518664049"><ele>106.33333333333334</ele><time>2026-04-18T07:16:10Z</time></trkpt><trkpt lat="43.81816038962724" lon="11.483812466270244"><ele>106.0</ele><time>2026-04-18T07:16:11Z</time></trkpt><trkpt lat="43.81829886432122" lon="11.483878193017771"><ele>106.5</ele><time>2026-04-18T07:16:12Z</time></trkpt><trkpt lat="43.81843061368771" lon="11.48394030243728"><ele>107.0</ele><time>2026-04-18T07:16:13Z</time></trkpt><trkpt lat="43.81856071143372" lon="11.483996985184307"><ele>107.5</ele><time>2026-04-18T07:16:14Z</time></trkpt><trkpt lat="43.818684548178204" lon="11.484056376417831"><ele>108.0</ele><time>2026-04-18T07:16:15Z</time></trkpt><trkpt lat="43.81880594586546" lon="11.48411879065081"><ele>108.25</ele><time>2026-04-18T07:16:16Z</time></trkpt><trkpt lat="43.81892347129168" lon="11.48417467003343"><ele>108.5</ele><time>2026-04-18T07:16:17Z</time></trkpt><trkpt lat="43.81903918662929" lon="11.48422622664872"><ele>108.75</ele><time>2026-04-18T07:16:18Z</time></trkpt><trkpt lat="43.81915456695515" lon="11.484282291489649"><ele>109.0</ele><time>2026-04-18T07:16:19Z</time></trkpt><trkpt lat="43.81926782717831" lon="11.48433594562642"><ele>109.0</ele><time>2026-04-18T07:16:20Z</time></trkpt><trkpt lat="43.819379684251835" lon="11.48439027666019"><ele>109.0</ele><time>2026-04-18T07:16:20.999Z</time></trkpt><trkpt lat="43.819492947815206" lon="11.484445489077368"><ele>109.0</ele><time>2026-04-18T07:16:21.999Z</time></trkpt><trkpt lat="43.81960593342503" lon="11.484500266588666"><ele>109.0</ele><time>2026-04-18T07:16:22.999Z</time></trkpt><trkpt lat="43.81971500430431" lon="11.484554797100929"><ele>109.0</ele><time>2026-04-18T07:16:23.999Z</time></trkpt><trkpt lat="43.81982149130815" lon="11.48460746273867"><ele>109.0</ele><time>2026-04-18T07:16:24.999Z</time></trkpt><trkpt lat="43.819928590756724" lon="11.484655428651381"><ele>109.0</ele><time>2026-04-18T07:16:25.999Z</time></trkpt><trkpt lat="43.82003970238871" lon="11.48470561953041"><ele>109.0</ele><time>2026-04-18T07:16:26.999Z</time></trkpt><trkpt lat="43.820150884648534" lon="11.484759520996766"><ele>109.25</ele><time>2026-04-18T07:16:27.999Z</time></trkpt><trkpt lat="43.82026450016399" lon="11.484813708190126"><ele>109.5</ele><time>2026-04-18T07:16:28.999Z</time></trkpt><trkpt lat="43.82038076785515" lon="11.484870370385703"><ele>109.75</ele><time>2026-04-18T07:16:29.999Z</time></trkpt><trkpt lat="43.82049805491975" lon="11.484928280412618"><ele>110.0</ele><time>2026-04-18T07:16:30.999Z</time></trkpt><trkpt lat="43.82061915841938" lon="11.484983642230024"><ele>110.0</ele><time>2026-04-18T07:16:31.999Z</time></trkpt><trkpt lat="43.820743242187184" lon="11.485039875911285"><ele>110.0</ele><time>2026-04-18T07:16:32.999Z</time></trkpt><trkpt lat="43.82086761444756" lon="11.48510042334291"><ele>110.0</ele><time>2026-04-18T07:16:33.999Z</time></trkpt><trkpt lat="43.82099286568957" lon="11.48515784558367"><ele>110.0</ele><time>2026-04-18T07:16:34.999Z</time></trkpt><trkpt lat="43.82111517948103" lon="11.485211705193237"><ele>110.0</ele><time>2026-04-18T07:16:35.999Z</time></trkpt><trkpt lat="43.82123426896409" lon="11.485268495057085"><ele>110.0</ele><time>2026-04-18T07:16:36.999Z</time></trkpt><trkpt lat="43.82134734230049" lon="11.485326596702308"><ele>110.0</ele><time>2026-04-18T07:16:37.999Z</time></trkpt><trkpt lat="43.82145921939038" lon="11.4853760636843"><ele>110.0</ele><time>2026-04-18T07:16:38.999Z</time></trkpt><trkpt lat="43.82156623512734" lon="11.485427895704724"><ele>110.0</ele><time>2026-04-18T07:16:39.999Z</time></trkpt><trkpt lat="43.821669405986604" lon="11.48547900900407"><ele>110.0</ele><time>2026-04-18T07:16:40.999Z</time></trkpt><trkpt lat="43.821772440503736" lon="11.485527256142207"><ele>110.0</ele><time>2026-04-18T07:16:41.999Z</time></trkpt><trkpt lat="43.82187180285094" lon="11.485572335142292"><ele>110.0</ele><time>2026-04-18T07:16:42.999Z</time></trkpt><trkpt lat="43.82196103551801" lon="11.485614800959443"><ele>110.0</ele><time>2026-04-18T07:16:43.999Z</time></trkpt><trkpt lat="43.822037475626566" lon="11.485649569578266"><ele>110.0</ele><time>2026-04-18T07:16:44.999Z</time></trkpt><trkpt lat="43.82214002152395" lon="11.485703321353991"><ele>110.0</ele><time>2026-04-18T07:16:46.999Z</time></trkpt><trkpt lat="43.82224128838754" lon="11.48575245709272"><ele>110.0</ele><time>2026-04-18T07:16:48.999Z</time></trkpt><trkpt lat="43.82236671639016" lon="11.485808673985069"><ele>110.0</ele><time>2026-04-18T07:16:50.999Z</time></trkpt><trkpt lat="43.82244793312098" lon="11.48584669502821"><ele>110.0</ele><time>2026-04-18T07:16:51.999Z</time></trkpt><trkpt lat="43.82253776275436" lon="11.485890946132338"><ele>110.0</ele><time>2026-04-18T07:16:52.999Z</time></trkpt><trkpt lat="43.822635325976435" lon="11.485938989536805"><ele>110.0</ele><time>2026-04-18T07:16:53.999Z</time></trkpt><trkpt lat="43.82273565368236" lon="11.485987420156803"><ele>110.0</ele><time>2026-04-18T07:16:54.999Z</time></trkpt><trkpt lat="43.82283842254896" lon="11.486037999722793"><ele>110.0</ele><time>2026-04-18T07:16:55.999Z</time></trkpt><trkpt lat="43.822945972752514" lon="11.48609111997758"><ele>110.0</ele><time>2026-04-18T07:16:56.999Z</time></trkpt><trkpt lat="43.82305356309617" lon="11.486142609796714"><ele>110.0</ele><time>2026-04-18T07:16:57.999Z</time></trkpt><trkpt lat="43.82316046333036" lon="11.486193218707125"><ele>110.0</ele><time>2026-04-18T07:16:58.999Z</time></trkpt><trkpt lat="43.823267054896036" lon="11.486244185692875"><ele>110.0</ele><time>2026-04-18T07:16:59.999Z</time></trkpt><trkpt lat="43.82337510846279" lon="11.486296610982757"><ele>110.0</ele><time>2026-04-18T07:17:00.999Z</time></trkpt><trkpt lat="43.82348326630052" lon="11.486347366319015"><ele>110.75</ele><time>2026-04-18T07:17:01.999Z</time></trkpt><trkpt lat="43.82359289624248" lon="11.486396689604055"><ele>111.5</ele><time>2026-04-18T07:17:02.999Z</time></trkpt><trkpt lat="43.823702128370286" lon="11.48644780631787"><ele>112.25</ele><time>2026-04-18T07:17:03.999Z</time></trkpt><trkpt lat="43.823810284159116" lon="11.486498763303544"><ele>113.0</ele><time>2026-04-18T07:17:04.999Z</time></trkpt><trkpt lat="43.823919951813" lon="11.486549532700044"><ele>113.0</ele><time>2026-04-18T07:17:05.999Z</time></trkpt><trkpt lat="43.824026922404634" lon="11.486599365526386"><ele>113.00000000000001</ele><time>2026-04-18T07:17:06.999Z</time></trkpt><trkpt lat="43.82413326078058" lon="11.48664734727592"><ele>113.00000000000001</ele><time>2026-04-18T07:17:07.999Z</time></trkpt><trkpt lat="43.82423509431339" lon="11.486699550163909"><ele>113.0</ele><time>2026-04-18T07:17:08.999Z</time></trkpt><trkpt lat="43.82433250640018" lon="11.486748611677157"><ele>113.0</ele><time>2026-04-18T07:17:09.999Z</time></trkpt><trkpt lat="43.82443135589323" lon="11.486790132400548"><ele>112.80000000000001</ele><time>2026-04-18T07:17:10.999Z</time></trkpt><trkpt lat="43.82453155357462" lon="11.486835926904856"><ele>112.60000000000001</ele><time>2026-04-18T07:17:11.999Z</time></trkpt><trkpt lat="43.82463166576613" lon="11.486887430829501"><ele>112.39999999999999</ele><time>2026-04-18T07:17:12.999Z</time></trkpt><trkpt lat="43.824735967300555" lon="11.486938894969994"><ele>112.19999999999999</ele><time>2026-04-18T07:17:13.999Z</time></trkpt><trkpt lat="43.82484092230212" lon="11.486988998314208"><ele>112.0</ele><time>2026-04-18T07:17:14.999Z</time></trkpt><trkpt lat="43.82494764097793" lon="11.487038961663412"><ele>112.0</ele><time>2026-04-18T07:17:15.999Z</time></trkpt><trkpt lat="43.825058863299255" lon="11.487091094394506"><ele>112.0</ele><time>2026-04-18T07:17:16.999Z</time></trkpt><trkpt lat="43.8251729200563" lon="11.487144011830793"><ele>112.0</ele><time>2026-04-18T07:17:17.999Z</time></trkpt><trkpt lat="43.825285481591855" lon="11.487194543940396"><ele>112.0</ele><time>2026-04-18T07:17:18.999Z</time></trkpt><trkpt lat="43.82539294849908" lon="11.487246669226293"><ele>112.6</ele><time>2026-04-18T07:17:19.999Z</time></trkpt><trkpt lat="43.82549045126274" lon="11.487292720667737"><ele>113.19999999999999</ele><time>2026-04-18T07:17:20.999Z</time></trkpt><trkpt lat="43.825581542191564" lon="11.487332847423565"><ele>113.8</ele><time>2026-04-18T07:17:21.999Z</time></trkpt><trkpt lat="43.82567253492529" lon="11.487374729857942"><ele>114.4</ele><time>2026-04-18T07:17:22.999Z</time></trkpt><trkpt lat="43.825764282511344" lon="11.487416136474708"><ele>115.0</ele><time>2026-04-18T07:17:23.999Z</time></trkpt><trkpt lat="43.825857215256455" lon="11.48745702558828"><ele>115.0</ele><time>2026-04-18T07:17:24.999Z</time></trkpt><trkpt lat="43.82595346123023" lon="11.48750261081407"><ele>115.0</ele><time>2026-04-18T07:17:25.999Z</time></trkpt><trkpt lat="43.82605436225976" lon="11.48755509211218"><ele>115.0</ele><time>2026-04-18T07:17:26.999Z</time></trkpt><trkpt lat="43.826155530081145" lon="11.48761164889644"><ele>115.0</ele><time>2026-04-18T07:17:27.999Z</time></trkpt><trkpt lat="43.82625989141311" lon="11.487663232907074"><ele>115.0</ele><time>2026-04-18T07:17:28.999Z</time></trkpt><trkpt lat="43.82636593213845" lon="11.487712616134587"><ele>115.0</ele><time>2026-04-18T07:17:29.999Z</time></trkpt><trkpt lat="43.82646518772217" lon="11.487774531402463"><ele>115.0</ele><time>2026-04-18T07:17:30.999Z</time></trkpt><trkpt lat="43.82656084676869" lon="11.48784793439197"><ele>115.0</ele><time>2026-04-18T07:17:31.999Z</time></trkpt><trkpt lat="43.82663749957144" lon="11.487943580716873"><ele>115.0</ele><time>2026-04-18T07:17:32.999Z</time></trkpt><trkpt lat="43.82668145232173" lon="11.488046123383866"><ele>115.0</ele><time>2026-04-18T07:17:33.999Z</time></trkpt><trkpt lat="43.8267148308227" lon="11.48814153005312"><ele>115.0</ele><time>2026-04-18T07:17:34.999Z</time></trkpt><trkpt lat="43.82674247510461" lon="11.488244411567155"><ele>115.0</ele><time>2026-04-18T07:17:35.999Z</time></trkpt><trkpt lat="43.826772625582564" lon="11.488353047121334"><ele>115.0</ele><time>2026-04-18T07:17:36.999Z</time></trkpt><trkpt lat="43.82681571639999" lon="11.488464541757049"><ele>115.0</ele><time>2026-04-18T07:17:37.999Z</time></trkpt><trkpt lat="43.82685393329638" lon="11.488594430317558"><ele>115.0</ele><time>2026-04-18T07:17:38.999Z</time></trkpt><trkpt lat="43.826882269506136" lon="11.48872446971926"><ele>115.16666666666667</ele><time>2026-04-18T07:17:39.999Z</time></trkpt><trkpt lat="43.82691381992474" lon="11.488829588927462"><ele>115.33333333333334</ele><time>2026-04-18T07:17:40.999Z</time></trkpt><trkpt lat="43.82694047596966" lon="11.488913766071008"><ele>115.5</ele><time>2026-04-18T07:17:41.999Z</time></trkpt><trkpt lat="43.82697917796638" lon="11.489050034724219"><ele>115.66666666666666</ele><time>2026-04-18T07:17:43.999Z</time></trkpt><trkpt lat="43.82700987376045" lon="11.489165581443071"><ele>115.83333333333333</ele><time>2026-04-18T07:17:46.999Z</time></trkpt><trkpt lat="43.82704613442391" lon="11.489271448651431"><ele>116.0</ele><time>2026-04-18T07:17:49.999Z</time></trkpt><trkpt lat="43.82708972694651" lon="11.489423460787686"><ele>115.99999999999999</ele><time>2026-04-18T07:17:52Z</time></trkpt><trkpt lat="43.82712306303433" lon="11.48952119570724"><ele>116.0</ele><time>2026-04-18T07:17:53Z</time></trkpt><trkpt lat="43.82718867429915" lon="11.489696214019501"><ele>116.0</ele><time>2026-04-18T07:17:55Z</time></trkpt><trkpt lat="43.82722046599744" lon="11.489798619244892"><ele>116.0</ele><time>2026-04-18T07:17:56Z</time></trkpt><trkpt lat="43.827249892762445" lon="11.489894627034248"><ele>115.99999999999999</ele><time>2026-04-18T07:17:57Z</time></trkpt><trkpt lat="43.82727447123487" lon="11.489976045636904"><ele>116.0</ele><time>2026-04-18T07:17:58Z</time></trkpt><trkpt lat="43.82730230301067" lon="11.49007087141039"><ele>116.4</ele><time>2026-04-18T07:17:59Z</time></trkpt><trkpt lat="43.82732013086926" lon="11.49018052659533"><ele>116.8</ele><time>2026-04-18T07:18:00Z</time></trkpt><trkpt lat="43.827299889429" lon="11.490301931663048"><ele>117.20000000000002</ele><time>2026-04-18T07:18:01Z</time></trkpt><trkpt lat="43.8272628337273" lon="11.490423254945451"><ele>117.60000000000001</ele><time>2026-04-18T07:18:02Z</time></trkpt><trkpt lat="43.82722787333906" lon="11.49056120657727"><ele>118.0</ele><time>2026-04-18T07:18:03Z</time></trkpt><trkpt lat="43.82718165736511" lon="11.490703795410157"><ele>118.2</ele><time>2026-04-18T07:18:04Z</time></trkpt><trkpt lat="43.82713327627952" lon="11.490839130163296"><ele>118.4</ele><time>2026-04-18T07:18:05Z</time></trkpt><trkpt lat="43.8270991241622" lon="11.490976760801647"><ele>118.60000000000001</ele><time>2026-04-18T07:18:06Z</time></trkpt><trkpt lat="43.82711398461451" lon="11.491115782816154"><ele>118.80000000000001</ele><time>2026-04-18T07:18:07Z</time></trkpt><trkpt lat="43.827153731030045" lon="11.491248724675685"><ele>119.0</ele><time>2026-04-18T07:18:08Z</time></trkpt><trkpt lat="43.82720323693955" lon="11.491385738990079"><ele>118.5</ele><time>2026-04-18T07:18:09Z</time></trkpt><trkpt lat="43.827252349702235" lon="11.491536412951252"><ele>118.0</ele><time>2026-04-18T07:18:10Z</time></trkpt><trkpt lat="43.82730384682156" lon="11.491691129374429"><ele>117.5</ele><time>2026-04-18T07:18:11Z</time></trkpt><trkpt lat="43.8273597106968" lon="11.491853169803877"><ele>117.0</ele><time>2026-04-18T07:18:12Z</time></trkpt><trkpt lat="43.82741682262489" lon="11.49202834637889"><ele>117.0</ele><time>2026-04-18T07:18:13Z</time></trkpt><trkpt lat="43.82747345794683" lon="11.49219443110673"><ele>117.0</ele><time>2026-04-18T07:18:14Z</time></trkpt><trkpt lat="43.827529350380686" lon="11.49234855762555"><ele>117.0</ele><time>2026-04-18T07:18:15Z</time></trkpt><trkpt lat="43.82758352502918" lon="11.49249913086621"><ele>117.0</ele><time>2026-04-18T07:18:16Z</time></trkpt><trkpt lat="43.827636544903434" lon="11.492648493620134"><ele>116.25</ele><time>2026-04-18T07:18:16.999Z</time></trkpt><trkpt lat="43.82768277959552" lon="11.492798984581245"><ele>115.5</ele><time>2026-04-18T07:18:17.999Z</time></trkpt><trkpt lat="43.82773279579706" lon="11.492947898541235"><ele>114.75</ele><time>2026-04-18T07:18:18.999Z</time></trkpt><trkpt lat="43.82778473615433" lon="11.493095089064154"><ele>114.0</ele><time>2026-04-18T07:18:19.999Z</time></trkpt><trkpt lat="43.82783508300597" lon="11.49323981559489"><ele>114.0</ele><time>2026-04-18T07:18:20.999Z</time></trkpt><trkpt lat="43.82788624019658" lon="11.493382359423167"><ele>114.0</ele><time>2026-04-18T07:18:21.999Z</time></trkpt><trkpt lat="43.82793272874483" lon="11.493525031346193"><ele>114.0</ele><time>2026-04-18T07:18:22.999Z</time></trkpt><trkpt lat="43.827981713189594" lon="11.493672281894185"><ele>114.0</ele><time>2026-04-18T07:18:23.999Z</time></trkpt><trkpt lat="43.82802921329907" lon="11.493824732475932"><ele>114.5</ele><time>2026-04-18T07:18:24.999Z</time></trkpt><trkpt lat="43.82807005652846" lon="11.493987528685295"><ele>115.0</ele><time>2026-04-18T07:18:25.999Z</time></trkpt><trkpt lat="43.82810960808193" lon="11.494153049487151"><ele>115.5</ele><time>2026-04-18T07:18:26.999Z</time></trkpt><trkpt lat="43.82815259588175" lon="11.494322189768466"><ele>116.0</ele><time>2026-04-18T07:18:27.999Z</time></trkpt><trkpt lat="43.82819508415472" lon="11.494493099082401"><ele>118.0</ele><time>2026-04-18T07:18:28.999Z</time></trkpt><trkpt lat="43.82824168501788" lon="11.494661612367613"><ele>120.0</ele><time>2026-04-18T07:18:29.999Z</time></trkpt><trkpt lat="43.82829377256563" lon="11.494830005485953"><ele>122.0</ele><time>2026-04-18T07:18:30.999Z</time></trkpt><trkpt lat="43.82835673675637" lon="11.49499850389881"><ele>124.0</ele><time>2026-04-18T07:18:31.999Z</time></trkpt><trkpt lat="43.82843000972708" lon="11.495161885794419"><ele>121.75</ele><time>2026-04-18T07:18:32.999Z</time></trkpt><trkpt lat="43.828514570671715" lon="11.495319317277062"><ele>119.5</ele><time>2026-04-18T07:18:33.999Z</time></trkpt><trkpt lat="43.828607592458916" lon="11.495466266233416"><ele>117.25</ele><time>2026-04-18T07:18:34.999Z</time></trkpt><trkpt lat="43.828700871976416" lon="11.495600807139693"><ele>115.0</ele><time>2026-04-18T07:18:35.999Z</time></trkpt><trkpt lat="43.82879383554682" lon="11.495727054007075"><ele>115.0</ele><time>2026-04-18T07:18:36.999Z</time></trkpt><trkpt lat="43.828881420091946" lon="11.495843377156401"><ele>115.0</ele><time>2026-04-18T07:18:37.999Z</time></trkpt><trkpt lat="43.828958411655854" lon="11.495949266023358"><ele>115.0</ele><time>2026-04-18T07:18:38.999Z</time></trkpt><trkpt lat="43.82903125164317" lon="11.496047772597588"><ele>115.0</ele><time>2026-04-18T07:18:39.999Z</time></trkpt><trkpt lat="43.82910040497877" lon="11.496140447426129"><ele>115.0</ele><time>2026-04-18T07:18:40.999Z</time></trkpt><trkpt lat="43.8291693216361" lon="11.496228179364325"><ele>115.0</ele><time>2026-04-18T07:18:41.999Z</time></trkpt><trkpt lat="43.82923847002693" lon="11.496316512128063"><ele>115.0</ele><time>2026-04-18T07:18:42.999Z</time></trkpt><trkpt lat="43.82930188809805" lon="11.496394666379933"><ele>115.0</ele><time>2026-04-18T07:18:43.999Z</time></trkpt><trkpt lat="43.82936654107744" lon="11.496474219487885"><ele>115.0</ele><time>2026-04-18T07:18:44.999Z</time></trkpt><trkpt lat="43.8294376658937" lon="11.496562585757662"><ele>115.0</ele><time>2026-04-18T07:18:45.999Z</time></trkpt><trkpt lat="43.82951309349399" lon="11.496661664843048"><ele>115.0</ele><time>2026-04-18T07:18:46.999Z</time></trkpt><trkpt lat="43.829595209182365" lon="11.496766743281968"><ele>115.0</ele><time>2026-04-18T07:18:47.999Z</time></trkpt><trkpt lat="43.829678331509776" lon="11.496875951744487"><ele>115.0</ele><time>2026-04-18T07:18:48.999Z</time></trkpt><trkpt lat="43.82976381255616" lon="11.496987144653133"><ele>115.0</ele><time>2026-04-18T07:18:49.999Z</time></trkpt><trkpt lat="43.829850689720274" lon="11.497099068698052"><ele>115.5</ele><time>2026-04-18T07:18:50.999Z</time></trkpt><trkpt lat="43.82993912573844" lon="11.497211233930255"><ele>116.0</ele><time>2026-04-18T07:18:51.999Z</time></trkpt><trkpt lat="43.83002558646464" lon="11.49732451929523"><ele>116.5</ele><time>2026-04-18T07:18:52.999Z</time></trkpt><trkpt lat="43.83011019005339" lon="11.497435094001949"><ele>117.0</ele><time>2026-04-18T07:18:53.999Z</time></trkpt><trkpt lat="43.830193616152194" lon="11.49754253106461"><ele>117.0</ele><time>2026-04-18T07:18:54.999Z</time></trkpt><trkpt lat="43.830279732259704" lon="11.497641209043069"><ele>116.99999999999999</ele><time>2026-04-18T07:18:55.999Z</time></trkpt><trkpt lat="43.83035934105314" lon="11.497728135831462"><ele>116.99999999999999</ele><time>2026-04-18T07:18:56.999Z</time></trkpt><trkpt lat="43.83044245222636" lon="11.497801186077277"><ele>117.0</ele><time>2026-04-18T07:18:57.999Z</time></trkpt><trkpt lat="43.830531456956685" lon="11.497867917978374"><ele>117.0</ele><time>2026-04-18T07:18:58.999Z</time></trkpt><trkpt lat="43.830625129532564" lon="11.49792683739754"><ele>118.6</ele><time>2026-04-18T07:18:59.999Z</time></trkpt><trkpt lat="43.83072340271399" lon="11.497979093006073"><ele>120.19999999999999</ele><time>2026-04-18T07:19:00.999Z</time></trkpt><trkpt lat="43.83082379234862" lon="11.498032382715468"><ele>121.8</ele><time>2026-04-18T07:19:01.999Z</time></trkpt><trkpt lat="43.83092750859243" lon="11.49808600750649"><ele>123.4</ele><time>2026-04-18T07:19:02.999Z</time></trkpt><trkpt lat="43.83103755716384" lon="11.498142234182327"><ele>125.0</ele><time>2026-04-18T07:19:03.999Z</time></trkpt><trkpt lat="43.83115245878826" lon="11.49820162354825"><ele>125.0</ele><time>2026-04-18T07:19:04.999Z</time></trkpt><trkpt lat="43.83127185877583" lon="11.498261303762092"><ele>125.0</ele><time>2026-04-18T07:19:05.999Z</time></trkpt><trkpt lat="43.831393830466446" lon="11.498322978155128"><ele>125.0</ele><time>2026-04-18T07:19:06.999Z</time></trkpt><trkpt lat="43.8315180959939" lon="11.49838300306225"><ele>125.0</ele><time>2026-04-18T07:19:07.999Z</time></trkpt><trkpt lat="43.83164182163434" lon="11.498436954684962"><ele>125.0</ele><time>2026-04-18T07:19:08.999Z</time></trkpt><trkpt lat="43.831757925318676" lon="11.498479241545464"><ele>125.0</ele><time>2026-04-18T07:19:09.999Z</time></trkpt><trkpt lat="43.83186550046154" lon="11.49851218719651"><ele>125.0</ele><time>2026-04-18T07:19:10.999Z</time></trkpt><trkpt lat="43.831972531827766" lon="11.498543621056704"><ele>125.0</ele><time>2026-04-18T07:19:11.999Z</time></trkpt><trkpt lat="43.832076376712614" lon="11.49857150979906"><ele>125.0</ele><time>2026-04-18T07:19:12.999Z</time></trkpt><trkpt lat="43.832172391036885" lon="11.498594649696674"><ele>124.33333333333333</ele><time>2026-04-18T07:19:13.999Z</time></trkpt><trkpt lat="43.832260879534665" lon="11.498619458809838"><ele>123.66666666666666</ele><time>2026-04-18T07:19:14.999Z</time></trkpt><trkpt lat="43.83233576066536" lon="11.49863787068446"><ele>123.0</ele><time>2026-04-18T07:19:15.999Z</time></trkpt><trkpt lat="43.8324042276494" lon="11.498652235328347"><ele>122.33333333333334</ele><time>2026-04-18T07:19:17.999Z</time></trkpt><trkpt lat="43.832473569470125" lon="11.49865558034383"><ele>121.66666666666667</ele><time>2026-04-18T07:19:20.999Z</time></trkpt><trkpt lat="43.83256498894724" lon="11.498655940152528"><ele>121.0</ele><time>2026-04-18T07:19:22.999Z</time></trkpt><trkpt lat="43.832697231536436" lon="11.49865067954165"><ele>120.66666666666667</ele><time>2026-04-18T07:19:24.999Z</time></trkpt><trkpt lat="43.832778873518535" lon="11.498649956934237"><ele>120.33333333333334</ele><time>2026-04-18T07:19:25.999Z</time></trkpt><trkpt lat="43.83286183196512" lon="11.498648954166836"><ele>120.0</ele><time>2026-04-18T07:19:26.999Z</time></trkpt><trkpt lat="43.83294492964473" lon="11.498648574692194"><ele>119.66666666666666</ele><time>2026-04-18T07:19:27.999Z</time></trkpt><trkpt lat="43.83303563526164" lon="11.498647034353745"><ele>119.33333333333333</ele><time>2026-04-18T07:19:28.999Z</time></trkpt><trkpt lat="43.833132321270995" lon="11.498644988645532"><ele>119.0</ele><time>2026-04-18T07:19:29.999Z</time></trkpt><trkpt lat="43.83324053554589" lon="11.498640397714672"><ele>119.0</ele><time>2026-04-18T07:19:30.999Z</time></trkpt><trkpt lat="43.83335837023856" lon="11.498636977898412"><ele>119.0</ele><time>2026-04-18T07:19:31.999Z</time></trkpt><trkpt lat="43.83348682156316" lon="11.498634834959102"><ele>119.0</ele><time>2026-04-18T07:19:32.999Z</time></trkpt><trkpt lat="43.83362165203189" lon="11.498631450768247"><ele>119.0</ele><time>2026-04-18T07:19:33.999Z</time></trkpt><trkpt lat="43.83375073542382" lon="11.498628486111649"><ele>118.80000000000001</ele><time>2026-04-18T07:19:34.999Z</time></trkpt><trkpt lat="43.833861832612165" lon="11.498625619207312"><ele>118.60000000000001</ele><time>2026-04-18T07:19:35.999Z</time></trkpt><trkpt lat="43.833962531666714" lon="11.498623109137204"><ele>118.4</ele><time>2026-04-18T07:19:36.999Z</time></trkpt><trkpt lat="43.834064810985645" lon="11.498621287331336"><ele>118.2</ele><time>2026-04-18T07:19:37.999Z</time></trkpt><trkpt lat="43.83416724082497" lon="11.498618611835635"><ele>118.0</ele><time>2026-04-18T07:19:38.999Z</time></trkpt><trkpt lat="43.83427355920101" lon="11.498615671049484"><ele>118.25</ele><time>2026-04-18T07:19:39.999Z</time></trkpt><trkpt lat="43.83438282935951" lon="11.498613123660482"><ele>118.5</ele><time>2026-04-18T07:19:40.999Z</time></trkpt><trkpt lat="43.834495197203076" lon="11.498610099467765"><ele>118.75</ele><time>2026-04-18T07:19:41.999Z</time></trkpt><trkpt lat="43.83460905264527" lon="11.498607596137989"><ele>119.0</ele><time>2026-04-18T07:19:42.999Z</time></trkpt><trkpt lat="43.834723400282" lon="11.498604707807399"><ele>119.0</ele><time>2026-04-18T07:19:43.999Z</time></trkpt><trkpt lat="43.834829628367594" lon="11.498601059359622"><ele>119.0</ele><time>2026-04-18T07:19:44.999Z</time></trkpt><trkpt lat="43.83492780872387" lon="11.498600070472328"><ele>119.0</ele><time>2026-04-18T07:19:45.999Z</time></trkpt><trkpt lat="43.83501349419149" lon="11.498599336330555"><ele>119.0</ele><time>2026-04-18T07:19:46.999Z</time></trkpt><trkpt lat="43.8350960890374" lon="11.49859720439357"><ele>119.0</ele><time>2026-04-18T07:19:47.999Z</time></trkpt><trkpt lat="43.83517990032363" lon="11.498594582039866"><ele>119.2</ele><time>2026-04-18T07:19:48.999Z</time></trkpt><trkpt lat="43.8352682233229" lon="11.498592448630234"><ele>119.4</ele><time>2026-04-18T07:19:49.999Z</time></trkpt><trkpt lat="43.83536120802412" lon="11.498589120072442"><ele>119.6</ele><time>2026-04-18T07:19:50.999Z</time></trkpt><trkpt lat="43.835461744914426" lon="11.498584825336623"><ele>119.8</ele><time>2026-04-18T07:19:51.999Z</time></trkpt><trkpt lat="43.83557181850449" lon="11.498579034404546"><ele>120.0</ele><time>2026-04-18T07:19:52.999Z</time></trkpt><trkpt lat="43.83569009678595" lon="11.498577185924328"><ele>120.0</ele><time>2026-04-18T07:19:53.999Z</time></trkpt><trkpt lat="43.83582014947856" lon="11.498575483748516"><ele>120.0</ele><time>2026-04-18T07:19:54.999Z</time></trkpt><trkpt lat="43.83595225726849" lon="11.498572023478886"><ele>120.0</ele><time>2026-04-18T07:19:56Z</time></trkpt><trkpt lat="43.836089118760455" lon="11.49856729097952"><ele>120.0</ele><time>2026-04-18T07:19:57Z</time></trkpt><trkpt lat="43.83622782030243" lon="11.498562396260247"><ele>121.0</ele><time>2026-04-18T07:19:58Z</time></trkpt><trkpt lat="43.83635290405913" lon="11.498560113840897"><ele>122.0</ele><time>2026-04-18T07:19:59Z</time></trkpt><trkpt lat="43.836468892273196" lon="11.498557979189728"><ele>123.0</ele><time>2026-04-18T07:20:00Z</time></trkpt><trkpt lat="43.8365795637325" lon="11.498557022569127"><ele>124.0</ele><time>2026-04-18T07:20:01Z</time></trkpt><trkpt lat="43.83668352422468" lon="11.498557204766259"><ele>124.00000000000001</ele><time>2026-04-18T07:20:02Z</time></trkpt><trkpt lat="43.83677326719337" lon="11.498559180549426"><ele>124.0</ele><time>2026-04-18T07:20:03Z</time></trkpt><trkpt lat="43.83685787777822" lon="11.498562132257309"><ele>124.0</ele><time>2026-04-18T07:20:04Z</time></trkpt><trkpt lat="43.83693487410419" lon="11.498573169521599"><ele>124.0</ele><time>2026-04-18T07:20:05Z</time></trkpt><trkpt lat="43.83700643523424" lon="11.498607739499473"><ele>124.00000000000001</ele><time>2026-04-18T07:20:05.999Z</time></trkpt><trkpt lat="43.837071980360015" lon="11.498674140456975"><ele>124.0</ele><time>2026-04-18T07:20:06.999Z</time></trkpt><trkpt lat="43.83713521352468" lon="11.498774813253386"><ele>125.5</ele><time>2026-04-18T07:20:08Z</time></trkpt><trkpt lat="43.837212864129796" lon="11.498858308424715"><ele>127.0</ele><time>2026-04-18T07:20:09Z</time></trkpt><trkpt lat="43.8373169869512" lon="11.498926153330363"><ele>128.5</ele><time>2026-04-18T07:20:10Z</time></trkpt><trkpt lat="43.83741504065365" lon="11.499022014088037"><ele>130.0</ele><time>2026-04-18T07:20:11Z</time></trkpt><trkpt lat="43.837498082277364" lon="11.499172406942087"><ele>130.0</ele><time>2026-04-18T07:20:12Z</time></trkpt><trkpt lat="43.837557599825395" lon="11.499349702835211"><ele>130.0</ele><time>2026-04-18T07:20:13Z</time></trkpt><trkpt lat="43.83760545781738" lon="11.499542169611473"><ele>130.0</ele><time>2026-04-18T07:20:14Z</time></trkpt><trkpt lat="43.837650960647025" lon="11.499714188103551"><ele>130.0</ele><time>2026-04-18T07:20:15Z</time></trkpt><trkpt lat="43.83769525513123" lon="11.499864781875345"><ele>131.0</ele><time>2026-04-18T07:20:16Z</time></trkpt><trkpt lat="43.8377434311885" lon="11.50000389497653"><ele>132.0</ele><time>2026-04-18T07:20:17Z</time></trkpt><trkpt lat="43.837817673621416" lon="11.500125459109475"><ele>133.0</ele><time>2026-04-18T07:20:18Z</time></trkpt><trkpt lat="43.837918605256334" lon="11.500218902122361"><ele>134.0</ele><time>2026-04-18T07:20:19Z</time></trkpt><trkpt lat="43.83803546605189" lon="11.500284974166641"><ele>134.0</ele><time>2026-04-18T07:20:19.999Z</time></trkpt><trkpt lat="43.838162583673586" lon="11.500331113999536"><ele>134.0</ele><time>2026-04-18T07:20:20.999Z</time></trkpt><trkpt lat="43.83829976866035" lon="11.500358590989991"><ele>134.0</ele><time>2026-04-18T07:20:21.999Z</time></trkpt><trkpt lat="43.83844514096009" lon="11.500394217094884"><ele>134.0</ele><time>2026-04-18T07:20:22.999Z</time></trkpt><trkpt lat="43.83859270079229" lon="11.500439758934784"><ele>136.66666666666666</ele><time>2026-04-18T07:20:23.999Z</time></trkpt><trkpt lat="43.83874471019105" lon="11.500481270885768"><ele>139.33333333333334</ele><time>2026-04-18T07:20:24.999Z</time></trkpt><trkpt lat="43.83889566715087" lon="11.500524318754154"><ele>142.0</ele><time>2026-04-18T07:20:25.999Z</time></trkpt><trkpt lat="43.83905231358442" lon="11.500567410231596"><ele>142.0</ele><time>2026-04-18T07:20:26.999Z</time></trkpt><trkpt lat="43.839220640732066" lon="11.500632579849864"><ele>142.0</ele><time>2026-04-18T07:20:27.999Z</time></trkpt><trkpt lat="43.839404405132" lon="11.500687528817316"><ele>142.0</ele><time>2026-04-18T07:20:28.999Z</time></trkpt><trkpt lat="43.83957100935735" lon="11.500722245578322"><ele>143.0</ele><time>2026-04-18T07:20:29.999Z</time></trkpt><trkpt lat="43.83974508526906" lon="11.500794078700846"><ele>144.0</ele><time>2026-04-18T07:20:30.999Z</time></trkpt><trkpt lat="43.83989392151864" lon="11.500837519194713"><ele>145.0</ele><time>2026-04-18T07:20:31.999Z</time></trkpt><trkpt lat="43.84003500413403" lon="11.500864771082435"><ele>146.0</ele><time>2026-04-18T07:20:32.999Z</time></trkpt><trkpt lat="43.840175296511894" lon="11.500855065053521"><ele>147.0</ele><time>2026-04-18T07:20:33.999Z</time></trkpt><trkpt lat="43.84031291337247" lon="11.500808217987077"><ele>148.0</ele><time>2026-04-18T07:20:34.999Z</time></trkpt><trkpt lat="43.84044604300923" lon="11.50074675223899"><ele>149.0</ele><time>2026-04-18T07:20:35.999Z</time></trkpt><trkpt lat="43.84057693954147" lon="11.500659523854715"><ele>149.0</ele><time>2026-04-18T07:20:36.999Z</time></trkpt><trkpt lat="43.84070555857416" lon="11.500547813247119"><ele>149.0</ele><time>2026-04-18T07:20:37.999Z</time></trkpt><trkpt lat="43.840831587851994" lon="11.500423789789995"><ele>149.0</ele><time>2026-04-18T07:20:38.999Z</time></trkpt><trkpt lat="43.840955544209486" lon="11.500297940723078"><ele>147.75</ele><time>2026-04-18T07:20:39.999Z</time></trkpt><trkpt lat="43.841079227189326" lon="11.500175884348687"><ele>146.5</ele><time>2026-04-18T07:20:40.999Z</time></trkpt><trkpt lat="43.8411983630815" lon="11.50004897699713"><ele>145.25</ele><time>2026-04-18T07:20:41.999Z</time></trkpt><trkpt lat="43.84130382430738" lon="11.499942929332281"><ele>144.0</ele><time>2026-04-18T07:20:42.999Z</time></trkpt><trkpt lat="43.8413993911597" lon="11.49984859855009"><ele>144.0</ele><time>2026-04-18T07:20:43.999Z</time></trkpt><trkpt lat="43.84150427275345" lon="11.499777416713838"><ele>144.0</ele><time>2026-04-18T07:20:44.999Z</time></trkpt><trkpt lat="43.84161918165694" lon="11.499737559109255"><ele>144.0</ele><time>2026-04-18T07:20:45.999Z</time></trkpt><trkpt lat="43.84173733511402" lon="11.499712076964839"><ele>144.0</ele><time>2026-04-18T07:20:46.999Z</time></trkpt><trkpt lat="43.84185928130232" lon="11.49968139361517"><ele>145.75</ele><time>2026-04-18T07:20:47.999Z</time></trkpt><trkpt lat="43.841981056127466" lon="11.499641781981657"><ele>147.5</ele><time>2026-04-18T07:20:48.999Z</time></trkpt><trkpt lat="43.84210082909106" lon="11.499606510839167"><ele>149.25</ele><time>2026-04-18T07:20:49.999Z</time></trkpt><trkpt lat="43.842229830451636" lon="11.499576977137336"><ele>151.0</ele><time>2026-04-18T07:20:50.999Z</time></trkpt><trkpt lat="43.84237550145966" lon="11.499557707292864"><ele>147.25</ele><time>2026-04-18T07:20:51.999Z</time></trkpt><trkpt lat="43.842527411506246" lon="11.499540554433404"><ele>143.5</ele><time>2026-04-18T07:20:52.999Z</time></trkpt><trkpt lat="43.84267752375128" lon="11.499534290134225"><ele>139.75</ele><time>2026-04-18T07:20:53.999Z</time></trkpt><trkpt lat="43.84282422404942" lon="11.499528773377452"><ele>136.0</ele><time>2026-04-18T07:20:54.999Z</time></trkpt><trkpt lat="43.84297089949073" lon="11.499519684917216"><ele>135.75</ele><time>2026-04-18T07:20:55.999Z</time></trkpt><trkpt lat="43.84310723710087" lon="11.499512296709467"><ele>135.5</ele><time>2026-04-18T07:20:56.999Z</time></trkpt><trkpt lat="43.84323993890862" lon="11.499502774089231"><ele>135.25</ele><time>2026-04-18T07:20:57.999Z</time></trkpt><trkpt lat="43.84336463055491" lon="11.499494182239806"><ele>135.0</ele><time>2026-04-18T07:20:58.999Z</time></trkpt><trkpt lat="43.843485918724205" lon="11.499481660108652"><ele>134.75</ele><time>2026-04-18T07:20:59.999Z</time></trkpt><trkpt lat="43.843609228591845" lon="11.499470965251218"><ele>134.5</ele><time>2026-04-18T07:21:00.999Z</time></trkpt><trkpt lat="43.843734179382146" lon="11.499464320623026"><ele>134.25</ele><time>2026-04-18T07:21:01.999Z</time></trkpt><trkpt lat="43.843864576906064" lon="11.499463489491482"><ele>134.0</ele><time>2026-04-18T07:21:02.999Z</time></trkpt><trkpt lat="43.84399852876205" lon="11.499459156086981"><ele>134.0</ele><time>2026-04-18T07:21:03.999Z</time></trkpt><trkpt lat="43.84414272238145" lon="11.499446674005055"><ele>134.0</ele><time>2026-04-18T07:21:04.999Z</time></trkpt><trkpt lat="43.844286460371215" lon="11.499440106246"><ele>134.0</ele><time>2026-04-18T07:21:05.999Z</time></trkpt><trkpt lat="43.84442820095208" lon="11.499428859847082"><ele>134.0</ele><time>2026-04-18T07:21:06.999Z</time></trkpt><trkpt lat="43.84455885484403" lon="11.499417280933542"><ele>134.5</ele><time>2026-04-18T07:21:07.999Z</time></trkpt><trkpt lat="43.844679685526295" lon="11.499406662514271"><ele>135.0</ele><time>2026-04-18T07:21:08.999Z</time></trkpt><trkpt lat="43.844795461346834" lon="11.499400075533298"><ele>135.5</ele><time>2026-04-18T07:21:09.999Z</time></trkpt><trkpt lat="43.844911804397675" lon="11.499393359122534"><ele>136.0</ele><time>2026-04-18T07:21:10.999Z</time></trkpt><trkpt lat="43.845022831487206" lon="11.499388878140275"><ele>136.0</ele><time>2026-04-18T07:21:11.999Z</time></trkpt><trkpt lat="43.84512763000373" lon="11.499383800904031"><ele>136.0</ele><time>2026-04-18T07:21:12.999Z</time></trkpt><trkpt lat="43.84522960987937" lon="11.499372319593085"><ele>136.0</ele><time>2026-04-18T07:21:13.999Z</time></trkpt><trkpt lat="43.84533476331075" lon="11.499364891170936"><ele>136.0</ele><time>2026-04-18T07:21:14.999Z</time></trkpt><trkpt lat="43.84544637042107" lon="11.499361154691824"><ele>136.0</ele><time>2026-04-18T07:21:15.999Z</time></trkpt><trkpt lat="43.84557421093175" lon="11.499374065434607"><ele>136.0</ele><time>2026-04-18T07:21:16.999Z</time></trkpt><trkpt lat="43.84570780425339" lon="11.49940628846148"><ele>136.0</ele><time>2026-04-18T07:21:17.999Z</time></trkpt><trkpt lat="43.845841740715336" lon="11.499466929733368"><ele>136.0</ele><time>2026-04-18T07:21:18.999Z</time></trkpt><trkpt lat="43.84597213323013" lon="11.499539870304492"><ele>136.0</ele><time>2026-04-18T07:21:19.999Z</time></trkpt><trkpt lat="43.846098851879006" lon="11.499627549562144"><ele>136.0</ele><time>2026-04-18T07:21:20.999Z</time></trkpt><trkpt lat="43.846214575371555" lon="11.499725188939456"><ele>136.0</ele><time>2026-04-18T07:21:21.999Z</time></trkpt><trkpt lat="43.84631249462159" lon="11.499830755031107"><ele>136.0</ele><time>2026-04-18T07:21:22.999Z</time></trkpt><trkpt lat="43.84640196047587" lon="11.499930662095379"><ele>136.0</ele><time>2026-04-18T07:21:23.999Z</time></trkpt><trkpt lat="43.84648708620724" lon="11.500025870649115"><ele>136.0</ele><time>2026-04-18T07:21:24.999Z</time></trkpt><trkpt lat="43.84657020768728" lon="11.50011883618051"><ele>136.0</ele><time>2026-04-18T07:21:25.999Z</time></trkpt><trkpt lat="43.84665409373556" lon="11.500214824038457"><ele>136.0</ele><time>2026-04-18T07:21:26.999Z</time></trkpt><trkpt lat="43.84673915872591" lon="11.500311814511482"><ele>136.0</ele><time>2026-04-18T07:21:27.999Z</time></trkpt><trkpt lat="43.846826910533586" lon="11.500410580753341"><ele>136.0</ele><time>2026-04-18T07:21:28.999Z</time></trkpt><trkpt lat="43.84691549557222" lon="11.500511455251894"><ele>135.75</ele><time>2026-04-18T07:21:29.999Z</time></trkpt><trkpt lat="43.84700564717448" lon="11.500614626889003"><ele>135.5</ele><time>2026-04-18T07:21:30.999Z</time></trkpt><trkpt lat="43.847097002312445" lon="11.500716737683486"><ele>135.25</ele><time>2026-04-18T07:21:31.999Z</time></trkpt><trkpt lat="43.847187346462874" lon="11.500820548030477"><ele>135.0</ele><time>2026-04-18T07:21:32.999Z</time></trkpt><trkpt lat="43.847271990963186" lon="11.500915927134088"><ele>135.0</ele><time>2026-04-18T07:21:33.999Z</time></trkpt><trkpt lat="43.84734987369192" lon="11.501002663851676"><ele>135.0</ele><time>2026-04-18T07:21:34.999Z</time></trkpt><trkpt lat="43.84742434577191" lon="11.501089751403308"><ele>135.0</ele><time>2026-04-18T07:21:35.999Z</time></trkpt><trkpt lat="43.84749597752529" lon="11.50116979789056"><ele>135.0</ele><time>2026-04-18T07:21:36.999Z</time></trkpt><trkpt lat="43.84756801046976" lon="11.501251443575137"><ele>135.0</ele><time>2026-04-18T07:21:37.999Z</time></trkpt><trkpt lat="43.847647283476434" lon="11.50134267177115"><ele>134.8</ele><time>2026-04-18T07:21:38.999Z</time></trkpt><trkpt lat="43.847727705590444" lon="11.50143043613777"><ele>134.6</ele><time>2026-04-18T07:21:39.999Z</time></trkpt><trkpt lat="43.84780961229404" lon="11.501523832726164"><ele>134.4</ele><time>2026-04-18T07:21:40.999Z</time></trkpt><trkpt lat="43.84790054547615" lon="11.501624003960703"><ele>134.2</ele><time>2026-04-18T07:21:41.999Z</time></trkpt><trkpt lat="43.847995085917084" lon="11.501732792881722"><ele>134.0</ele><time>2026-04-18T07:21:42.999Z</time></trkpt><trkpt lat="43.8480914080214" lon="11.501846998065695"><ele>134.0</ele><time>2026-04-18T07:21:43.999Z</time></trkpt><trkpt lat="43.848185483176735" lon="11.50196109976302"><ele>134.0</ele><time>2026-04-18T07:21:44.999Z</time></trkpt><trkpt lat="43.84827769829802" lon="11.502085488485985"><ele>134.0</ele><time>2026-04-18T07:21:45.999Z</time></trkpt><trkpt lat="43.84835917056093" lon="11.50222591897072"><ele>134.0</ele><time>2026-04-18T07:21:46.999Z</time></trkpt><trkpt lat="43.848436100508934" lon="11.502374883858643"><ele>133.5</ele><time>2026-04-18T07:21:47.999Z</time></trkpt><trkpt lat="43.848512200766514" lon="11.502524605482652"><ele>133.0</ele><time>2026-04-18T07:21:48.999Z</time></trkpt><trkpt lat="43.848589239123726" lon="11.502677057169178"><ele>132.5</ele><time>2026-04-18T07:21:49.999Z</time></trkpt><trkpt lat="43.8486679838829" lon="11.502827167251668"><ele>132.0</ele><time>2026-04-18T07:21:50.999Z</time></trkpt><trkpt lat="43.84874904932329" lon="11.502976940676877"><ele>132.0</ele><time>2026-04-18T07:21:51.999Z</time></trkpt><trkpt lat="43.84882792479475" lon="11.5031289876086"><ele>132.0</ele><time>2026-04-18T07:21:52.999Z</time></trkpt><trkpt lat="43.84890850598988" lon="11.503280132096432"><ele>132.0</ele><time>2026-04-18T07:21:53.999Z</time></trkpt><trkpt lat="43.848989789033595" lon="11.503436231053405"><ele>132.0</ele><time>2026-04-18T07:21:54.999Z</time></trkpt><trkpt lat="43.849071839188866" lon="11.503587243743947"><ele>132.0</ele><time>2026-04-18T07:21:55.999Z</time></trkpt><trkpt lat="43.84915215319243" lon="11.503744972266373"><ele>132.0</ele><time>2026-04-18T07:21:56.999Z</time></trkpt><trkpt lat="43.84923224051159" lon="11.503904550526494"><ele>132.0</ele><time>2026-04-18T07:21:57.999Z</time></trkpt><trkpt lat="43.84931019957452" lon="11.504065846273384"><ele>132.0</ele><time>2026-04-18T07:21:58.999Z</time></trkpt><trkpt lat="43.849380946761244" lon="11.504235374586258"><ele>131.0</ele><time>2026-04-18T07:21:59.999Z</time></trkpt><trkpt lat="43.84944865907337" lon="11.50441484909262"><ele>130.0</ele><time>2026-04-18T07:22:00.999Z</time></trkpt><trkpt lat="43.84950964594308" lon="11.50459071890236"><ele>129.0</ele><time>2026-04-18T07:22:02Z</time></trkpt><trkpt lat="43.84956744759193" lon="11.504759605221789"><ele>128.0</ele><time>2026-04-18T07:22:03Z</time></trkpt><trkpt lat="43.84962942336004" lon="11.504927440230396"><ele>128.0</ele><time>2026-04-18T07:22:04Z</time></trkpt><trkpt lat="43.849690923904866" lon="11.505099518584986"><ele>128.0</ele><time>2026-04-18T07:22:05Z</time></trkpt><trkpt lat="43.8497547161937" lon="11.505274216878327"><ele>128.0</ele><time>2026-04-18T07:22:06Z</time></trkpt><trkpt lat="43.84981791646182" lon="11.505450218031813"><ele>128.0</ele><time>2026-04-18T07:22:07Z</time></trkpt><trkpt lat="43.84988281336658" lon="11.505629843480682"><ele>128.5</ele><time>2026-04-18T07:22:08Z</time></trkpt><trkpt lat="43.84994565867331" lon="11.505806333580844"><ele>129.0</ele><time>2026-04-18T07:22:09Z</time></trkpt><trkpt lat="43.850005741349925" lon="11.50597634435651"><ele>129.5</ele><time>2026-04-18T07:22:10Z</time></trkpt><trkpt lat="43.85006378100356" lon="11.506137666265799"><ele>130.0</ele><time>2026-04-18T07:22:11Z</time></trkpt><trkpt lat="43.85011936248932" lon="11.506296122757545"><ele>128.75</ele><time>2026-04-18T07:22:12Z</time></trkpt><trkpt lat="43.850170107117755" lon="11.506451730252017"><ele>127.5</ele><time>2026-04-18T07:22:13Z</time></trkpt><trkpt lat="43.85021347001296" lon="11.506613398397977"><ele>126.25</ele><time>2026-04-18T07:22:14Z</time></trkpt><trkpt lat="43.850239396539756" lon="11.506789174605691"><ele>125.0</ele><time>2026-04-18T07:22:15Z</time></trkpt><trkpt lat="43.85025714844025" lon="11.50698159865425"><ele>125.5</ele><time>2026-04-18T07:22:16Z</time></trkpt><trkpt lat="43.85027556697032" lon="11.507187496319789"><ele>126.0</ele><time>2026-04-18T07:22:17Z</time></trkpt><trkpt lat="43.850293045286094" lon="11.507385336437952"><ele>126.5</ele><time>2026-04-18T07:22:18Z</time></trkpt><trkpt lat="43.850311198404846" lon="11.507575726629439"><ele>127.0</ele><time>2026-04-18T07:22:19Z</time></trkpt><trkpt lat="43.85032779596869" lon="11.507760768430561"><ele>127.25</ele><time>2026-04-18T07:22:20Z</time></trkpt><trkpt lat="43.85033666073798" lon="11.507946929012261"><ele>127.5</ele><time>2026-04-18T07:22:20.999Z</time></trkpt><trkpt lat="43.850350356772275" lon="11.508135882805147"><ele>127.75</ele><time>2026-04-18T07:22:21.999Z</time></trkpt><trkpt lat="43.85036787422198" lon="11.508327397288404"><ele>128.0</ele><time>2026-04-18T07:22:22.999Z</time></trkpt><trkpt lat="43.850385885773974" lon="11.50851798960102"><ele>128.0</ele><time>2026-04-18T07:22:23.999Z</time></trkpt><trkpt lat="43.85039937037957" lon="11.50871464484871"><ele>128.0</ele><time>2026-04-18T07:22:24.999Z</time></trkpt><trkpt lat="43.85041335312645" lon="11.508912994734597"><ele>128.0</ele><time>2026-04-18T07:22:25.999Z</time></trkpt><trkpt lat="43.85042715093882" lon="11.50911404789514"><ele>128.0</ele><time>2026-04-18T07:22:26.999Z</time></trkpt><trkpt lat="43.85044528676256" lon="11.509313212790369"><ele>128.25</ele><time>2026-04-18T07:22:27.999Z</time></trkpt><trkpt lat="43.85046544297389" lon="11.50950460654092"><ele>128.5</ele><time>2026-04-18T07:22:28.999Z</time></trkpt><trkpt lat="43.85048437519426" lon="11.509686010737324"><ele>128.75</ele><time>2026-04-18T07:22:29.999Z</time></trkpt><trkpt lat="43.85049654579083" lon="11.509852071635606"><ele>129.0</ele><time>2026-04-18T07:22:30.999Z</time></trkpt><trkpt lat="43.85050106857475" lon="11.510008070466501"><ele>129.75</ele><time>2026-04-18T07:22:31.999Z</time></trkpt><trkpt lat="43.85049462973872" lon="11.51016807657258"><ele>130.5</ele><time>2026-04-18T07:22:32.999Z</time></trkpt><trkpt lat="43.850477070359126" lon="11.510325061350752"><ele>131.25</ele><time>2026-04-18T07:22:33.999Z</time></trkpt><trkpt lat="43.850461071231535" lon="11.510485604966648"><ele>132.0</ele><time>2026-04-18T07:22:34.999Z</time></trkpt><trkpt lat="43.85044204527238" lon="11.510669618774179"><ele>132.66666666666666</ele><time>2026-04-18T07:22:35.999Z</time></trkpt><trkpt lat="43.850424564921965" lon="11.510870216488934"><ele>133.33333333333331</ele><time>2026-04-18T07:22:36.999Z</time></trkpt><trkpt lat="43.850401113656325" lon="11.511089290962392"><ele>134.0</ele><time>2026-04-18T07:22:37.999Z</time></trkpt><trkpt lat="43.85037422530616" lon="11.511312719152068"><ele>136.33333333333331</ele><time>2026-04-18T07:22:38.999Z</time></trkpt><trkpt lat="43.85034725747604" lon="11.511533586675384"><ele>138.66666666666666</ele><time>2026-04-18T07:22:39.999Z</time></trkpt><trkpt lat="43.85031869632743" lon="11.511740639560264"><ele>141.0</ele><time>2026-04-18T07:22:40.999Z</time></trkpt><trkpt lat="43.850291615989825" lon="11.511927103387894"><ele>142.75</ele><time>2026-04-18T07:22:41.999Z</time></trkpt><trkpt lat="43.850264572223566" lon="11.512106150024742"><ele>144.5</ele><time>2026-04-18T07:22:42.999Z</time></trkpt><trkpt lat="43.850230737732595" lon="11.512285531862496"><ele>146.25</ele><time>2026-04-18T07:22:43.999Z</time></trkpt><trkpt lat="43.850190146279374" lon="11.512460050325679"><ele>148.0</ele><time>2026-04-18T07:22:44.999Z</time></trkpt><trkpt lat="43.85014017821725" lon="11.512637931052776"><ele>147.0</ele><time>2026-04-18T07:22:45.999Z</time></trkpt><trkpt lat="43.85007907454366" lon="11.512815565585816"><ele>146.0</ele><time>2026-04-18T07:22:46.999Z</time></trkpt><trkpt lat="43.85001385615373" lon="11.512985014790717"><ele>145.0</ele><time>2026-04-18T07:22:47.999Z</time></trkpt><trkpt lat="43.8499463275705" lon="11.513130081595223"><ele>144.0</ele><time>2026-04-18T07:22:48.999Z</time></trkpt><trkpt lat="43.84988491092052" lon="11.513262947897475"><ele>142.0</ele><time>2026-04-18T07:22:49.999Z</time></trkpt><trkpt lat="43.849830486536874" lon="11.51340483800319"><ele>140.0</ele><time>2026-04-18T07:22:50.999Z</time></trkpt><trkpt lat="43.84978995189245" lon="11.51356975233293"><ele>138.0</ele><time>2026-04-18T07:22:51.999Z</time></trkpt><trkpt lat="43.84976580894023" lon="11.513750091227234"><ele>136.0</ele><time>2026-04-18T07:22:52.999Z</time></trkpt><trkpt lat="43.84974829908958" lon="11.513942640102774"><ele>132.0</ele><time>2026-04-18T07:22:53.999Z</time></trkpt><trkpt lat="43.84973495190668" lon="11.514114660557745"><ele>132.0</ele><time>2026-04-18T07:22:54.999Z</time></trkpt><trkpt lat="43.849718066608574" lon="11.51427552614625"><ele>132.0</ele><time>2026-04-18T07:22:55.999Z</time></trkpt></trkseg></trk></gpx>